[[{"header":{"parameterUnit":"m.s-1","parameterCategory":1,"la1":31.0,"la2":29.5877,"lo1":-88.7671,"lo2":-86.6584,"dy":0.0162,"dx":0.0185,"nx":115,"ny":88,"refTime":"2023-06-16T18:00:00:Z","depth":0,"parameterNumber":2,"parameterNumberName":"U-component_of_WINDS"},"data":[0.0,0.0,0.0,0.0,0.0,0.0,0.0,0.0,0.0,0.0,0.0,0.0,0.0,0.0,0.0,0.0,0.0,0.0,0.0,0.0,0.0,0.0,0.0,0.0,0.0,0.0,0.0,0.0,0.0,0.0,0.0,0.0,0.0,0.0,0.0,0.0,0.0,0.0,0.0,0.0,0.0,0.0,0.0,0.0,0.0,0.0,0.0,0.0,0.0,0.0,0.0,0.0,0.0,0.0,0.0,0.0,0.0,0.0,0.0,0.0,0.0,0.0,0.0,0.0,0.0,0.0,0.0,0.0,0.0,0.0,0.0,0.0,0.0,0.0,0.0,0.0,0.0,0.0,0.0,0.0,0.0,0.0,0.0,0.0,0.0,0.0,0.0,0.0,0.0,0.0,0.0,0.0,0.0,0.0,0.0,0.0,0.0,0.0,0.0,0.0,0.0,0.0,0.0,0.0,0.0,0.0,0.0,0.0,0.0,0.0,0.0,0.0,0.0,0.0,0.0,0.0,0.0,0.0,0.0,0.0,0.0,0.0,0.0,0.0,0.0,0.0,0.0,0.0,0.0,0.0,0.0,0.0,0.0,0.0,0.0,0.0,0.0,0.0,0.0,0.0,0.0,0.0,0.0,0.0,0.0,0.0,0.0,0.0,0.0,0.0,0.0,0.0,0.0,0.0,0.0,0.0,0.0,0.0,0.0,0.0,0.0,0.0,0.0,0.0,0.0,0.0,0.0,0.0,0.0,0.0,0.0,0.0,0.0,0.0,0.0,0.0,0.0,0.0,0.0,0.0,0.0,0.0,0.0,0.0,0.0,0.0,0.0,0.0,0.0,0.0,0.0,0.0,0.0,0.0,0.0,0.0,0.0,0.0,0.0,0.0,0.0,0.0,0.0,0.0,0.0,0.0,0.0,0.0,0.0,0.0,0.0,0.0,0.0,0.0,0.0,0.0,0.0,0.0,0.0,0.0,0.0,0.0,0.0,0.0,0.0,0.0,0.0,0.0,0.0,0.0,0.0,0.0,0.0,0.0,0.0,0.0,0.0,0.0,0.0,0.0,0.0,0.0,0.0,0.0,0.0,0.0,0.0,0.0,0.0,0.0,0.0,0.0,0.0,0.0,0.0,0.0,0.0,0.0,0.0,0.0,0.0,0.0,0.0,0.0,0.0,0.0,0.0,0.0,0.0,0.0,0.0,0.0,0.0,0.0,0.0,0.0,0.0,0.0,0.0,0.0,0.0,0.0,0.0,0.0,0.0,0.0,0.0,0.0,0.0,0.0,0.0,0.0,0.0,0.0,0.0,0.0,0.0,0.0,0.0,0.0,0.0,0.0,0.0,0.0,0.0,0.0,0.0,0.0,0.0,0.0,0.0,0.0,0.0,0.0,0.0,0.0,0.0,0.0,0.0,0.0,0.0,0.0,0.0,0.0,0.0,0.0,0.0,0.0,0.0,0.0,0.0,0.0,0.0,0.0,0.0,0.0,0.0,0.0,0.0,0.0,0.0,0.0,0.0,0.0,0.0,0.0,0.0,0.0,0.0,0.0,0.0,0.0,0.0,0.0,0.0,0.0,0.0,0.0,0.0,0.0,0.0,0.0,0.0,0.0,0.0,0.0,0.0,0.0,0.0,0.0,0.0,0.0,0.0,0.0,0.0,0.0,0.0,0.0,0.0,0.0,0.0,0.0,0.0,0.0,0.0,0.0,0.0,0.0,0.0,0.0,0.0,0.0,0.0,0.0,0.0,0.0,0.0,0.0,0.0,0.0,0.0,0.0,0.0,0.0,0.0,0.0,0.0,0.0,0.0,0.0,0.0,0.0,0.0,0.0,0.0,0.0,0.0,0.0,0.0,0.0,0.0,0.0,0.0,0.0,0.0,0.0,0.0,0.0,0.0,0.0,0.0,0.0,0.0,0.0,0.0,0.0,0.0,0.0,0.0,0.0,0.0,0.0,0.0,0.0,0.0,0.0,0.0,0.0,0.0,0.0,0.0,0.0,0.0,0.0,0.0,0.0,0.0,0.0,0.0,0.0,0.0,0.0,0.0,0.0,0.0,0.0,0.0,0.0,0.0,0.0,0.0,0.0,0.0,0.0,0.0,0.0,0.0,0.0,0.0,0.0,0.0,0.0,0.0,0.0,0.0,0.0,0.0,0.0,0.0,0.0,0.0,0.0,0.0,0.0,0.0,0.0,0.0,0.0,0.0,0.0,0.0,0.0,0.0,0.0,0.0,0.0,0.0,0.0,0.0,0.0,0.0,0.0,0.0,0.0,0.0,0.0,0.0,0.0,0.0,0.0,0.0,0.0,0.0,0.0,0.0,0.0,0.0,0.0,0.0,0.0,0.0,0.0,0.0,0.0,0.0,0.0,0.0,0.0,0.0,0.0,0.0,0.0,0.0,0.0,0.0,0.0,0.0,0.0,0.0,0.0,0.0,0.0,0.0,0.0,0.0,0.0,0.0,0.0,0.0,0.0,0.0,0.0,0.0,0.0,0.0,0.0,0.0,0.0,0.0,0.0,0.0,0.0,0.0,0.0,0.0,0.0,0.0,0.0,0.0,0.0,0.0,0.0,0.0,0.0,0.0,0.0,0.0,0.0,0.0,0.0,0.0,0.0,0.0,0.0,0.0,0.0,0.0,0.0,0.0,0.0,0.0,0.0,0.0,0.0,0.0,0.0,0.0,0.0,0.0,0.0,0.0,0.0,0.0,0.0,0.0,0.0,0.0,0.0,0.0,0.0,0.0,0.0,0.0,0.0,0.0,0.0,0.0,0.0,0.0,0.0,0.0,0.0,0.0,0.0,0.0,0.0,0.0,0.0,0.0,0.0,0.0,0.0,0.0,0.0,0.0,0.0,0.0,0.0,0.0,0.0,0.0,0.0,0.0,0.0,0.0,0.0,0.0,0.0,0.0,0.0,0.0,0.0,0.0,0.0,0.0,0.0,0.0,0.0,0.0,0.0,0.0,0.0,0.0,0.0,0.0,0.0,0.0,0.0,0.0,0.0,0.0,0.0,0.0,0.0,0.0,0.0,0.0,0.0,0.0,0.0,0.0,0.0,0.0,0.0,0.0,0.0,0.0,0.0,0.0,0.0,0.0,0.0,0.0,0.0,0.0,0.0,0.0,0.0,0.0,0.0,0.0,0.0,0.0,0.0,0.0,0.0,0.0,0.0,0.0,0.0,0.0,0.0,0.0,0.0,0.0,0.0,0.0,0.0,0.0,0.0,0.0,0.0,0.0,0.0,0.0,0.0,0.0,0.0,0.0,0.0,0.0,0.0,0.0,0.0,0.0,0.0,0.0,0.0,0.0,0.0,0.0,0.0,0.0,0.0,0.0,0.0,0.0,0.0,0.0,0.0,0.0,0.0,0.0,0.0,0.0,0.0,0.0,0.0,0.0,0.0,0.0,0.0,0.0,0.0,0.0,0.0,0.0,0.0,0.0,0.0,0.0,0.0,0.0,0.0,0.0,0.0,0.0,0.0,0.0,0.0,0.0,0.0,0.0,0.0,0.0,0.0,0.0,0.0,0.0,0.0,0.0,0.0,0.0,0.0,0.0,0.0,0.0,0.0,0.0,0.0,0.0,0.0,0.0,0.0,0.0,0.0,0.0,0.0,0.0,0.0,0.0,0.0,0.0,0.0,0.0,0.0,0.0,0.0,0.0,0.0,0.0,0.0,0.0,0.0,0.0,0.0,0.0,0.0,0.0,0.0,0.0,0.0,0.0,0.0,0.0,0.0,0.0,0.0,0.0,0.0,0.0,0.0,0.0,0.0,0.0,0.0,0.0,0.0,0.0,0.0,0.0,0.0,0.0,0.0,0.0,0.0,0.0,0.0,0.0,0.0,0.0,0.0,0.0,0.0,0.0,0.0,0.0,0.0,0.0,0.0,0.0,0.0,0.0,0.0,0.0,0.0,0.0,0.0,0.0,0.0,0.0,0.0,0.0,0.0,0.0,0.0,0.0,0.0,0.0,0.0,0.0,0.0,0.0,0.0,0.0,0.0,0.0,0.0,0.0,0.0,0.0,0.0,0.0,0.0,0.0,0.0,0.0,0.0,0.0,0.0,0.0,0.0,0.0,0.0,0.0,0.0,0.0,0.0,0.0,0.0,0.0,0.0,0.0,0.0,0.0,0.0,0.0,0.0,0.0,0.0,0.0,0.0,0.0,0.0,0.0,0.0,0.0,0.0,0.0,0.0,0.0,0.0,0.0,0.0,0.0,0.0,0.0,0.0,0.0,0.0,0.0,0.0,0.0,0.0,0.0,0.0,-1.1117,0.0,0.0,0.0,0.0,0.0,0.0,0.0,0.0,0.0,0.0,0.0,0.0,0.0,0.0,0.0,0.0,0.0,0.0,0.0,0.0,0.0,0.0,0.0,0.0,0.0,0.0,0.0,0.0,0.0,0.0,0.0,0.0,0.0,0.0,0.0,0.0,0.0,0.0,0.0,0.0,0.0,0.0,0.0,0.0,0.0,0.0,0.0,0.0,0.0,0.0,0.0,0.0,0.0,0.0,0.0,0.0,0.0,0.0,0.0,0.0,0.0,0.0,0.0,0.0,0.0,0.0,0.0,0.0,0.0,0.0,0.0,0.0,0.0,0.0,0.0,0.0,0.0,0.0,0.0,0.0,0.0,0.0,0.0,0.0,0.0,0.0,0.0,0.0,0.0,0.0,0.0,0.0,0.0,0.0,0.0,0.0,0.0,0.0,0.0,0.0,0.0,0.0,0.0,0.0,0.0,0.0,0.0,0.0,0.0,0.0,-0.9604,-0.9916,-0.9916,-1.0207,-1.0743,0.0,0.0,0.0,0.0,0.0,0.0,0.0,0.0,0.0,0.0,0.0,0.0,0.0,0.0,0.0,0.0,0.0,0.0,0.0,0.0,0.0,0.0,0.0,0.0,0.0,0.0,0.0,0.0,0.0,0.0,0.0,0.0,0.0,0.0,0.0,0.0,0.0,0.0,0.0,0.0,0.0,0.0,0.0,0.0,0.0,0.0,0.0,0.0,0.0,0.0,0.0,0.0,0.0,0.0,0.0,0.0,0.0,0.0,0.0,0.0,0.0,0.0,0.0,0.0,0.0,0.0,0.0,0.0,0.0,0.0,0.0,0.0,0.0,0.0,0.0,0.0,0.0,0.0,0.0,0.0,0.0,0.0,0.0,0.0,0.0,0.0,0.0,0.0,0.0,0.0,0.0,0.0,0.0,0.0,0.0,0.0,0.0,0.0,0.0,0.0,0.0,0.0,0.0,0.0,0.0,0.0,0.0,0.0,0.0,0.0,0.0,0.0,-0.9311,-0.9528,-1.0293,0.0,0.0,0.0,0.0,0.0,0.0,0.0,0.0,0.0,0.0,0.0,0.0,0.0,0.0,0.0,0.0,0.0,0.0,0.0,0.0,0.0,0.0,0.0,0.0,0.0,0.0,0.0,0.0,0.0,0.0,0.0,0.0,0.0,0.0,0.0,0.0,0.0,0.0,0.0,0.0,0.0,0.0,0.0,0.0,0.0,0.0,0.0,0.0,0.0,0.0,0.0,0.0,0.0,0.0,0.0,0.0,0.0,0.0,0.0,0.0,0.0,0.0,0.0,0.0,0.0,0.0,0.0,0.0,0.0,0.0,0.0,0.0,0.0,0.0,0.0,0.0,0.0,0.0,0.0,0.0,0.0,0.0,0.0,0.0,0.0,0.0,0.0,0.0,0.0,0.0,0.0,0.0,0.0,0.0,0.0,0.0,0.0,0.0,0.0,0.0,0.0,0.0,0.0,0.0,0.0,0.0,0.0,0.0,0.0,0.0,-0.9463,-0.8856,-0.9463,0.0,-0.9927,0.0,0.0,0.0,0.0,0.0,0.0,0.0,0.0,0.0,0.0,0.0,0.0,0.0,0.0,0.0,0.0,0.0,0.0,0.0,0.0,0.0,0.0,0.0,0.0,0.0,0.0,0.0,0.0,0.0,0.0,0.0,0.0,0.0,0.0,0.0,0.0,0.0,0.0,0.0,0.0,0.0,0.0,0.0,0.0,0.0,0.0,0.0,0.0,0.0,0.0,0.0,0.0,0.0,0.0,0.0,0.0,0.0,0.0,0.0,0.0,0.0,0.0,0.0,0.0,0.0,0.0,0.0,0.0,0.0,0.0,0.0,0.0,0.0,0.0,0.0,0.0,0.0,0.0,0.0,0.0,0.0,0.0,0.0,0.0,0.0,0.0,0.0,0.0,0.0,0.0,0.0,0.0,0.0,0.0,0.0,0.0,0.0,0.0,0.0,0.0,0.0,0.0,0.0,0.0,0.0,0.0,0.0,0.0,0.0,0.0,-0.7931,-0.8703,-0.9236,-0.9549,0.0,0.0,0.0,0.0,0.0,0.0,0.0,0.0,0.0,0.0,0.0,0.0,0.0,0.0,0.0,0.0,0.0,0.0,0.0,0.0,0.0,0.0,0.0,0.0,0.0,0.0,0.0,0.0,0.0,0.0,0.0,0.0,0.0,0.0,0.0,0.0,0.0,0.0,0.0,0.0,0.0,0.0,0.0,0.0,0.0,0.0,0.0,0.0,0.0,0.0,0.0,0.0,0.0,0.0,0.0,0.0,0.0,0.0,0.0,0.0,0.0,0.0,0.0,0.0,0.0,0.0,0.0,0.0,0.0,0.0,0.0,0.0,0.0,0.0,0.0,0.0,0.0,0.0,0.0,0.0,0.0,0.0,0.0,0.0,0.0,0.0,0.0,0.0,0.0,0.0,0.0,0.0,0.0,0.0,0.0,0.0,0.0,0.0,0.0,0.0,0.0,0.0,0.0,0.0,0.0,0.0,0.0,0.0,0.0,0.0,-0.6999,-0.7446,-0.8712,-0.9047,-0.917,-0.917,0.0,0.0,0.0,0.0,0.0,0.0,0.0,0.0,0.0,0.0,0.0,0.0,0.0,0.0,0.0,0.0,0.0,0.0,0.0,0.0,0.0,0.0,0.0,0.0,0.0,0.0,0.0,0.0,0.0,0.0,0.0,0.0,0.0,0.0,0.0,0.0,0.0,0.0,0.0,0.0,0.0,0.0,0.0,0.0,0.0,0.0,0.0,0.0,0.0,0.0,0.0,0.0,0.0,0.0,0.0,0.0,0.0,0.0,0.0,0.0,0.0,0.0,0.0,0.0,0.0,0.0,0.0,0.0,0.0,0.0,0.0,0.0,0.0,0.0,0.0,0.0,0.0,0.0,0.0,0.0,0.0,0.0,0.0,0.0,0.0,0.0,0.0,0.0,0.0,0.0,0.0,0.0,0.0,0.0,0.0,0.0,0.0,0.0,0.0,0.0,0.0,0.0,0.0,0.0,0.0,0.0,0.0,0.0,-0.8302,-0.8882,-0.9124,-0.9015,-0.8807,-0.8703,0.0,0.0,0.0,0.0,0.0,0.0,0.0,0.0,0.0,0.0,0.0,0.0,0.0,0.0,0.0,0.0,0.0,0.0,0.0,0.0,0.0,0.0,0.0,0.0,0.0,0.0,0.0,0.0,0.0,0.0,0.0,0.0,0.0,0.0,0.0,0.0,0.0,0.0,0.0,0.0,0.0,0.0,0.0,0.0,0.0,0.0,0.0,0.0,0.0,0.0,0.0,0.0,0.0,0.0,0.0,0.0,0.0,0.0,0.0,0.0,0.0,0.0,0.0,0.0,0.0,0.0,0.0,0.0,0.0,0.0,0.0,0.0,0.0,0.0,0.0,0.0,0.0,0.0,0.0,0.0,0.0,0.0,0.0,0.0,0.0,0.0,0.0,0.0,0.0,0.0,0.0,0.0,0.0,0.0,0.0,0.0,0.0,0.0,0.0,0.0,0.0,0.0,0.0,0.0,0.0,0.0,0.0,0.0,0.0,-0.8336,-0.9,-0.9289,-0.9214,-0.9138,-0.91,0.0,0.0,0.0,0.0,0.0,0.0,0.0,0.0,0.0,0.0,0.0,0.0,0.0,0.0,0.0,0.0,0.0,0.0,0.0,0.0,0.0,0.0,0.0,0.0,0.0,0.0,0.0,0.0,0.0,0.0,0.0,0.0,0.0,0.0,0.0,0.0,0.0,0.0,0.0,0.0,0.0,0.0,0.0,0.0,0.0,0.0,0.0,0.0,0.0,0.0,0.0,0.0,0.0,0.0,0.0,0.0,0.0,0.0,0.0,0.0,0.0,0.0,0.0,0.0,0.0,0.0,0.0,0.0,0.0,0.0,0.0,0.0,0.0,0.0,0.0,0.0,0.0,0.0,0.0,0.0,0.0,0.0,0.0,0.0,0.0,0.0,0.0,0.0,0.0,0.0,0.0,0.0,0.0,0.0,0.0,0.0,0.0,0.0,0.0,0.0,0.0,0.0,0.0,0.0,0.0,0.0,0.0,0.0,0.0,-0.8849,0.0,-0.9174,0.0,-0.9356,-0.9318,0.0,0.0,0.0,0.0,0.0,0.0,0.0,0.0,0.0,0.0,0.0,0.0,0.0,0.0,0.0,0.0,0.0,0.0,0.0,0.0,0.0,0.0,0.0,0.0,0.0,0.0,0.0,0.0,0.0,0.0,0.0,0.0,0.0,0.0,0.0,0.0,0.0,0.0,0.0,0.0,0.0,0.0,0.0,0.0,0.0,0.0,0.0,0.0,0.0,0.0,0.0,0.0,0.0,0.0,0.0,0.0,0.0,0.0,0.0,0.0,0.0,0.0,0.0,0.0,0.0,0.0,0.0,0.0,0.0,0.0,0.0,0.0,0.0,0.0,0.0,0.0,0.0,0.0,0.0,0.0,0.0,0.0,0.0,0.0,0.0,0.0,0.0,0.0,0.0,0.0,0.0,0.0,0.0,0.0,0.0,0.0,0.0,0.0,0.0,0.0,0.0,0.0,0.0,0.0,0.0,0.0,0.0,0.0,-0.8373,-0.9836,-0.906,-0.8963,-0.9564,-0.945,-0.9337,0.0,0.0,0.0,0.0,0.0,0.0,0.0,0.0,0.0,0.0,0.0,0.0,0.0,0.0,0.0,0.0,0.0,0.0,0.0,0.0,0.0,0.0,0.0,0.0,0.0,0.0,0.0,0.0,0.0,0.0,0.0,0.0,0.0,0.0,0.0,0.0,0.0,0.0,0.0,0.0,0.0,0.0,0.0,0.0,0.0,0.0,0.0,0.0,0.0,0.0,0.0,0.0,0.0,0.0,0.0,0.0,0.0,0.0,0.0,0.0,0.0,0.0,0.0,0.0,0.0,0.0,0.0,0.0,0.0,0.0,0.0,0.0,0.0,0.0,0.0,0.0,0.0,0.0,0.0,0.0,0.0,0.0,0.0,0.0,0.0,0.0,0.0,0.0,0.0,0.0,0.0,0.0,0.0,0.0,0.0,0.0,0.0,0.0,0.0,0.0,0.0,0.0,0.0,0.0,0.0,0.0,0.0,0.0,0.0,-0.9157,-0.9452,-0.9684,-0.9856,-0.979,-0.9752,0.0,0.0,0.0,0.0,0.0,0.0,0.0,0.0,0.0,0.0,0.0,0.0,0.0,0.0,0.0,0.0,0.0,0.0,0.0,0.0,0.0,0.0,0.0,0.0,0.0,0.0,0.0,0.0,0.0,0.0,0.0,0.0,0.0,0.0,0.0,0.0,0.0,0.0,0.0,0.0,0.0,0.0,0.0,0.0,0.0,0.0,0.0,0.0,0.0,0.0,0.0,0.0,0.0,0.0,0.0,0.0,0.0,0.0,0.0,0.0,0.0,0.0,0.0,0.0,0.0,0.0,0.0,0.0,0.0,0.0,0.0,0.0,0.0,0.0,0.0,0.0,0.0,0.0,0.0,0.0,0.0,0.0,0.0,0.0,0.0,0.0,0.0,0.0,0.0,0.0,0.0,0.0,0.0,0.0,0.0,0.0,0.0,0.0,0.0,0.0,0.0,0.0,0.0,0.0,0.0,0.0,0.0,0.0,0.0,-0.8935,-0.9195,-0.9643,-1.0178,-1.0276,-1.0187,-1.0276,0.0,0.0,0.0,0.0,0.0,0.0,0.0,0.0,0.0,0.0,0.0,0.0,0.0,0.0,0.0,0.0,0.0,0.0,0.0,0.0,0.0,0.0,0.0,0.0,0.0,0.0,0.0,0.0,0.0,0.0,0.0,0.0,0.0,0.0,0.0,0.0,0.0,0.0,0.0,0.0,0.0,0.0,0.0,0.0,0.0,0.0,0.0,0.0,0.0,0.0,0.0,0.0,0.0,0.0,0.0,0.0,0.0,0.0,0.0,0.0,0.0,0.0,0.0,0.0,0.0,0.0,0.0,0.0,0.0,0.0,0.0,0.0,0.0,0.0,0.0,0.0,0.0,0.0,0.0,0.0,0.0,0.0,0.0,0.0,0.0,0.0,0.0,0.0,0.0,0.0,0.0,0.0,0.0,0.0,0.0,0.0,0.0,0.0,0.0,0.0,0.0,0.0,0.0,0.0,0.0,0.0,0.0,0.0,-0.9027,-0.8644,-0.9104,-1.0473,-1.0565,-1.0575,0.0,0.0,0.0,0.0,0.0,0.0,0.0,0.0,0.0,0.0,0.0,0.0,0.0,0.0,0.0,0.0,0.0,0.0,0.0,0.0,0.0,0.0,0.0,0.0,0.0,0.0,0.0,0.0,0.0,0.0,0.0,0.0,0.0,0.0,0.0,0.0,0.0,0.0,0.0,0.0,0.0,0.0,0.0,0.0,0.0,0.0,0.0,0.0,0.0,0.0,0.0,0.0,0.0,0.0,0.0,0.0,0.0,0.0,0.0,0.0,0.0,0.0,0.0,0.0,0.0,0.0,0.0,0.0,0.0,0.0,0.0,0.0,0.0,0.0,0.0,0.0,0.0,0.0,0.0,0.0,0.0,0.0,0.0,0.0,0.0,0.0,0.0,0.0,0.0,0.0,0.0,0.0,0.0,0.0,0.0,0.0,0.0,0.0,0.0,0.0,0.0,0.0,0.0,0.0,0.0,0.0,0.0,0.0,0.0,-0.9972,-0.9381,-0.9444,-1.0306,-1.0297,-1.0389,0.0,0.0,0.0,0.0,0.0,0.0,0.0,0.0,0.0,0.0,0.0,0.0,0.0,0.0,0.0,0.0,0.0,0.0,0.0,0.0,0.0,0.0,0.0,0.0,0.0,0.0,0.0,0.0,0.0,0.0,0.0,0.0,0.0,0.0,0.0,0.0,0.0,0.0,0.0,0.0,0.0,0.0,0.0,0.0,0.0,0.0,0.0,0.0,0.0,0.0,0.0,0.0,0.0,0.0,0.0,0.0,0.0,0.0,0.0,0.0,0.0,0.0,0.0,0.0,0.0,0.0,0.0,0.0,0.0,0.0,0.0,0.0,0.0,0.0,0.0,0.0,0.0,0.0,0.0,0.0,0.0,0.0,0.0,0.0,0.0,0.0,0.0,0.0,0.0,0.0,0.0,0.0,0.0,0.0,0.0,0.0,0.0,0.0,0.0,0.0,0.0,0.0,0.0,0.0,0.0,0.0,0.0,0.0,-0.9944,-1.0339,-1.0045,-1.0245,-1.0715,-1.0541,-1.0459,0.0,0.0,0.0,0.0,0.0,0.0,0.0,0.0,0.0,0.0,0.0,0.0,0.0,0.0,0.0,0.0,0.0,0.0,0.0,0.0,0.0,0.0,0.0,0.0,0.0,0.0,0.0,0.0,0.0,0.0,0.0,0.0,0.0,0.0,0.0,0.0,0.0,0.0,0.0,0.0,0.0,0.0,0.0,0.0,0.0,0.0,0.0,0.0,0.0,0.0,0.0,0.0,0.0,0.0,0.0,0.0,0.0,0.0,0.0,0.0,0.0,0.0,0.0,0.0,0.0,0.0,0.0,0.0,0.0,0.0,0.0,0.0,0.0,0.0,0.0,0.0,0.0,0.0,0.0,0.0,0.0,0.0,0.0,0.0,0.0,0.0,0.0,0.0,0.0,0.0,0.0,0.0,0.0,0.0,0.0,0.0,0.0,0.0,0.0,0.0,0.0,0.0,0.0,0.0,0.0,0.0,0.0,0.0,-1.0568,-1.0248,-1.0776,-1.1097,-1.1295,-1.1052,-1.0762,0.0,0.0,0.0,0.0,0.0,0.0,0.0,0.0,0.0,0.0,0.0,0.0,0.0,0.0,0.0,0.0,0.0,0.0,0.0,0.0,0.0,0.0,0.0,0.0,0.0,0.0,0.0,0.0,0.0,0.0,0.0,0.0,0.0,0.0,0.0,0.0,0.0,0.0,0.0,0.0,0.0,0.0,0.0,0.0,0.0,0.0,0.0,0.0,0.0,0.0,0.0,0.0,0.0,0.0,0.0,0.0,0.0,0.0,0.0,0.0,0.0,0.0,0.0,0.0,0.0,0.0,0.0,0.0,0.0,0.0,0.0,0.0,0.0,0.0,0.0,0.0,0.0,0.0,0.0,0.0,0.0,0.0,0.0,0.0,0.0,0.0,0.0,0.0,0.0,0.0,0.0,0.0,0.0,0.0,0.0,0.0,0.0,0.0,0.0,0.0,0.0,0.0,0.0,0.0,0.0,0.0,0.0,0.0,-1.088,-1.088,-1.0993,-1.0993,-1.1097,-1.1214,-1.1271,0.0,0.0,0.0,0.0,0.0,0.0,0.0,0.0,0.0,0.0,0.0,0.0,0.0,0.0,0.0,0.0,0.0,0.0,0.0,0.0,0.0,0.0,0.0,0.0,0.0,0.0,0.0,0.0,0.0,0.0,0.0,0.0,0.0,0.0,0.0,0.0,0.0,0.0,0.0,0.0,0.0,0.0,0.0,0.0,0.0,0.0,0.0,0.0,-2.0855,0.0,0.0,0.0,0.0,0.0,0.0,0.0,0.0,0.0,0.0,0.0,0.0,0.0,0.0,0.0,0.0,0.0,0.0,0.0,0.0,0.0,0.0,0.0,0.0,0.0,0.0,0.0,0.0,0.0,0.0,0.0,0.0,0.0,0.0,0.0,0.0,0.0,0.0,0.0,0.0,0.0,0.0,0.0,0.0,0.0,0.0,0.0,0.0,0.0,0.0,0.0,0.0,0.0,0.0,0.0,0.0,0.0,0.0,0.0,-1.1478,-1.1681,-1.1681,-1.169,-1.169,-1.1787,-1.1599,0.0,0.0,0.0,0.0,0.0,0.0,0.0,0.0,0.0,0.0,0.0,0.0,0.0,0.0,0.0,0.0,0.0,0.0,0.0,0.0,0.0,0.0,0.0,0.0,0.0,0.0,0.0,0.0,0.0,0.0,0.0,0.0,0.0,0.0,0.0,0.0,0.0,0.0,0.0,0.0,0.0,0.0,0.0,0.0,0.0,0.0,0.0,0.0,0.0,0.0,0.0,0.0,0.0,0.0,0.0,0.0,0.0,0.0,0.0,0.0,0.0,0.0,0.0,0.0,0.0,0.0,0.0,0.0,0.0,0.0,0.0,0.0,0.0,0.0,0.0,0.0,0.0,0.0,0.0,0.0,0.0,0.0,0.0,0.0,0.0,0.0,0.0,0.0,0.0,0.0,0.0,0.0,0.0,0.0,0.0,0.0,0.0,0.0,0.0,0.0,0.0,0.0,0.0,0.0,0.0,0.0,0.0,-1.0863,-1.2092,-1.2311,-1.2311,-1.2311,-1.2311,-1.2421,-1.1937,-1.0869,0.0,0.0,0.0,0.0,0.0,0.0,0.0,0.0,0.0,0.0,0.0,0.0,0.0,0.0,0.0,0.0,0.0,0.0,0.0,0.0,0.0,0.0,0.0,0.0,0.0,0.0,0.0,0.0,0.0,0.0,0.0,0.0,0.0,0.0,0.0,0.0,0.0,0.0,-1.8526,-1.8796,0.0,0.0,0.0,0.0,0.0,0.0,0.0,0.0,-2.1004,0.0,0.0,0.0,0.0,0.0,0.0,0.0,0.0,0.0,0.0,0.0,0.0,0.0,0.0,0.0,0.0,0.0,0.0,0.0,0.0,0.0,0.0,0.0,0.0,0.0,0.0,0.0,0.0,0.0,0.0,0.0,0.0,0.0,0.0,0.0,0.0,0.0,0.0,0.0,0.0,0.0,0.0,0.0,0.0,0.0,0.0,0.0,0.0,0.0,0.0,0.0,0.0,0.0,0.0,0.0,0.0,-1.1355,-1.1819,-1.2161,-1.2161,-1.2161,-1.2161,-1.2161,-1.2388,-1.2248,-1.1611,0.0,0.0,0.0,0.0,0.0,0.0,0.0,0.0,0.0,0.0,0.0,0.0,0.0,0.0,0.0,0.0,0.0,0.0,0.0,0.0,0.0,0.0,0.0,0.0,0.0,0.0,0.0,0.0,0.0,0.0,0.0,0.0,0.0,0.0,0.0,0.0,0.0,0.0,0.0,-1.9654,-1.9717,0.0,0.0,0.0,0.0,0.0,0.0,0.0,0.0,-2.0875,0.0,0.0,0.0,0.0,0.0,0.0,0.0,0.0,0.0,0.0,0.0,0.0,0.0,0.0,0.0,0.0,0.0,0.0,0.0,0.0,0.0,0.0,0.0,0.0,0.0,0.0,0.0,0.0,0.0,0.0,0.0,0.0,0.0,0.0,0.0,0.0,0.0,0.0,0.0,0.0,0.0,0.0,0.0,0.0,0.0,0.0,0.0,0.0,0.0,0.0,0.0,0.0,0.0,0.0,0.0,-1.0978,-1.1331,-1.1799,-1.2029,-1.2029,-1.2144,-1.2373,-1.2488,-1.2373,0.0,0.0,0.0,0.0,0.0,0.0,0.0,0.0,0.0,0.0,0.0,0.0,0.0,0.0,0.0,0.0,0.0,0.0,0.0,0.0,0.0,0.0,0.0,0.0,0.0,0.0,0.0,0.0,0.0,0.0,0.0,0.0,0.0,0.0,0.0,0.0,0.0,0.0,0.0,0.0,-1.9763,-1.994,-2.0114,0.0,0.0,0.0,0.0,0.0,0.0,-2.0889,-2.1257,0.0,0.0,0.0,0.0,0.0,0.0,0.0,0.0,0.0,0.0,0.0,0.0,0.0,0.0,0.0,0.0,0.0,0.0,0.0,0.0,0.0,0.0,0.0,0.0,0.0,0.0,0.0,0.0,0.0,0.0,0.0,0.0,0.0,0.0,0.0,0.0,0.0,0.0,0.0,0.0,0.0,0.0,0.0,0.0,0.0,0.0,0.0,0.0,0.0,0.0,0.0,0.0,0.0,0.0,0.0,-1.0273,-1.0864,-1.1446,-1.2026,-1.2026,-1.2151,-1.2383,-1.249,-1.2374,0.0,0.0,0.0,0.0,0.0,0.0,0.0,0.0,0.0,0.0,0.0,0.0,0.0,0.0,0.0,0.0,0.0,0.0,0.0,0.0,0.0,0.0,0.0,0.0,0.0,0.0,0.0,0.0,0.0,0.0,0.0,0.0,0.0,0.0,0.0,0.0,0.0,0.0,0.0,0.0,0.0,-2.0011,-2.0543,-2.0607,0.0,0.0,0.0,0.0,-2.118,-2.1439,0.0,0.0,0.0,0.0,0.0,0.0,0.0,0.0,0.0,0.0,0.0,0.0,0.0,0.0,0.0,0.0,0.0,0.0,0.0,0.0,0.0,0.0,0.0,0.0,0.0,0.0,0.0,0.0,0.0,0.0,0.0,0.0,0.0,0.0,0.0,0.0,0.0,0.0,0.0,0.0,0.0,0.0,0.0,0.0,0.0,0.0,0.0,0.0,0.0,0.0,0.0,0.0,0.0,0.0,0.0,0.0,-1.1463,-1.1711,-1.1711,-1.1831,-1.1831,-1.1831,-1.1831,-1.2183,-1.2063,0.0,0.0,0.0,0.0,0.0,0.0,0.0,0.0,0.0,0.0,0.0,0.0,0.0,0.0,0.0,0.0,0.0,0.0,0.0,0.0,0.0,0.0,0.0,0.0,0.0,0.0,0.0,0.0,0.0,0.0,0.0,0.0,0.0,0.0,0.0,0.0,0.0,0.0,0.0,0.0,0.0,-2.0101,-2.117,-2.1322,-2.1344,0.0,0.0,-2.1846,-2.1894,-2.1894,0.0,0.0,0.0,0.0,0.0,0.0,0.0,0.0,0.0,0.0,0.0,0.0,0.0,0.0,0.0,0.0,0.0,0.0,0.0,0.0,0.0,0.0,0.0,0.0,0.0,0.0,0.0,0.0,0.0,0.0,0.0,0.0,0.0,0.0,0.0,0.0,0.0,0.0,0.0,0.0,0.0,0.0,0.0,0.0,0.0,0.0,0.0,0.0,0.0,0.0,0.0,0.0,0.0,0.0,0.0,-0.9506,-1.1647,-1.1405,-1.1405,-1.1776,-1.1776,-1.1897,-1.201,-1.2122,-1.2122,0.0,0.0,0.0,0.0,0.0,0.0,0.0,0.0,0.0,0.0,0.0,0.0,0.0,0.0,0.0,0.0,0.0,0.0,0.0,0.0,0.0,0.0,0.0,0.0,0.0,0.0,0.0,0.0,0.0,0.0,0.0,0.0,0.0,0.0,0.0,0.0,0.0,0.0,0.0,0.0,0.0,0.0,-2.1613,-2.1735,0.0,0.0,0.0,-2.1913,-2.1572,0.0,0.0,0.0,0.0,0.0,0.0,0.0,0.0,0.0,0.0,0.0,0.0,0.0,0.0,0.0,0.0,0.0,0.0,0.0,0.0,0.0,0.0,0.0,0.0,0.0,0.0,0.0,0.0,0.0,0.0,0.0,0.0,0.0,0.0,0.0,0.0,0.0,0.0,0.0,0.0,0.0,0.0,0.0,0.0,0.0,0.0,0.0,0.0,0.0,0.0,0.0,0.0,0.0,0.0,0.0,0.0,0.0,-1.1776,-1.1035,-1.0914,-1.1776,-1.1776,-1.1897,-1.2122,-1.2122,0.0,0.0,0.0,0.0,0.0,0.0,0.0,0.0,0.0,0.0,0.0,0.0,0.0,0.0,0.0,0.0,0.0,0.0,0.0,0.0,0.0,0.0,0.0,0.0,0.0,0.0,0.0,-1.2597,0.0,0.0,0.0,0.0,0.0,0.0,0.0,0.0,0.0,0.0,0.0,0.0,0.0,0.0,-2.0237,-2.1635,-2.1759,-2.1573,0.0,0.0,-2.2088,-2.1689,-2.2165,-2.2704,0.0,0.0,0.0,0.0,0.0,0.0,0.0,0.0,0.0,0.0,0.0,0.0,0.0,0.0,0.0,0.0,0.0,0.0,0.0,0.0,0.0,0.0,0.0,0.0,0.0,0.0,0.0,0.0,0.0,0.0,0.0,0.0,0.0,0.0,0.0,0.0,0.0,0.0,0.0,0.0,0.0,0.0,0.0,0.0,0.0,0.0,0.0,0.0,0.0,0.0,0.0,0.0,0.0,0.0,0.0,-1.1655,-1.0543,-1.0543,-1.1776,-1.1776,-1.1776,-1.1776,-1.1897,-1.1776,0.0,0.0,0.0,0.0,0.0,0.0,0.0,0.0,0.0,0.0,0.0,0.0,0.0,0.0,0.0,0.0,0.0,0.0,0.0,0.0,0.0,0.0,0.0,0.0,0.0,0.0,0.0,0.0,0.0,0.0,0.0,0.0,0.0,0.0,0.0,0.0,0.0,0.0,0.0,0.0,0.0,-1.821,-2.0744,-2.1122,-2.1227,0.0,0.0,-2.2958,-2.2862,-2.2862,-2.299,-2.3022,0.0,0.0,0.0,0.0,0.0,0.0,0.0,0.0,0.0,0.0,0.0,0.0,0.0,0.0,0.0,0.0,0.0,0.0,0.0,0.0,0.0,0.0,0.0,0.0,0.0,0.0,0.0,0.0,0.0,0.0,0.0,0.0,0.0,0.0,0.0,0.0,0.0,0.0,0.0,0.0,0.0,0.0,0.0,0.0,0.0,0.0,0.0,0.0,0.0,0.0,0.0,0.0,0.0,-0.8221,-1.0543,-1.0914,-1.1285,-1.1776,-1.1776,-1.1776,-1.1776,-1.1776,-1.1897,0.0,0.0,0.0,0.0,0.0,0.0,0.0,0.0,0.0,0.0,0.0,0.0,0.0,0.0,0.0,0.0,0.0,0.0,0.0,0.0,0.0,0.0,0.0,0.0,0.0,0.0,0.0,0.0,-1.3192,-1.3315,-1.3438,0.0,0.0,0.0,0.0,0.0,0.0,0.0,0.0,0.0,0.0,-1.881,-2.0416,-2.0672,0.0,0.0,-2.1159,-2.1972,-2.1417,-2.2328,-2.3022,-2.3022,-2.3022,0.0,0.0,0.0,0.0,0.0,0.0,0.0,0.0,0.0,0.0,0.0,0.0,0.0,0.0,0.0,0.0,0.0,0.0,0.0,0.0,0.0,0.0,0.0,0.0,0.0,0.0,0.0,0.0,0.0,0.0,0.0,0.0,0.0,0.0,0.0,0.0,0.0,0.0,0.0,0.0,0.0,0.0,0.0,0.0,0.0,0.0,0.0,0.0,0.0,0.0,0.0,0.0,-0.7964,-1.0559,-1.0689,-1.1187,-1.1939,-1.1931,-1.1939,-1.1939,-1.1939,-1.2053,0.0,0.0,0.0,0.0,0.0,0.0,0.0,0.0,0.0,0.0,0.0,0.0,0.0,0.0,0.0,0.0,0.0,0.0,0.0,0.0,0.0,0.0,0.0,0.0,0.0,0.0,0.0,0.0,-1.3391,-1.3532,-1.3674,0.0,0.0,0.0,0.0,0.0,0.0,0.0,0.0,0.0,0.0,-1.8648,-1.9693,-2.0155,-2.004,-1.9461,-2.0831,-2.1744,-2.0831,-2.1987,-2.2893,-2.2667,0.0,0.0,0.0,0.0,0.0,0.0,0.0,0.0,0.0,0.0,0.0,0.0,0.0,0.0,0.0,0.0,0.0,0.0,0.0,0.0,0.0,0.0,0.0,0.0,0.0,0.0,0.0,0.0,0.0,0.0,0.0,0.0,0.0,0.0,0.0,0.0,0.0,0.0,0.0,0.0,0.0,0.0,0.0,0.0,0.0,0.0,0.0,0.0,0.0,0.0,0.0,0.0,0.0,0.0,-1.2036,-0.9722,-0.9602,-1.2162,-1.2296,-1.2288,-1.2288,-1.2296,-1.2288,-1.2288,0.0,0.0,0.0,0.0,0.0,0.0,0.0,0.0,0.0,0.0,0.0,0.0,0.0,0.0,0.0,0.0,0.0,0.0,0.0,0.0,0.0,0.0,0.0,0.0,0.0,0.0,-1.3665,-1.3674,-1.3684,0.0,0.0,0.0,0.0,0.0,0.0,0.0,0.0,0.0,0.0,-1.675,-1.7126,-1.8752,-1.9693,-2.027,-2.027,-2.1759,-2.2667,-2.1744,-2.2312,-2.2667,0.0,0.0,0.0,0.0,0.0,0.0,0.0,0.0,0.0,0.0,0.0,0.0,0.0,0.0,0.0,0.0,0.0,0.0,0.0,0.0,0.0,0.0,0.0,0.0,0.0,0.0,0.0,0.0,-0.4125,0.0,0.0,0.0,0.0,0.0,0.0,0.0,0.0,0.0,0.0,0.0,-0.5496,-0.6006,0.0,0.0,0.0,0.0,0.0,0.0,0.0,0.0,0.0,0.0,0.0,0.0,-0.7699,-0.9488,-1.051,-1.1404,-1.2304,-1.2304,-1.2304,-1.2304,-1.2304,-1.2304,-1.2304,0.0,0.0,0.0,0.0,0.0,0.0,0.0,0.0,0.0,0.0,0.0,0.0,0.0,0.0,0.0,0.0,0.0,0.0,0.0,0.0,0.0,0.0,0.0,0.0,0.0,-1.3693,0.0,0.0,0.0,0.0,0.0,0.0,0.0,0.0,0.0,0.0,0.0,-1.5591,-1.6526,-1.7009,-1.7596,-1.8752,-1.9113,-1.9577,0.0,0.0,0.0,0.0,0.0,0.0,0.0,0.0,0.0,0.0,0.0,0.0,0.0,0.0,-2.6136,-2.5569,-2.6026,-2.6591,-2.6591,0.0,0.0,0.0,0.0,0.0,0.0,0.0,0.0,0.0,0.0,0.0,0.0,0.0,0.0,0.0,0.0,-0.4646,0.0,0.0,0.0,0.0,0.0,0.0,0.0,0.0,-0.605,-0.6198,-0.6356,-0.6748,-0.6766,0.0,-0.6177,-0.5664,0.0,0.0,0.0,0.0,0.0,0.0,0.0,0.0,-0.7816,-0.9761,-1.0541,-1.1449,-1.2491,-1.2491,-1.2491,-1.2491,-1.2491,-1.2491,-1.2491,-1.2747,-1.2747,0.0,0.0,0.0,0.0,0.0,0.0,0.0,0.0,0.0,0.0,0.0,0.0,0.0,0.0,0.0,0.0,0.0,0.0,0.0,0.0,0.0,0.0,0.0,-1.3693,0.0,0.0,0.0,0.0,0.0,0.0,0.0,0.0,0.0,-1.4282,-1.5116,-1.572,-1.6183,-1.6891,-1.783,-1.8765,0.0,0.0,0.0,0.0,0.0,0.0,0.0,-2.2893,-2.2554,-2.278,-2.3022,-2.3022,-2.368,-2.4223,-2.4462,0.0,0.0,-2.5459,-2.6026,-2.6591,-2.6591,-2.6371,-2.6369,-2.6735,-2.6695,-2.6779,0.0,0.0,0.0,0.0,0.0,0.0,0.0,0.0,-0.4313,-0.4717,0.0,-0.5396,0.0,0.0,0.0,0.0,0.0,0.0,0.0,0.0,-0.6335,-0.6377,-0.646,-0.6596,-0.651,-0.6464,-0.6005,-0.6039,-0.6702,-0.6456,0.0,0.0,0.0,0.0,0.0,0.0,-0.7116,-1.232,-1.0187,-1.018,-1.2716,-1.2856,-1.2856,-1.2856,-1.2848,-1.2848,-1.284,-1.284,-1.2972,-1.3367,-1.293,0.0,0.0,0.0,0.0,0.0,0.0,0.0,0.0,0.0,0.0,0.0,0.0,0.0,0.0,0.0,0.0,0.0,0.0,0.0,0.0,-1.3693,0.0,0.0,0.0,0.0,0.0,0.0,0.0,0.0,0.0,0.0,-1.3712,-1.4769,-1.5601,-1.5612,0.0,0.0,0.0,0.0,-2.063,-2.1546,-2.2472,-2.2699,-2.1888,-2.2472,-2.2714,-2.1888,0.0,0.0,-2.3054,-2.3054,-2.3408,-2.3842,-2.4641,-2.5255,-2.6427,-2.6628,-2.6591,-2.6591,-2.6573,-2.6573,-2.6591,-2.6809,-2.7135,-0.4463,0.0,0.0,0.0,0.0,-0.4414,-0.4433,-0.4433,-0.4431,-0.4597,-0.4917,-0.4917,0.0,0.0,0.0,0.0,0.0,0.0,-0.6727,-0.7383,-0.7383,-0.7669,-0.825,-0.825,-0.8128,-0.8163,-0.805,-0.807,-0.8198,-0.825,-0.726,-0.5505,0.0,0.0,0.0,0.0,-0.8412,-0.9918,-1.1288,-1.2391,-1.3222,-1.3222,-1.3214,-1.3222,-1.3214,-1.3157,-1.3027,-1.3019,-1.2962,-1.298,-1.3054,0.0,0.0,0.0,0.0,0.0,0.0,0.0,0.0,0.0,0.0,0.0,0.0,0.0,0.0,0.0,0.0,0.0,0.0,0.0,-1.3693,-1.3693,-1.3693,0.0,0.0,0.0,0.0,0.0,0.0,0.0,0.0,0.0,-1.391,-1.45,-1.5287,0.0,0.0,-1.773,-2.0145,-2.0614,-2.1365,-2.3123,-2.3636,0.0,0.0,-2.3636,-2.3753,-2.3387,-2.3636,-2.3753,-2.3753,-2.4433,-2.5124,-2.5354,-2.6154,-2.7078,-2.7286,-2.6958,-2.6628,-2.6591,-2.6591,-2.6591,-2.6591,-2.7012,-2.7528,-0.4591,-0.4485,-0.4499,-0.4504,-0.4507,-0.454,-0.4553,-0.4553,-0.4553,-0.4718,-0.5042,-0.5069,-0.5101,-0.5143,-0.5314,0.0,0.0,0.0,-0.7349,-0.8253,-0.8253,-0.8531,-0.8948,-0.8948,-0.8948,-0.8954,-0.8718,-0.8739,-0.9024,-0.8364,-0.7672,-0.6532,0.0,0.0,-0.5315,-0.6565,-0.8094,-0.9757,-1.1007,-1.2116,-1.3368,-1.3368,-1.3368,-1.3368,-1.3368,-1.3319,-1.3206,-1.3197,-1.3292,-1.3185,-1.3244,-1.3477,0.0,0.0,0.0,0.0,0.0,0.0,0.0,0.0,0.0,0.0,0.0,-1.3319,0.0,0.0,0.0,0.0,-1.374,-1.3693,-1.3693,-1.3769,0.0,0.0,0.0,0.0,0.0,0.0,0.0,-1.3939,-1.4052,-1.4128,-1.4128,-1.4382,-1.4943,-1.6054,-1.6563,-1.754,-1.9905,0.0,-2.155,-2.3299,-2.3803,-2.4172,-2.4172,-2.4172,-2.4172,-2.4172,-2.4172,-2.4172,-2.4172,-2.4743,-2.5327,-2.5908,-2.6486,-2.7176,-2.7651,-2.7361,-2.705,-2.705,-2.705,-2.705,-2.692,-2.7326,-2.7847,-0.4711,-0.4758,-0.47,-0.4679,-0.4679,-0.4679,-0.4679,-0.4679,-0.4679,-0.5116,-0.5849,-0.5917,-0.5948,-0.6103,-0.5422,0.0,0.0,-0.7443,-0.7778,-0.8997,-0.9003,-0.9008,-0.9008,-0.9014,-0.9008,-0.9014,-0.8414,-0.8459,-0.904,-0.7837,-0.7588,-0.816,-0.7265,-0.6749,-0.6725,-0.5614,-0.7004,-1.1179,-1.007,-1.0763,-1.3409,-1.3546,-1.3546,-1.3554,-1.3546,-1.3546,-1.353,-1.353,-1.3659,-1.3916,-1.3477,-1.352,-1.4191,0.0,0.0,0.0,0.0,0.0,0.0,0.0,0.0,0.0,0.0,0.0,0.0,0.0,0.0,0.0,-1.3854,0.0,-1.374,-1.392,0.0,0.0,0.0,-1.4317,-1.4317,-1.4317,-1.4317,-1.4317,0.0,0.0,-1.4336,0.0,-1.4606,-1.5232,-1.6323,-1.7549,-1.8668,-2.0267,-2.1598,-2.2602,-2.3557,-2.415,-2.4213,-2.4198,-2.4198,-2.4198,-2.4134,-2.4166,-2.43,-2.4284,-2.4724,-2.5795,-2.5994,-2.6493,-2.7646,-2.7893,-2.7856,-2.7875,-2.7783,-2.771,-2.7541,-2.7728,-2.818,-0.4812,-0.4823,-0.4809,-0.4804,-0.4804,-0.4801,-0.4804,-0.4801,-0.4804,-0.525,-0.5995,-0.6012,-0.6773,-0.7827,-0.7699,-0.8239,-0.915,-0.9096,-0.9208,-0.9367,-0.9454,-0.9503,-0.9503,-0.9503,-0.9497,-0.9503,-0.9382,-0.9393,-0.9541,-0.9271,-0.8835,-0.8383,-0.8188,-0.8075,-0.8203,-0.905,-1.0333,-1.2328,-1.3193,-1.3907,-1.463,-1.463,-1.463,-1.463,-1.463,-1.4561,-1.4414,-1.4545,-1.4345,-1.3925,-1.4283,-1.452,-1.4385,-1.4349,0.0,0.0,0.0,0.0,0.0,0.0,0.0,0.0,0.0,-1.3931,-1.4307,0.0,-1.4288,0.0,-1.4194,-1.4166,-1.4166,-1.4203,0.0,0.0,-1.4279,-1.4317,-1.4317,-1.4317,-1.4317,-1.4317,-1.4459,-1.4553,-1.4563,-1.5199,-1.5683,-1.5812,-1.6276,-1.7417,-1.9776,-2.0916,-2.1982,-2.3182,-2.4085,-2.4849,-2.4833,-2.4865,-2.4833,-2.4849,-2.4849,-2.4865,-2.4849,-2.5335,-2.594,-2.6662,-2.714,-2.7736,-2.8546,-2.87,-2.8682,-2.8645,-2.8205,-2.7746,-2.7746,-2.81,-2.8685,-0.5767,-0.5492,-0.5797,-0.5969,-0.5992,-0.517,-0.4848,-0.4845,-0.5147,-0.5597,-0.605,-0.6539,-0.7337,-0.8602,-0.8342,-0.8765,-0.9731,-0.9492,-0.9461,-0.9644,-0.9661,-0.9666,-0.9666,-0.9666,-0.9666,-0.9666,-0.9666,-0.9666,-0.9666,-0.9666,-0.9516,-0.9065,-0.9065,-0.9292,-0.9888,-1.0029,-1.0614,-1.1636,-1.4123,-1.5298,-1.5298,-1.5298,-1.5154,-1.5018,-1.5075,-1.498,-1.4725,-1.4788,-1.4692,-1.4178,-1.4501,-1.4587,-1.4578,-1.4508,-1.4737,0.0,0.0,0.0,0.0,0.0,0.0,0.0,0.0,0.0,0.0,0.0,-1.4553,-1.4459,-1.4364,-1.4317,-1.4317,-1.4392,-1.4459,-1.4449,-1.4534,-1.4591,-1.4591,-1.4591,-1.4581,-1.4591,-1.4695,-1.489,-1.5158,-1.5644,-1.6234,-1.6742,-1.703,-1.7587,-1.9218,-2.081,-2.2157,-2.2827,-2.3728,-2.461,-2.498,-2.5103,-2.5103,-2.5103,-2.5103,-2.5103,-2.5103,-2.5349,-2.5945,-2.6813,-2.7297,-2.79,-2.8737,-2.8975,-2.8975,-2.892,-2.8627,-2.8333,-2.8297,-2.8615,-2.8997,-0.706,-0.6509,-0.7131,-0.7484,-0.7389,-0.5858,-0.519,-0.5185,-0.5949,-0.6409,-0.6564,-0.7403,-0.8265,-0.8983,-0.8278,-0.8735,-0.9891,-0.9266,-0.9206,-0.9856,-0.9758,-0.9715,-0.9715,-0.9715,-0.9715,-0.9715,-0.9715,-0.9715,-0.9715,-0.9715,-0.9715,-0.9715,-0.9715,-1.0306,-1.1195,-1.0295,-1.0272,-1.1133,-1.4268,-1.591,-1.591,-1.591,-1.5615,-1.5319,-1.5457,-1.5369,-1.5061,-1.5041,-1.5088,-1.4651,-1.4472,-1.4509,-1.4789,-1.476,-1.4808,0.0,-1.5475,0.0,0.0,0.0,0.0,0.0,0.0,0.0,0.0,-1.4931,-1.4855,-1.4685,-1.4496,-1.4392,-1.4392,-1.4563,-1.4676,-1.4676,-1.4827,-1.4931,-1.4931,-1.4931,-1.4931,-1.4931,-1.4931,-1.5323,-1.5834,-1.6124,-1.6795,-1.7843,-1.8512,-1.8794,-1.8524,-2.0501,-2.209,-2.223,-2.3106,-2.4363,-2.4857,-2.5103,-2.5103,-2.5103,-2.5103,-2.5103,-2.5103,-2.5103,-2.5472,-2.6692,-2.7056,-2.7418,-2.8737,-2.8975,-2.8975,-2.8975,-2.8938,-2.892,-2.892,-2.892,-2.9231,-0.7697,-0.7553,-0.7713,-0.7886,-0.7738,-0.7381,-0.7171,-0.7118,-0.7497,-0.7848,-0.865,-0.9472,-0.9977,-0.9998,-1.0019,-0.9966,-1.0172,-1.0008,-0.9944,-0.9987,-0.9965,-0.9954,-0.9954,-0.9954,-0.9954,-0.9954,-0.9954,-0.9954,-0.9954,-0.9954,-0.9954,-0.9954,-0.9954,-1.0257,-1.0863,0.0,0.0,0.0,-1.6204,-1.6655,-1.6655,-1.6655,-1.6508,-1.6508,-1.6471,0.0,-1.6443,-1.6248,-1.5993,-1.5705,-1.5809,0.0,0.0,0.0,0.0,0.0,0.0,0.0,0.0,0.0,0.0,0.0,-1.546,-1.53,-1.4969,-1.4931,-1.4912,-1.4874,-1.4837,-1.4818,-1.4818,-1.4846,-1.4874,-1.4884,-1.4912,-1.4931,-1.4931,-1.4941,-1.4931,-1.4931,-1.5453,-1.5844,-1.6135,-1.7163,-1.7937,-1.8473,-2.0472,-2.1267,-1.9712,-2.1018,-2.2383,-2.323,-2.4161,-2.4888,-2.5103,-2.5135,-2.5167,-2.5103,-2.5103,-2.5119,-2.5151,-2.5135,-2.561,-2.6847,-2.7056,-2.7435,-2.8773,-2.8975,-2.903,-2.8993,-2.8993,-2.8975,-2.8975,-2.8993,-2.9231,-0.8926,0.0,-0.8922,-0.9088,0.0,-0.914,-0.9131,-0.9083,-0.8599,-0.8926,-0.9733,-1.0222,-1.0384,-1.0389,-1.0443,-1.0438,-1.0373,-1.0318,-1.0259,-1.0193,-1.0079,-1.0019,-1.0019,-1.0019,-1.0019,-1.0019,-1.0019,-1.0019,-1.0019,-1.0019,-1.0019,-1.0019,-1.0641,-1.1101,-1.125,-1.356,-1.548,-1.7114,-1.7114,-1.7114,-1.7114,-1.7114,-1.6955,-1.6805,0.0,0.0,0.0,0.0,0.0,0.0,0.0,0.0,0.0,0.0,0.0,-1.6178,-1.5943,-1.5887,-1.6008,-1.5829,-1.5706,-1.5706,-1.5621,-1.547,-1.5262,-1.5243,-1.5243,-1.5243,-1.5243,-1.5243,-1.5243,-1.5243,-1.5243,-1.5243,-1.5243,-1.5243,-1.5243,-1.5243,-1.5243,-1.5243,-1.5643,-1.6042,-1.6695,-1.7453,-1.8327,-1.9014,-2.0435,-2.133,-2.0908,-2.2244,-2.3574,-2.4082,-2.4983,-2.5628,-2.5628,-2.5628,-2.5612,-2.5628,-2.5612,-2.5612,-2.5628,-2.5862,-2.6487,-2.7373,-2.7868,-2.8482,-2.9337,-2.958,-2.958,-2.958,-2.958,-2.958,-2.9562,-2.9269,-2.9213,-0.9957,-0.9465,-1.0124,-1.0449,-1.0454,-1.0552,-1.0585,-1.0579,0.0,0.0,0.0,-1.0449,-1.0449,-1.0454,-1.0547,-1.0585,-1.0579,-1.0449,-1.0384,-1.0373,-1.0134,-1.0019,-1.0019,-1.0019,-1.0019,-1.0019,-1.0019,-1.0019,-1.0019,-1.0019,-1.0019,-1.0175,-1.1107,-1.1727,-1.234,-1.4653,-1.6339,-1.7273,-1.7426,-1.7426,-1.7426,-1.7426,-1.7273,-1.6959,-1.7095,-1.7011,-1.672,-1.6814,-1.6711,-1.6398,-1.6223,-1.6112,-1.6112,-1.5919,-1.5942,-1.6235,-1.6207,-1.6188,-1.6178,-1.6018,-1.5914,-1.5914,-1.5763,-1.564,-1.5574,-1.5564,-1.5564,-1.5564,-1.5564,-1.5564,-1.5564,-1.5564,-1.5564,-1.5564,-1.5564,-1.5555,-1.5555,-1.5564,-1.5545,-1.5564,-1.5808,-1.637,-1.7566,-1.8014,-1.8598,-1.9685,-2.0282,-2.0818,-2.1978,-2.3463,-2.4516,-2.4887,-2.5657,-2.6104,-2.612,-2.6104,-2.6136,-2.6088,-2.6104,-2.6136,-2.6264,-2.6775,-2.741,-2.7991,-2.8815,-2.9422,-3.0062,-3.0149,-3.0204,-3.0204,-3.0204,-3.0204,-3.0149,-2.9672,-2.949,-1.0517,-1.0522,-1.0688,-1.0688,-1.0688,-1.0704,-1.071,-1.071,-1.0522,-1.0522,-1.0688,-1.0688,-1.0688,-1.0688,-1.0704,-1.071,-1.0699,-1.0487,-1.0384,0.0,-1.0134,-1.0019,-1.0019,-1.0019,-1.0019,-1.0019,-1.0019,-1.0019,-1.0019,-1.0019,-1.0019,-1.0019,-1.0175,-1.1411,-1.3414,-1.588,-1.7273,-1.7426,-1.7426,-1.7426,-1.7426,-1.7426,-1.7426,-1.7273,-1.7398,-1.7379,-1.7227,-1.7171,-1.7057,-1.6908,-1.6721,-1.6618,-1.6608,-1.6412,-1.6434,-1.6424,-1.6273,-1.6188,-1.6188,-1.615,-1.6141,-1.6141,-1.6112,-1.5942,-1.5602,-1.5564,-1.5564,-1.5564,-1.5583,-1.5564,-1.5564,-1.5583,-1.5593,-1.5574,-1.5574,-1.5564,-1.5583,-1.5583,-1.5593,-1.5729,-1.6641,-1.7328,-1.7776,-1.9004,-1.9811,-2.0391,-2.1306,-2.2563,-2.4209,-2.4671,-2.5009,-2.5751,-2.6136,-2.6136,-2.6215,-2.6152,-2.6199,-2.6136,-2.6199,-2.6231,-2.6231,-2.6872,-2.751,-2.8094,-2.8902,-2.9511,-3.0135,-3.0204,-3.0277,-3.0296,-3.0296,-3.0277,-3.0296,-3.013,-3.0144,-1.0737,-1.0737,-1.0737,-1.0737,-1.0737,-1.0737,-1.0737,-1.0737,-1.0737,-1.0737,-1.0737,-1.0737,-1.0737,-1.0737,-1.0737,-1.0737,-1.0726,-1.0492,-1.0384,-1.0367,-1.0134,-1.0019,-1.0019,-1.0019,-1.0019,-1.0019,-1.0019,-1.0019,-1.0019,-1.0019,-1.033,-1.1107,-1.2333,-1.3876,-1.5727,-1.6806,-1.7426,-1.7426,-1.7426,-1.7426,-1.7426,-1.7426,-1.7426,-1.7426,-1.7426,-1.7426,-1.7426,-1.7331,-1.7275,-1.7284,-1.7086,-1.6972,-1.6963,-1.6774,-1.666,-1.6651,-1.6462,-1.6349,-1.6349,-1.6245,-1.6188,-1.6188,-1.6188,-1.6112,-1.5914,-1.5904,-1.5904,-1.5895,-1.5895,-1.5895,-1.5895,-1.5895,-1.5895,-1.5895,-1.5895,-1.5895,-1.5895,-1.5895,-1.6034,-1.6451,-1.7144,-1.7834,-1.865,-1.9439,-2.0335,-2.1171,-2.2382,-2.3802,-2.5292,-2.5323,-2.551,-2.6462,-2.6708,-2.6724,-2.6708,-2.6724,-2.6724,-2.6724,-2.6724,-2.6724,-2.6855,-2.7621,-2.8398,-2.8802,-2.9683,-3.0465,-3.0827,-3.0846,-3.0846,-3.0846,-3.0846,-3.0846,-3.0846,-3.0846,-3.0951,-1.0737,-1.0737,-1.0737,-1.0737,-1.0737,-1.0737,-1.0737,-1.0737,-1.0737,-1.0737,-1.0737,-1.0737,-1.0737,-1.0737,-1.0737,-1.0737,-1.071,-1.052,-1.0411,-1.0367,-1.0161,-1.0047,-1.0025,-1.0019,-1.0019,-1.0019,-1.0019,-1.0019,-1.0019,-1.033,-1.1107,-1.234,-1.4491,-1.6033,-1.6968,-1.7273,-1.7426,-1.7426,-1.7426,-1.7426,-1.7426,-1.7426,-1.7426,-1.7426,-1.7426,-1.7426,-1.7426,-1.7426,-1.7426,-1.7416,-1.7265,-1.718,-1.7171,-1.6982,-1.6868,-1.6849,-1.667,-1.6556,-1.6547,-1.6415,-1.632,-1.632,-1.632,-1.632,-1.632,-1.632,-1.6273,-1.6207,-1.6169,-1.6169,-1.616,-1.6169,-1.6188,-1.6188,-1.6188,-1.616,-1.6178,-1.632,-1.6603,-1.7168,-1.759,-1.8272,-1.9251,-1.9669,-2.0364,-2.1609,-2.2996,-2.421,-2.5022,-2.5562,-2.6383,-2.6934,-2.72,-2.7169,-2.72,-2.7169,-2.7169,-2.72,-2.7169,-2.7137,-2.7403,-2.8362,-2.9168,-2.9378,-3.0437,-3.1176,-3.1359,-3.1341,-3.1322,-3.1286,-3.1286,-3.1322,-3.1304,-3.1561,-3.1577,-1.0737,-1.0737,-1.0737,-1.0737,-1.0737,-1.0737,-1.0737,-1.0737,-1.0737,-1.0737,-1.0737,-1.0737,-1.0737,-1.0737,-1.0737,-1.0737,-1.0726,-1.0601,-1.0481,-1.0378,-1.0248,-1.0128,-1.0025,-1.0019,-1.0019,-1.0019,-1.0019,-1.0019,-1.0175,-1.1262,-1.234,-1.3568,-1.4952,-1.5718,-1.588,-1.6806,-1.7426,-1.7426,-1.7426,-1.7426,-1.7426,-1.7426,-1.7426,-1.7426,-1.7426,-1.7426,-1.7426,-1.7426,-1.7426,-1.7426,-1.7407,-1.7398,-1.7369,-1.719,-1.7076,-1.7076,-1.6887,-1.6774,-1.6764,-1.6755,-1.6727,-1.6745,-1.6727,-1.6717,-1.6727,-1.6736,-1.6575,-1.6301,-1.6197,-1.6216,-1.6188,-1.6207,-1.6226,-1.6245,-1.6226,-1.6188,-1.6339,-1.6744,-1.7308,-1.7308,-1.8422,-1.939,-1.9541,-2.0225,-2.0792,-2.1484,-2.3119,-2.4345,-2.4602,-2.5831,-2.6934,-2.7067,-2.72,-2.72,-2.72,-2.72,-2.72,-2.72,-2.72,-2.72,-2.7467,-2.8378,-2.9299,-2.9578,-3.0473,-3.1377,-3.1377,-3.1377,-3.1377,-3.1377,-3.1377,-3.1377,-3.1506,-3.1763,-3.2053,-1.0737,-1.0737,-1.0737,-1.0737,-1.0737,-1.0737,-1.0737,-1.0737,-1.0737,-1.0737,-1.0737,-1.0737,-1.0737,-1.0737,-1.0737,-1.0737,-1.0726,-1.0612,-1.0492,-1.0384,-1.0259,-1.0139,-1.003,-1.0019,-1.0019,-1.0019,-1.0019,-1.033,-1.1411,-1.3112,-1.4337,-1.4952,-1.6033,-1.6644,-1.6653,-1.7111,-1.7426,-1.7426,-1.7426,-1.7426,-1.7426,-1.7426,-1.7426,-1.7426,-1.7426,-1.7426,-1.7426,-1.7426,-1.7426,-1.7426,-1.7426,-1.7426,-1.7426,-1.7341,-1.7294,-1.7284,-1.7095,-1.6925,-1.6812,-1.6802,-1.6802,-1.6802,-1.6802,-1.6802,-1.6802,-1.6802,-1.6863,-1.7165,-1.6836,-1.6547,-1.6547,-1.6547,-1.6547,-1.6547,-1.6981,-1.7211,-1.7083,-1.7785,-1.8312,-1.8595,-1.9122,-1.968,-2.0225,-2.1158,-2.2382,-2.3365,-2.4887,-2.5562,-2.5831,-2.6651,-2.7067,-2.72,-2.72,-2.72,-2.72,-2.72,-2.72,-2.72,-2.72,-2.72,-2.7865,-2.8659,-2.943,-2.9839,-3.0732,-3.1377,-3.1377,-3.1377,-3.1377,-3.1377,-3.1377,-3.1377,-3.1377,-3.1635,-3.1891,-1.0737,-1.0737,-1.0737,-1.0737,-1.0737,-1.0737,-1.0737,-1.0737,-1.0737,-1.0737,-1.0737,-1.0737,-1.0737,-1.0737,-1.0737,-1.0737,-1.0726,-1.0645,-1.0525,-1.0389,-1.0297,-1.0172,-1.003,-1.0019,-1.0019,-1.0019,-1.033,-1.1411,-1.2958,-1.4645,-1.5744,-1.6247,-1.7042,-1.7539,-1.7596,-1.7596,-1.7596,-1.7605,-1.7596,-1.7596,-1.7605,-1.7596,-1.7549,-1.7445,-1.7426,-1.7426,-1.7426,-1.7426,-1.7426,-1.7426,-1.7426,-1.7426,-1.7426,-1.7426,-1.7426,-1.7416,-1.7284,-1.7133,-1.6982,-1.7121,-1.7269,-1.7269,-1.7417,-1.7566,-1.7566,-1.7566,-1.7852,-1.8285,-1.8,-1.7684,-1.739,-1.738,-1.739,-1.7526,-1.7956,-1.8176,-1.8176,-1.8774,-1.9471,-1.9651,-1.9933,-2.0251,-2.069,-2.1571,-2.2506,-2.3652,-2.4887,-2.6115,-2.6249,-2.6383,-2.68,-2.7067,-2.72,-2.72,-2.72,-2.72,-2.72,-2.72,-2.72,-2.7467,-2.813,-2.8922,-2.9561,-2.997,-3.0861,-3.1377,-3.1377,-3.1377,-3.1377,-3.1377,-3.1377,-3.1377,-3.1377,-3.1506,-3.1891,-1.0737,-1.0737,-1.0737,-1.0737,-1.0737,-1.0737,-1.0737,-1.0737,-1.0737,-1.0737,-1.0737,-1.0737,-1.0737,-1.0737,-1.0737,-1.0737,-1.0737,-1.0726,-1.0596,-1.04,-1.0373,-1.0248,-1.003,-1.0019,-1.0019,-1.0191,-1.1125,-1.2979,-1.513,-1.5582,-1.6274,-1.7545,-1.7709,-1.7813,-1.7955,-1.7974,-1.8012,-1.7974,-1.7974,-1.8002,-1.8002,-1.8002,-1.7813,-1.7501,-1.7435,-1.7454,-1.7445,-1.7435,-1.7435,-1.7435,-1.7454,-1.7445,-1.7435,-1.7445,-1.7454,-1.7445,-1.7426,-1.7407,-1.754,-1.8108,-1.8552,-1.8572,-1.8994,-1.9639,-1.9436,-1.9436,-1.9436,-1.9639,-1.9596,-1.9447,-1.9116,-1.8927,-1.8905,-1.8895,-1.9009,-1.9155,-1.9122,-2.0027,-2.0354,-2.0462,-2.0838,-2.1114,-2.0798,-2.0665,-2.1282,-2.1698,-2.2199,-2.3324,-2.4581,-2.5216,-2.631,-2.6981,-2.7248,-2.7216,-2.72,-2.72,-2.72,-2.72,-2.72,-2.7467,-2.813,-2.879,-2.9578,-3.023,-3.0861,-3.1377,-3.1377,-3.1377,-3.1377,-3.1377,-3.1377,-3.1377,-3.1506,-3.2019,-3.2294,-1.0737,-1.0737,-1.0737,-1.0737,-1.0737,-1.0737,-1.0737,-1.0737,-1.0737,-1.0737,-1.0737,-1.0737,-1.0737,-1.0737,-1.0737,-1.0737,-1.0737,-1.0737,-1.0612,-1.0405,-1.0384,-1.0253,-1.0036,-1.0019,-1.0068,-1.0285,-1.1547,-1.3468,-1.5912,-1.6711,-1.7382,-1.776,-1.7927,-1.7974,-1.804,-1.805,-1.805,-1.805,-1.805,-1.805,-1.8059,-1.805,-1.7965,-1.7842,-1.7823,-1.7823,-1.7823,-1.7823,-1.7823,-1.7823,-1.7823,-1.7823,-1.7823,-1.829,-1.8592,-1.8582,-1.8926,-1.9152,-1.9131,-1.9312,-1.938,-1.938,-1.9542,-1.9854,-1.9833,-1.9833,-1.9995,-2.0436,-2.0586,-2.0624,-2.0843,-2.0329,-1.9585,-1.9585,-2.0021,-2.024,-2.0331,-2.1047,-2.1573,-2.1372,-2.1543,-2.1788,-2.2337,-2.2729,-2.3093,-2.3306,-2.4247,-2.4915,-2.5484,-2.6465,-2.7196,-2.7462,-2.7534,-2.7455,-2.72,-2.72,-2.72,-2.72,-2.7334,-2.7865,-2.8527,-2.9053,-2.9709,-3.0602,-3.1249,-3.1377,-3.1377,-3.1377,-3.1377,-3.1377,-3.1377,-3.1506,-3.1635,-3.2038,-3.2294,-1.0737,-1.0737,-1.0737,-1.0737,-1.0737,-1.0737,-1.0737,-1.0737,-1.0737,-1.0737,-1.0737,-1.0737,-1.0737,-1.0737,-1.0737,-1.0737,-1.0737,-1.0732,-1.0628,-1.0454,-1.0438,-1.0335,-1.0166,-1.0139,-1.0493,-1.1201,-1.2628,-1.4742,-1.659,-1.7566,-1.8087,-1.8144,-1.8144,-1.8182,-1.8239,-1.8258,-1.8248,-1.8248,-1.8248,-1.8258,-1.8258,-1.8248,-1.8258,-1.8248,-1.8248,-1.8182,-1.8059,-1.805,-1.805,-1.805,-1.805,-1.8207,-1.8513,-1.929,-1.9761,-1.974,-2.0082,-2.0296,-2.0439,-2.0462,-2.0375,-2.0527,-2.068,-2.0832,-2.0832,-2.0832,-2.1125,-2.1569,-2.1639,-2.1916,-2.2055,-2.1395,-2.0597,-2.0597,-2.1037,-2.1429,-2.1277,-2.1924,-2.2235,-2.2066,-2.187,-2.2092,-2.2651,-2.3194,-2.351,-2.4167,-2.4989,-2.5552,-2.6409,-2.7107,-2.7739,-2.781,-2.7884,-2.7804,-2.7629,-2.755,-2.7312,-2.7264,-2.76,-2.8263,-2.8922,-2.9316,-2.9952,-3.0991,-3.1377,-3.1377,-3.1377,-3.1377,-3.1377,-3.1377,-3.1377,-3.1506,-3.1635,-3.191,-3.2294,-1.0737,-1.0737,-1.0737,-1.0737,-1.0737,-1.0737,-1.0737,-1.0737,-1.0737,-1.0737,-1.0737,-1.0737,-1.0737,-1.0737,-1.0737,-1.0737,-1.0737,-1.0737,-1.0666,-1.0547,-1.0541,-1.0639,-1.0517,-1.0506,-1.1314,-1.2622,-1.5018,-1.6625,-1.778,-1.7967,-1.8201,-1.8333,-1.8361,-1.8437,-1.8654,-1.8617,-1.8636,-1.8626,-1.8607,-1.8636,-1.8673,-1.8626,-1.8617,-1.8626,-1.8626,-1.8456,-1.8097,-1.8087,-1.8106,-1.8097,-1.8087,-1.8533,-1.9351,-2.0137,-2.0576,-2.0597,-2.0711,-2.07,-2.0845,-2.1446,-2.1711,-2.1866,-2.2531,-2.2805,-2.2627,-2.2805,-2.2805,-2.2757,-2.2625,-2.2657,-2.2621,-2.2313,-2.2169,-2.2259,-2.2109,-2.2097,-2.2283,-2.2476,-2.2561,-2.2319,-2.2162,-2.1812,-2.1607,-2.1958,-2.2538,-2.3314,-2.3848,-2.4703,-2.6431,-2.7009,-2.7308,-2.7956,-2.8217,-2.817,-2.8074,-2.7947,-2.7598,-2.7461,-2.7914,-2.8527,-2.9185,-2.9839,-3.0343,-3.112,-3.1377,-3.1377,-3.1377,-3.1377,-3.1377,-3.1377,-3.1377,-3.1506,-3.1763,-3.2038,-3.2294,-1.0737,-1.0737,-1.0737,-1.0737,-1.0737,-1.0737,-1.0737,-1.0737,-1.0737,-1.0737,-1.0737,-1.0737,-1.0737,-1.0737,-1.0737,-1.0737,-1.0737,-1.0732,-1.0672,-1.0738,-1.0558,-1.1149,-1.169,-1.1832,-1.2996,-1.5038,-1.6129,-1.717,-1.8304,-1.8475,-1.8522,-1.856,-1.8569,-1.8607,-1.8673,-1.8673,-1.8673,-1.8673,-1.8673,-1.8673,-1.8673,-1.8673,-1.8673,-1.8673,-1.8673,-1.8607,-1.8494,-1.8484,-1.8798,-1.9262,-1.9443,-1.9755,-2.0708,-2.1519,-2.2009,-2.1986,-2.2303,-2.2537,-2.2513,-2.2529,-2.2758,-2.2746,-2.2901,-2.3043,-2.3043,-2.3056,-2.3068,-2.3056,-2.2959,-2.2923,-2.2899,-2.2862,-2.2645,-2.2295,-2.2271,-2.2271,-2.2283,-2.2476,-2.2693,-2.279,-2.273,-2.2561,-2.2343,-2.2247,-2.2559,-2.3585,-2.4289,-2.545,-2.6776,-2.7733,-2.8412,-2.8662,-2.8614,-2.8535,-2.8392,-2.8526,-2.8406,-2.8337,-2.8677,-2.8973,-2.9595,-3.023,-3.0732,-3.112,-3.1249,-3.1377,-3.1377,-3.1377,-3.1377,-3.1377,-3.1377,-3.1635,-3.2019,-3.2275,-3.2422,-1.0737,-1.0737,-1.0737,-1.0737,-1.0737,-1.0737,-1.0737,-1.0737,-1.0737,-1.0737,-1.0737,-1.0737,-1.0737,-1.0737,-1.0737,-1.1065,-1.1397,-1.1397,-1.1683,-1.194,-1.1441,-1.2043,-1.3267,-1.3753,-1.4769,-1.6349,-1.713,-1.7846,-1.8673,-1.8673,-1.8673,-1.8673,-1.8673,-1.8673,-1.8673,-1.8673,-1.8673,-1.8673,-1.8673,-1.8673,-1.8673,-1.8673,-1.8673,-1.8673,-1.8673,-1.8837,-1.9163,-1.8837,-1.9163,-1.9967,-2.0617,-2.1265,-2.175,-2.2545,-2.305,-2.3175,-2.3389,-2.344,-2.3575,-2.3454,-2.3345,-2.3333,-2.3345,-2.3345,-2.3345,-2.3345,-2.3333,-2.3333,-2.3249,-2.32,-2.3188,-2.3092,-2.2887,-2.2597,-2.2476,-2.2367,-2.2319,-2.2404,-2.2536,-2.2657,-2.2693,-2.2657,-2.2561,-2.25,-2.2879,-2.3896,-2.4596,-2.5918,-2.71,-2.8099,-2.8392,-2.8869,-2.898,-2.8853,-2.8694,-2.8954,-2.9192,-2.9427,-2.9647,-2.9722,-3.0153,-3.062,-3.112,-3.1249,-3.1377,-3.1377,-3.1377,-3.1377,-3.1377,-3.1377,-3.1377,-3.1635,-3.1891,-3.2294,-3.2549,-1.0737,-1.0737,-1.0737,-1.0737,-1.0737,-1.0737,-1.0737,-1.0737,-1.0737,-1.0737,-1.0737,-1.0737,-1.0737,-1.0737,-1.0904,-1.1564,-1.2554,-1.2886,-1.3542,-1.4024,-1.3693,-1.3672,-1.481,-1.5959,-1.6639,-1.7164,-1.801,-1.8673,-1.8673,-1.8673,-1.8673,-1.8673,-1.8673,-1.8673,-1.8673,-1.8673,-1.8673,-1.8673,-1.8673,-1.8673,-1.8673,-1.8673,-1.8673,-1.8673,-1.8673,-1.9,-1.9479,-1.9326,-1.9316,-2.013,-2.1588,-2.2406,-2.2728,-2.3359,-2.368,-2.3692,-2.384,-2.3816,-2.3828,-2.3768,-2.3768,-2.3756,-2.3756,-2.384,-2.3768,-2.3731,-2.3731,-2.3731,-2.3587,-2.3478,-2.343,-2.3297,-2.3128,-2.3043,-2.2778,-2.2536,-2.2331,-2.2307,-2.2331,-2.2319,-2.2283,-2.2271,-2.2307,-2.2295,-2.2868,-2.3722,-2.4153,-2.5185,-2.6648,-2.7535,-2.813,-2.8516,-2.89,-2.9408,-2.9232,-2.9872,-3.011,-3.0635,-3.0698,-3.0901,-3.0704,-3.097,-3.1249,-3.1377,-3.1377,-3.1377,-3.1377,-3.1377,-3.1377,-3.1377,-3.1506,-3.1653,-3.191,-3.2294,-3.2549,-1.0737,-1.0737,-1.0737,-1.0737,-1.0737,-1.0737,-1.0737,-1.0737,-1.0737,-1.0737,-1.0737,-1.0737,-1.0904,-1.0904,-1.173,-1.2388,-1.3045,-1.3707,-1.4871,-1.6032,-1.5867,-1.5859,-1.6361,-1.7519,-1.8183,-1.8183,-1.851,-1.8673,-1.8673,-1.8673,-1.8673,-1.8673,-1.8673,-1.8673,-1.8673,-1.8673,-1.8673,-1.8673,-1.8673,-1.8673,-1.8673,-1.8673,-1.8673,-1.8673,-1.8673,-1.8837,-1.9163,-2.013,-2.0607,-2.0931,-2.1911,-2.2878,-2.3371,-2.368,-2.384,-2.384,-2.384,-2.384,-2.384,-2.384,-2.384,-2.384,-2.384,-2.384,-2.384,-2.384,-2.384,-2.3828,-2.3768,-2.3731,-2.3719,-2.3659,-2.3538,-2.3321,-2.2971,-2.2669,-2.2549,-2.238,-2.2271,-2.2271,-2.2271,-2.2271,-2.2271,-2.2408,-2.2707,-2.3574,-2.4005,-2.4449,-2.6064,-2.71,-2.7535,-2.813,-2.8532,-2.9393,-3.0075,-3.061,-3.1162,-3.1703,-3.1951,-3.207,-3.1811,-3.1486,-3.1488,-3.1377,-3.1377,-3.1377,-3.1377,-3.1377,-3.1377,-3.1377,-3.1377,-3.1506,-3.2038,-3.2422,-3.2804,-1.0737,-1.0737,-1.0737,-1.0737,-1.0737,-1.0737,-1.0737,-1.0737,-1.0737,-1.1065,-1.1397,-1.1564,-1.189,-1.2388,-1.3211,-1.3873,-1.4375,-1.5201,-1.6188,-1.7355,-1.7519,-1.7519,-1.7682,-1.851,-1.8673,-1.8673,-1.8673,-1.8673,-1.8673,-1.8673,-1.8673,-1.8673,-1.8673,-1.8673,-1.8673,-1.8673,-1.8673,-1.8673,-1.8673,-1.8673,-1.8673,-1.8673,-1.8673,-1.8837,-1.9,-1.9316,-1.9967,-2.1092,-2.19,-2.2384,-2.2878,-2.3359,-2.368,-2.384,-2.384,-2.384,-2.384,-2.384,-2.384,-2.384,-2.384,-2.384,-2.384,-2.384,-2.384,-2.384,-2.384,-2.384,-2.384,-2.384,-2.384,-2.384,-2.3768,-2.3599,-2.3237,-2.2947,-2.2838,-2.2585,-2.2452,-2.2404,-2.2331,-2.2271,-2.2271,-2.2271,-2.2707,-2.2992,-2.3129,-2.4153,-2.5465,-2.6357,-2.7245,-2.797,-2.8835,-2.9695,-3.0409,-3.096,-3.1649,-3.2347,-3.2683,-3.2991,-3.2423,-3.1836,-3.1616,-3.1488,-3.1433,-3.1377,-3.1377,-3.1377,-3.1377,-3.1377,-3.1377,-3.1635,-3.2166,-3.2422,-3.2804,-1.0737,-1.0737,-1.0737,-1.0737,-1.0737,-1.0737,-1.0737,-1.0737,-1.0904,-1.1564,-1.2388,-1.288,-1.3376,-1.4698,-1.4698,-1.553,-1.6534,-1.6689,-1.7519,-1.8183,-1.851,-1.851,-1.851,-1.851,-1.8673,-1.8673,-1.8673,-1.8673,-1.8673,-1.8673,-1.8673,-1.8673,-1.8673,-1.8673,-1.8673,-1.8673,-1.8673,-1.8673,-1.8673,-1.8673,-1.8837,-1.8837,-1.9,-1.9163,-1.9805,-2.0607,-2.1265,-2.2234,-2.2889,-2.368,-2.3692,-2.368,-2.368,-2.384,-2.384,-2.384,-2.384,-2.384,-2.384,-2.384,-2.384,-2.384,-2.384,-2.384,-2.384,-2.384,-2.384,-2.384,-2.384,-2.384,-2.384,-2.384,-2.3828,-2.3768,-2.3587,-2.3381,-2.3152,-2.2862,-2.2681,-2.2645,-2.2428,-2.2331,-2.2271,-2.2408,-2.2558,-2.3277,-2.3426,-2.4596,-2.5611,-2.6357,-2.739,-2.8274,-2.9266,-3.025,-3.0835,-3.1277,-3.2105,-3.2717,-3.3074,-3.3193,-3.2643,-3.2148,-3.1836,-3.1653,-3.1524,-3.1433,-3.1377,-3.1377,-3.1377,-3.1506,-3.1506,-3.1763,-3.2294,-3.2549,-3.2804,-1.0737,-1.0737,-1.0737,-1.0737,-1.0737,-1.0737,-1.0737,-1.0904,-1.189,-1.2388,-1.2886,-1.3873,-1.4533,-1.4863,-1.5859,-1.6525,-1.6862,-1.7682,-1.851,-1.8673,-1.8673,-1.8673,-1.8673,-1.8673,-1.8673,-1.8673,-1.8673,-1.8673,-1.8673,-1.8673,-1.8673,-1.8673,-1.8673,-1.8673,-1.8673,-1.8673,-1.8673,-1.8673,-1.8673,-1.8837,-1.9,-1.9479,-1.9805,-1.9805,-2.0607,-2.1416,-2.2073,-2.2567,-2.305,-2.3371,-2.3359,-2.3359,-2.368,-2.384,-2.384,-2.384,-2.384,-2.384,-2.384,-2.384,-2.384,-2.384,-2.384,-2.384,-2.384,-2.384,-2.384,-2.384,-2.384,-2.384,-2.384,-2.384,-2.384,-2.3828,-2.378,-2.3719,-2.3611,-2.3249,-2.2911,-2.273,-2.2609,-2.25,-2.2457,-2.3141,-2.3426,-2.3722,-2.4301,-2.5185,-2.5918,-2.6502,-2.752,-2.8707,-2.9838,-3.0835,-3.1401,-3.1982,-3.2544,-3.3103,-3.3393,-3.3523,-3.2973,-3.2459,-3.2166,-3.1854,-3.1579,-3.1506,-3.1433,-3.1377,-3.1377,-3.1506,-3.1635,-3.191,-3.2294,-3.2549,-3.2785,-1.0737,-1.0737,-1.0737,-1.0737,-1.0737,-1.0737,-1.107,-1.173,-1.2388,-1.3376,-1.4541,-1.5365,-1.6024,-1.6681,-1.7355,-1.7682,-1.7691,-1.8346,-1.8673,-1.8673,-1.8673,-1.8673,-1.8673,-1.8673,-1.8673,-1.8673,-1.8673,-1.8673,-1.8673,-1.8673,-1.8673,-1.8673,-1.8673,-1.8673,-1.8673,-1.8673,-1.8673,-1.8837,-1.9163,-1.9316,-1.9479,-2.013,-2.0931,-2.1103,-2.175,-2.2234,-2.3038,-2.3211,-2.3371,-2.352,-2.3359,-2.3371,-2.3692,-2.384,-2.384,-2.384,-2.384,-2.384,-2.384,-2.384,-2.384,-2.384,-2.384,-2.384,-2.384,-2.384,-2.384,-2.384,-2.384,-2.384,-2.384,-2.384,-2.384,-2.384,-2.384,-2.384,-2.378,-2.3478,-2.32,-2.2995,-2.2814,-2.2633,-2.2928,-2.3515,-2.387,-2.4018,-2.5038,-2.5772,-2.6502,-2.7245,-2.8099,-2.9122,-3.0266,-3.126,-3.1965,-3.2684,-3.3242,-3.3539,-3.3641,-3.3707,-3.345,-3.2955,-3.2496,-3.2166,-3.1854,-3.1579,-3.1488,-3.1433,-3.1377,-3.1506,-3.1635,-3.2038,-3.2294,-3.2676,-3.2931,-1.0737,-1.0737,-1.0737,-1.0737,-1.0737,-1.0737,-1.1397,-1.2554,-1.288,-1.4368,-1.6361,-1.6862,-1.7519,-1.8346,-1.851,-1.8673,-1.8673,-1.8673,-1.8673,-1.8673,-1.8673,-1.8673,-1.8673,-1.8673,-1.8673,-1.8673,-1.8673,-1.8673,-1.8673,-1.8673,-1.8673,-1.8673,-1.8673,-1.8673,-1.8673,-1.8837,-1.9,-1.9163,-1.9805,-2.012,-2.0292,-2.1092,-2.1911,-2.2556,-2.2717,-2.305,-2.352,-2.368,-2.384,-2.384,-2.384,-2.384,-2.384,-2.384,-2.384,-2.384,-2.384,-2.384,-2.384,-2.384,-2.384,-2.384,-2.384,-2.384,-2.384,-2.384,-2.384,-2.384,-2.384,-2.384,-2.384,-2.384,-2.384,-2.384,-2.384,-2.384,-2.3804,-2.3635,-2.3502,-2.3345,-2.3031,-2.2766,-2.3166,-2.374,-2.3948,-2.4449,-2.5478,-2.6502,-2.7245,-2.8114,-2.8979,-2.9822,-3.0977,-3.1965,-3.2684,-3.2963,-3.3678,-3.3678,-3.3817,-3.3798,-3.3762,-3.345,-3.2973,-3.2478,-3.2129,-3.1854,-3.1579,-3.1469,-3.1433,-3.1525,-3.1782,-3.2166,-3.2549,-3.2804,-3.3058,-1.0737,-1.0737,-1.0737,-1.0737,-1.0737,-1.0737,-1.1564,-1.2714,-1.4038,-1.5201,-1.6689,-1.7846,-1.8346,-1.8673,-1.8673,-1.8673,-1.8673,-1.8673,-1.8673,-1.8673,-1.8673,-1.8673,-1.8673,-1.8673,-1.8673,-1.8673,-1.8673,-1.8673,-1.8673,-1.8673,-1.8673,-1.8673,-1.8837,-1.8837,-1.9,-1.9316,-1.9805,-1.9967,-2.0607,-2.1092,-2.1254,-2.1911,-2.2717,-2.3359,-2.352,-2.352,-2.368,-2.384,-2.384,-2.384,-2.384,-2.384,-2.384,-2.384,-2.384,-2.384,-2.384,-2.384,-2.384,-2.384,-2.384,-2.384,-2.384,-2.384,-2.384,-2.384,-2.384,-2.384,-2.384,-2.384,-2.384,-2.384,-2.384,-2.384,-2.384,-2.384,-2.3828,-2.378,-2.3671,-2.3514,-2.3188,-2.3052,-2.3314,-2.3856,-2.4568,-2.5359,-2.6502,-2.7665,-2.8547,-2.9266,-2.9981,-3.0835,-3.1542,-3.2526,-3.3521,-3.3521,-3.3817,-3.3817,-3.3817,-3.3817,-3.3798,-3.3798,-3.345,-3.2973,-3.2459,-3.2038,-3.1799,-3.1579,-3.158,-3.1653,-3.2038,-3.2422,-3.2676,-3.2912,-3.3165,-1.0737,-1.0737,-1.0737,-1.1065,-1.173,-1.173,-1.2886,-1.4706,-1.553,-1.6525,-1.7682,-1.8346,-1.8673,-1.8673,-1.8673,-1.8673,-1.8673,-1.8673,-1.8673,-1.8673,-1.8673,-1.8673,-1.8673,-1.8673,-1.8673,-1.8673,-1.8673,-1.8673,-1.8673,-1.8673,-1.8673,-1.8837,-1.9153,-1.9316,-1.9642,-2.0282,-2.0607,-2.0931,-2.1427,-2.1911,-2.2073,-2.2728,-2.3371,-2.368,-2.384,-2.384,-2.384,-2.384,-2.384,-2.384,-2.384,-2.384,-2.384,-2.384,-2.384,-2.384,-2.384,-2.384,-2.384,-2.384,-2.384,-2.384,-2.384,-2.384,-2.384,-2.384,-2.384,-2.384,-2.384,-2.384,-2.384,-2.384,-2.384,-2.384,-2.384,-2.384,-2.384,-2.384,-2.3756,-2.3635,-2.3418,-2.3307,-2.3194,-2.3871,-2.5093,-2.6135,-2.7405,-2.8547,-2.9568,-3.014,-3.0693,-3.1683,-3.2386,-3.2963,-3.3659,-3.3817,-3.3817,-3.3817,-3.3817,-3.3817,-3.3817,-3.3798,-3.3762,-3.3523,-3.2973,-3.2331,-3.1909,-3.1653,-3.1783,-3.1782,-3.2038,-3.2294,-3.2657,-3.3038,-3.3223,-1.0898,-1.0737,-1.0898,-1.173,-1.272,-1.3045,-1.4375,-1.6361,-1.6689,-1.7355,-1.851,-1.8673,-1.8673,-1.8673,-1.8673,-1.8673,-1.8673,-1.8673,-1.8673,-1.8673,-1.8673,-1.8673,-1.9,-1.9,-1.9163,-1.9479,-1.9479,-1.9,-1.8837,-1.9,-1.9,-1.9316,-1.9805,-2.0282,-2.0444,-2.1092,-2.1416,-2.1739,-2.2395,-2.2889,-2.305,-2.3359,-2.384,-2.384,-2.384,-2.384,-2.384,-2.384,-2.384,-2.384,-2.384,-2.384,-2.384,-2.384,-2.384,-2.384,-2.384,-2.384,-2.384,-2.384,-2.384,-2.384,-2.384,-2.384,-2.384,-2.384,-2.384,-2.384,-2.384,-2.384,-2.384,-2.384,-2.384,-2.384,-2.384,-2.384,-2.384,-2.384,-2.384,-2.3731,-2.3611,-2.3418,-2.3307,-2.382,-2.489,-2.5954,-2.7217,-2.8403,-2.9425,-3.0425,-3.126,-3.2386,-3.3242,-3.3521,-3.3817,-3.3817,-3.3817,-3.3817,-3.3817,-3.3817,-3.3817,-3.3817,-3.3762,-3.3707,-3.3266,-3.2643,-3.2203,-3.1744,-3.1783,-3.1782,-3.191,-3.2369,-3.2867,-3.3328,-3.3642,-1.1724,-1.0737,-1.2063,-1.2554,-1.288,-1.4038,-1.5365,-1.6698,-1.6854,-1.7519,-1.8673,-1.8673,-1.8673,-1.8673,-1.8673,-1.8673,-1.8673,-1.8837,-1.8837,-1.8837,-1.9,-1.9326,-1.9805,-1.9805,-2.013,-2.0444,-2.0769,-2.012,-1.9479,-1.9642,-1.9805,-1.9957,-2.0607,-2.1092,-2.1265,-2.2073,-2.2406,-2.2567,-2.3199,-2.352,-2.3532,-2.368,-2.384,-2.384,-2.384,-2.384,-2.384,-2.384,-2.384,-2.384,-2.384,-2.384,-2.384,-2.384,-2.384,-2.384,-2.384,-2.384,-2.384,-2.384,-2.384,-2.384,-2.384,-2.384,-2.384,-2.384,-2.384,-2.384,-2.384,-2.384,-2.384,-2.384,-2.384,-2.384,-2.384,-2.384,-2.384,-2.384,-2.384,-2.384,-2.3719,-2.3611,-2.343,-2.4061,-2.4847,-2.5945,-2.7012,-2.8206,-2.9552,-3.0835,-3.1841,-3.2963,-3.3521,-3.3678,-3.3817,-3.3817,-3.3817,-3.3817,-3.3817,-3.3817,-3.3817,-3.3817,-3.3817,-3.367,-3.3285,-3.2991,-3.2588,-3.2261,-3.1875,-3.1912,-3.2356,-3.2857,-3.334,-3.3656,-3.3973,-1.421,-1.3045,-1.3542,-1.4203,-1.5036,-1.553,-1.6525,-1.7682,-1.7846,-1.8183,-1.8673,-1.8673,-1.8673,-1.8673,-1.8673,-1.8673,-1.8837,-1.9163,-1.9479,-1.9642,-1.9805,-2.0292,-2.0607,-2.0769,-2.1092,-2.1254,-2.1254,-2.0931,-2.0444,-2.0455,-2.0769,-2.0931,-2.1588,-2.2073,-2.2073,-2.2878,-2.3199,-2.3359,-2.368,-2.384,-2.384,-2.384,-2.384,-2.384,-2.384,-2.384,-2.384,-2.384,-2.384,-2.384,-2.384,-2.384,-2.384,-2.384,-2.384,-2.384,-2.384,-2.384,-2.384,-2.384,-2.384,-2.384,-2.384,-2.384,-2.384,-2.384,-2.384,-2.384,-2.384,-2.384,-2.384,-2.384,-2.384,-2.384,-2.384,-2.384,-2.384,-2.384,-2.384,-2.384,-2.3988,-2.4197,-2.4244,-2.4427,-2.5205,-2.6084,-2.7276,-2.8603,-3.0348,-3.2123,-3.2824,-3.3521,-3.3678,-3.3817,-3.3817,-3.3817,-3.3817,-3.3817,-3.3817,-3.3817,-3.3817,-3.3817,-3.3817,-3.3707,-3.3413,-3.3138,-3.2918,-3.2551,-3.2224,-3.2581,-3.288,-3.3367,-3.3723,-3.3931,-3.4309,-1.6689,-1.5687,-1.5358,-1.5859,-1.6698,-1.7018,-1.7691,-1.8673,-1.8673,-1.8673,-1.8837,-1.9,-1.9,-1.9163,-1.9316,-1.9642,-1.9479,-1.9967,-2.0292,-2.0607,-2.0931,-2.1254,-2.1556,-2.1545,-2.1673,-2.1889,-2.2121,-2.1994,-2.205,-2.19,-2.19,-2.1739,-2.2395,-2.2878,-2.3038,-2.3359,-2.368,-2.368,-2.368,-2.384,-2.384,-2.384,-2.384,-2.384,-2.384,-2.384,-2.384,-2.384,-2.384,-2.384,-2.384,-2.384,-2.384,-2.384,-2.384,-2.384,-2.384,-2.384,-2.384,-2.384,-2.384,-2.384,-2.384,-2.384,-2.384,-2.384,-2.384,-2.384,-2.384,-2.384,-2.384,-2.384,-2.384,-2.384,-2.384,-2.4,-2.416,-2.448,-2.4945,-2.5409,-2.5568,-2.5568,-2.5451,-2.519,-2.5617,-2.6486,-2.7703,-2.9148,-3.086,-3.2841,-3.3381,-3.3659,-3.3817,-3.3817,-3.3817,-3.3817,-3.3817,-3.3817,-3.3817,-3.3817,-3.3817,-3.3817,-3.3817,-3.367,-3.3505,-3.3468,-3.334,-3.309,-3.2721,-3.2972,-3.3162,-3.3728,-3.4107,-3.4335,-3.4641,-1.851,-1.8346,-1.7191,-1.6689,-1.6862,-1.8019,-1.851,-1.8673,-1.8673,-1.8837,-1.9,-1.9479,-1.9967,-2.013,-2.0444,-2.0931,-2.1092,-2.1092,-2.1254,-2.1254,-2.1416,-2.19,-2.2189,-2.2419,-2.2658,-2.3265,-2.3046,-2.3229,-2.346,-2.3187,-2.3038,-2.2717,-2.3199,-2.352,-2.368,-2.368,-2.384,-2.384,-2.384,-2.384,-2.384,-2.384,-2.384,-2.384,-2.384,-2.384,-2.384,-2.384,-2.384,-2.384,-2.384,-2.384,-2.384,-2.384,-2.384,-2.384,-2.384,-2.384,-2.384,-2.384,-2.384,-2.384,-2.384,-2.384,-2.384,-2.384,-2.384,-2.384,-2.384,-2.384,-2.384,-2.384,-2.384,-2.416,-2.448,-2.4945,-2.5263,-2.5581,-2.6043,-2.6977,-2.7134,-2.6819,-2.7278,-2.7153,-2.7382,-2.8251,-2.9221,-3.0644,-3.1537,-3.3103,-3.3381,-3.3659,-3.3817,-3.3817,-3.3817,-3.3817,-3.3817,-3.3817,-3.3817,-3.3817,-3.3817,-3.3817,-3.3817,-3.378,-3.3688,-3.3725,-3.3688,-3.3285,-3.3071,-3.3233,-3.3614,-3.4146,-3.4758,-3.5142,-3.5451,-1.9805,-2.0292,-1.9795,-1.8981,-1.801,-1.851,-1.8673,-1.8837,-1.9326,-1.9805,-2.0292,-2.0607,-2.0769,-2.0931,-2.1092,-2.1254,-2.1416,-2.1911,-2.2073,-2.2234,-2.2556,-2.3038,-2.33,-2.3253,-2.3365,-2.3488,-2.3623,-2.3599,-2.344,-2.3744,-2.3668,-2.352,-2.368,-2.368,-2.384,-2.384,-2.384,-2.384,-2.384,-2.384,-2.384,-2.384,-2.384,-2.384,-2.384,-2.384,-2.384,-2.384,-2.384,-2.384,-2.384,-2.384,-2.384,-2.384,-2.384,-2.384,-2.384,-2.384,-2.384,-2.384,-2.384,-2.384,-2.384,-2.384,-2.384,-2.384,-2.384,-2.384,-2.384,-2.384,-2.384,-2.384,-2.4,-2.4639,-2.5263,-2.574,-2.636,-2.6675,-2.7148,-2.8076,-2.7919,-2.7605,-2.853,-2.9293,-2.9625,-3.0181,-3.1154,-3.1987,-3.2756,-3.3242,-3.3521,-3.3659,-3.3817,-3.3817,-3.3817,-3.3817,-3.3817,-3.3817,-3.3817,-3.3817,-3.3817,-3.3817,-3.3817,-3.3817,-3.3817,-3.3798,-3.3707,-3.3523,-3.3613,-3.3872,-3.4334,-3.4795,-3.5258,-3.5763,-3.5957,-2.0769,-2.1254,-2.1254,-2.0607,-1.9479,-1.9479,-1.9489,-1.9642,-2.013,-2.0769,-2.1254,-2.1577,-2.1739,-2.1739,-2.2061,-2.2061,-2.2384,-2.2717,-2.2889,-2.305,-2.3359,-2.384,-2.3816,-2.3572,-2.3428,-2.3514,-2.349,-2.3478,-2.3502,-2.3647,-2.3596,-2.3656,-2.384,-2.384,-2.384,-2.384,-2.384,-2.384,-2.384,-2.384,-2.384,-2.384,-2.384,-2.384,-2.384,-2.384,-2.384,-2.384,-2.384,-2.384,-2.384,-2.384,-2.384,-2.384,-2.384,-2.384,-2.384,-2.384,-2.384,-2.384,-2.384,-2.384,-2.384,-2.384,-2.384,-2.384,-2.384,-2.384,-2.384,-2.384,-2.384,-2.416,-2.4639,-2.5263,-2.6201,-2.6675,-2.7605,-2.8232,-2.8559,-2.9027,-2.9168,-2.9774,-3.0839,-3.1912,-3.2156,-3.2358,-3.2501,-3.3109,-3.348,-3.3684,-3.3678,-3.3817,-3.3817,-3.3817,-3.3817,-3.3817,-3.3817,-3.3817,-3.3817,-3.3817,-3.3817,-3.3817,-3.3817,-3.3817,-3.3817,-3.3817,-3.3762,-3.3651,-3.4102,-3.4708,-3.4983,-3.5335,-3.551,-3.5976,-3.5996,-2.1254,-2.1254,-2.1416,-2.1254,-2.1254,-2.1254,-2.1092,-2.0931,-2.1254,-2.1416,-2.1739,-2.2234,-2.2556,-2.2717,-2.3038,-2.3359,-2.3359,-2.352,-2.368,-2.368,-2.368,-2.384,-2.378,-2.3671,-2.3562,-2.3418,-2.3357,-2.3357,-2.3418,-2.3502,-2.3623,-2.3768,-2.3816,-2.384,-2.384,-2.384,-2.384,-2.384,-2.384,-2.384,-2.384,-2.384,-2.384,-2.384,-2.384,-2.384,-2.384,-2.384,-2.384,-2.384,-2.384,-2.384,-2.384,-2.384,-2.384,-2.384,-2.384,-2.384,-2.384,-2.384,-2.384,-2.384,-2.384,-2.384,-2.384,-2.384,-2.384,-2.384,-2.384,-2.384,-2.416,-2.4627,-2.5104,-2.5898,-2.6675,-2.7605,-2.8388,-2.9789,-3.0114,-3.0577,-3.1654,-3.274,-3.3785,-3.4504,-3.4627,-3.4662,-3.4432,-3.4353,-3.433,-3.4073,-3.3853,-3.3817,-3.3817,-3.3817,-3.3817,-3.3817,-3.3817,-3.3817,-3.3817,-3.3817,-3.3817,-3.3817,-3.3817,-3.3817,-3.3817,-3.3817,-3.3817,-3.3798,-3.4232,-3.4784,-3.547,-3.5724,-3.5879,-3.6035,-3.6035,-2.2395,-2.3027,-2.3027,-2.3038,-2.2878,-2.1739,-2.1254,-2.1416,-2.1911,-2.2395,-2.2866,-2.3359,-2.3359,-2.3532,-2.3532,-2.384,-2.384,-2.384,-2.384,-2.384,-2.384,-2.384,-2.3804,-2.3731,-2.3611,-2.3478,-2.3333,-2.3188,-2.3176,-2.3321,-2.3454,-2.3599,-2.378,-2.384,-2.384,-2.384,-2.384,-2.384,-2.384,-2.384,-2.384,-2.384,-2.384,-2.384,-2.384,-2.384,-2.384,-2.384,-2.384,-2.384,-2.384,-2.384,-2.384,-2.384,-2.384,-2.384,-2.384,-2.384,-2.384,-2.384,-2.384,-2.384,-2.384,-2.384,-2.384,-2.384,-2.384,-2.384,-2.384,-2.384,-2.4,-2.416,-2.4639,-2.574,-2.6675,-2.7919,-2.9168,-3.0886,-3.1824,-3.213,-3.2892,-3.3651,-3.4707,-3.5306,-3.5609,-3.5539,-3.5084,-3.4591,-3.4477,-3.411,-3.3835,-3.3817,-3.3817,-3.3817,-3.3817,-3.3817,-3.3817,-3.3817,-3.3817,-3.3817,-3.3817,-3.3817,-3.3817,-3.3817,-3.3817,-3.3817,-3.3817,-3.3955,-3.4232,-3.4646,-3.5196,-3.5606,-3.5743,-3.5879,-3.6035,-2.3371,-2.384,-2.384,-2.384,-2.368,-2.2545,-2.2223,-2.2223,-2.2717,-2.3371,-2.368,-2.384,-2.384,-2.384,-2.384,-2.384,-2.384,-2.384,-2.384,-2.384,-2.384,-2.384,-2.384,-2.3828,-2.3659,-2.3502,-2.3345,-2.32,-2.308,-2.3225,-2.343,-2.3623,-2.3756,-2.3828,-2.384,-2.384,-2.384,-2.384,-2.384,-2.384,-2.384,-2.384,-2.384,-2.384,-2.384,-2.384,-2.384,-2.384,-2.384,-2.384,-2.384,-2.384,-2.384,-2.384,-2.384,-2.384,-2.384,-2.384,-2.384,-2.384,-2.384,-2.384,-2.384,-2.384,-2.384,-2.384,-2.384,-2.384,-2.384,-2.416,-2.448,-2.448,-2.5568,-2.6662,-2.8232,-2.9479,-3.0408,-3.2113,-3.2892,-3.3196,-3.3651,-3.4556,-3.5157,-3.5605,-3.6015,-3.5907,-3.5632,-3.5155,-3.466,-3.4275,-3.3927,-3.3872,-3.3835,-3.3817,-3.3817,-3.3817,-3.3817,-3.3817,-3.3817,-3.3817,-3.3817,-3.3817,-3.3817,-3.3817,-3.3817,-3.3817,-3.3817,-3.3955,-3.4094,-3.437,-3.4784,-3.5196,-3.547,-3.5743,-3.6035,-2.384,-2.384,-2.384,-2.384,-2.384,-2.368,-2.368,-2.368,-2.3692,-2.3852,-2.384,-2.384,-2.384,-2.384,-2.384,-2.384,-2.384,-2.384,-2.384,-2.384,-2.384,-2.384,-2.384,-2.3828,-2.3719,-2.3478,-2.3285,-2.3188,-2.3056,-2.3104,-2.3357,-2.3683,-2.3792,-2.384,-2.384,-2.384,-2.384,-2.384,-2.384,-2.384,-2.384,-2.384,-2.384,-2.384,-2.384,-2.384,-2.384,-2.384,-2.384,-2.384,-2.384,-2.384,-2.384,-2.384,-2.384,-2.384,-2.384,-2.384,-2.384,-2.384,-2.384,-2.384,-2.384,-2.384,-2.384,-2.384,-2.4,-2.416,-2.432,-2.4945,-2.5422,-2.6517,-2.7605,-2.9012,-3.0562,-3.1501,-3.2113,-3.3028,-3.3651,-3.4105,-3.4556,-3.5306,-3.5754,-3.6201,-3.6201,-3.6091,-3.5852,-3.5559,-3.5045,-3.4513,-3.4202,-3.3963,-3.3908,-3.3835,-3.3817,-3.3817,-3.3817,-3.3817,-3.3817,-3.3817,-3.3817,-3.3817,-3.3817,-3.3817,-3.3817,-3.3817,-3.3817,-3.3817,-3.3817,-3.4232,-3.4646,-3.4921,-3.5196,-3.5743,-3.6035,-2.384,-2.384,-2.384,-2.384,-2.384,-2.384,-2.384,-2.384,-2.384,-2.384,-2.384,-2.384,-2.384,-2.384,-2.384,-2.384,-2.384,-2.384,-2.384,-2.384,-2.384,-2.384,-2.384,-2.384,-2.378,-2.3659,-2.3454,-2.32,-2.3068,-2.3043,-2.32,-2.3514,-2.3768,-2.3816,-2.384,-2.384,-2.384,-2.384,-2.384,-2.384,-2.384,-2.384,-2.384,-2.384,-2.384,-2.384,-2.384,-2.384,-2.384,-2.384,-2.384,-2.384,-2.384,-2.384,-2.384,-2.384,-2.384,-2.384,-2.384,-2.384,-2.384,-2.384,-2.384,-2.384,-2.384,-2.4,-2.432,-2.4786,-2.5263,-2.5885,-2.6833,-2.7919,-2.8842,-3.0083,-3.1485,-3.225,-3.2859,-3.3785,-3.4389,-3.4857,-3.5306,-3.5605,-3.6201,-3.6201,-3.6201,-3.6164,-3.6036,-3.5797,-3.5467,-3.4935,-3.444,-3.4183,-3.4018,-3.3945,-3.3835,-3.3817,-3.3817,-3.3817,-3.3817,-3.3817,-3.3817,-3.3817,-3.3817,-3.3817,-3.3817,-3.3817,-3.3817,-3.3817,-3.3817,-3.4094,-3.437,-3.4784,-3.5059,-3.5606,-3.6035,-2.384,-2.384,-2.384,-2.384,-2.384,-2.384,-2.384,-2.384,-2.384,-2.384,-2.384,-2.384,-2.384,-2.384,-2.384,-2.384,-2.384,-2.384,-2.384,-2.384,-2.384,-2.384,-2.384,-2.384,-2.384,-2.3756,-2.3575,-2.3285,-2.3116,-2.3068,-2.3188,-2.3466,-2.3719,-2.3816,-2.384,-2.384,-2.384,-2.384,-2.384,-2.384,-2.384,-2.384,-2.384,-2.384,-2.384,-2.384,-2.384,-2.384,-2.384,-2.384,-2.384,-2.384,-2.384,-2.384,-2.384,-2.384,-2.384,-2.384,-2.384,-2.384,-2.384,-2.4,-2.432,-2.4639,-2.4639,-2.4798,-2.5422,-2.6201,-2.6517,-2.6977,-2.8076,-2.8997,-2.9928,-3.0854,-3.1775,-3.269,-3.3617,-3.4689,-3.5157,-3.5456,-3.5754,-3.6052,-3.6201,-3.6201,-3.6201,-3.6182,-3.6164,-3.6072,-3.5797,-3.5412,-3.4825,-3.4385,-3.4202,-3.4055,-3.3963,-3.3853,-3.3817,-3.3817,-3.3817,-3.3817,-3.3817,-3.3817,-3.3817,-3.3817,-3.3817,-3.3817,-3.3817,-3.3817,-3.3817,-3.4094,-3.437,-3.4784,-3.5196,-3.5606,-3.5899,-2.384,-2.384,-2.384,-2.384,-2.384,-2.384,-2.384,-2.384,-2.384,-2.384,-2.384,-2.384,-2.384,-2.384,-2.384,-2.384,-2.384,-2.384,-2.384,-2.384,-2.384,-2.384,-2.384,-2.384,-2.384,-2.3756,-2.3611,-2.3393,-2.314,-2.3116,-2.3249,-2.3454,-2.3719,-2.384,-2.384,-2.384,-2.384,-2.384,-2.384,-2.384,-2.384,-2.384,-2.384,-2.384,-2.384,-2.384,-2.384,-2.384,-2.384,-2.384,-2.384,-2.384,-2.384,-2.384,-2.384,-2.384,-2.384,-2.384,-2.384,-2.384,-2.4,-2.432,-2.4958,-2.574,-2.6043,-2.5885,-2.6504,-2.7748,-2.8218,-2.9153,-3.0238,-3.0854,-3.1622,-3.2555,-3.3314,-3.407,-3.4689,-3.5438,-3.5754,-3.5903,-3.5903,-3.6201,-3.6201,-3.6201,-3.6201,-3.6201,-3.6201,-3.6182,-3.6054,-3.576,-3.532,-3.4715,-3.4385,-3.422,-3.4055,-3.3945,-3.3835,-3.3817,-3.3817,-3.3817,-3.3817,-3.3817,-3.3817,-3.3817,-3.3817,-3.3817,-3.3817,-3.3817,-3.3955,-3.4094,-3.4508,-3.4921,-3.5333,-3.5762,-3.5899,-2.384,-2.384,-2.384,-2.384,-2.384,-2.384,-2.384,-2.384,-2.384,-2.384,-2.384,-2.384,-2.384,-2.384,-2.384,-2.384,-2.384,-2.384,-2.384,-2.384,-2.384,-2.384,-2.384,-2.384,-2.384,-2.3828,-2.3707,-2.3466,-2.3164,-2.3188,-2.3261,-2.3225,-2.355,-2.3804,-2.384,-2.384,-2.384,-2.384,-2.384,-2.384,-2.384,-2.384,-2.384,-2.384,-2.384,-2.384,-2.384,-2.384,-2.384,-2.384,-2.384,-2.384,-2.384,-2.384,-2.384,-2.384,-2.384,-2.384,-2.4,-2.416,-2.448,-2.5104,-2.5898,-2.6991,-2.7462,-2.7291,-2.7919,-2.9153,-3.0392,-3.1469,-3.225,-3.2859,-3.3314,-3.4238,-3.4857,-3.5306,-3.5754,-3.6052,-3.6201,-3.6201,-3.6201,-3.6201,-3.6201,-3.6201,-3.6201,-3.6201,-3.6201,-3.6201,-3.6201,-3.6017,-3.5834,-3.5265,-3.4642,-3.4403,-3.4202,-3.4055,-3.3945,-3.3835,-3.3817,-3.3817,-3.3817,-3.3817,-3.3817,-3.3817,-3.3817,-3.3817,-3.3817,-3.3817,-3.3955,-3.4094,-3.4508,-3.4921,-3.5196,-3.5606,-3.5899,-2.384,-2.384,-2.384,-2.384,-2.384,-2.384,-2.384,-2.384,-2.384,-2.384,-2.384,-2.384,-2.384,-2.384,-2.384,-2.384,-2.384,-2.384,-2.384,-2.384,-2.384,-2.384,-2.384,-2.384,-2.384,-2.3828,-2.3683,-2.3454,-2.3152,-2.3128,-2.3152,-2.314,-2.349,-2.3731,-2.3804,-2.384,-2.384,-2.384,-2.384,-2.384,-2.384,-2.384,-2.384,-2.384,-2.384,-2.384,-2.384,-2.384,-2.384,-2.384,-2.384,-2.384,-2.384,-2.384,-2.384,-2.384,-2.384,-2.4,-2.448,-2.4786,-2.5263,-2.6201,-2.7748,-2.9153,-2.9027,-2.9012,-3.0098,-3.1501,-3.1944,-3.2876,-3.3617,-3.4087,-3.4539,-3.5306,-3.5605,-3.5903,-3.6052,-3.6052,-3.6201,-3.6201,-3.6201,-3.6201,-3.6201,-3.6201,-3.6201,-3.6201,-3.6201,-3.6201,-3.6201,-3.6201,-3.6054,-3.5834,-3.5192,-3.4642,-3.4348,-3.4202,-3.4073,-3.3963,-3.3853,-3.3817,-3.3817,-3.3817,-3.3817,-3.3817,-3.3817,-3.3817,-3.3817,-3.3817,-3.3955,-3.4232,-3.4646,-3.4921,-3.5196,-3.5333,-3.5606,-2.384,-2.384,-2.384,-2.384,-2.384,-2.384,-2.384,-2.384,-2.384,-2.384,-2.384,-2.384,-2.384,-2.384,-2.384,-2.384,-2.384,-2.384,-2.384,-2.384,-2.384,-2.384,-2.384,-2.384,-2.384,-2.3792,-2.3671,-2.343,-2.3164,-2.3188,-2.3212,-2.3164,-2.3333,-2.3587,-2.3768,-2.384,-2.384,-2.384,-2.384,-2.384,-2.384,-2.384,-2.384,-2.384,-2.384,-2.384,-2.384,-2.384,-2.384,-2.384,-2.384,-2.384,-2.4,-2.416,-2.432,-2.432,-2.4786,-2.5263,-2.574,-2.5898,-2.6819,-2.8061,-2.9759,-3.0546,-3.0423,-3.1194,-3.2435,-3.2892,-3.35,-3.4105,-3.4707,-3.5157,-3.5605,-3.5903,-3.6052,-3.6219,-3.6201,-3.6201,-3.6201,-3.6201,-3.6201,-3.6201,-3.6201,-3.6201,-3.6201,-3.6201,-3.6201,-3.6201,-3.6201,-3.6201,-3.6127,-3.6054,-3.5742,-3.5192,-3.4715,-3.4385,-3.4257,-3.4073,-3.3963,-3.3872,-3.3817,-3.3817,-3.3817,-3.3817,-3.3817,-3.3817,-3.3817,-3.3817,-3.3955,-3.4232,-3.4508,-3.4784,-3.4921,-3.5059,-3.5333,-2.384,-2.384,-2.384,-2.384,-2.384,-2.384,-2.384,-2.384,-2.384,-2.384,-2.384,-2.384,-2.384,-2.384,-2.384,-2.384,-2.384,-2.384,-2.384,-2.384,-2.384,-2.384,-2.384,-2.384,-2.384,-2.3804,-2.3744,-2.3611,-2.3333,-2.3333,-2.3369,-2.3369,-2.3369,-2.3575,-2.3792,-2.384,-2.384,-2.384,-2.384,-2.384,-2.384,-2.384,-2.384,-2.384,-2.384,-2.384,-2.384,-2.384,-2.384,-2.384,-2.384,-2.384,-2.416,-2.4627,-2.5104,-2.5422,-2.5885,-2.6504,-2.6977,-2.7148,-2.8076,-2.9464,-3.087,-3.1331,-3.1807,-3.3028,-3.3651,-3.35,-3.4105,-3.4707,-3.5306,-3.5754,-3.6052,-3.6052,-3.6201,-3.6201,-3.6201,-3.6201,-3.6201,-3.6201,-3.6201,-3.6201,-3.6201,-3.6201,-3.6201,-3.6201,-3.6201,-3.6201,-3.6201,-3.6201,-3.6201,-3.6146,-3.6091,-3.5889,-3.5449,-3.4752,-3.4495,-3.4275,-3.4073,-3.3963,-3.3872,-3.3817,-3.3817,-3.3817,-3.3817,-3.3817,-3.3817,-3.3817,-3.3817,-3.3955,-3.4232,-3.4508,-3.4646,-3.4784,-3.4921]},{"header":{"parameterUnit":"m.s-1","parameterCategory":1,"la1":31.0,"la2":29.5877,"lo1":-88.7671,"lo2":-86.6584,"dy":0.0162,"dx":0.0185,"nx":115,"ny":88,"refTime":"2023-06-16T18:00:00:Z","depth":0,"parameterNumber":3,"parameterNumberName":"V-component_of_WINDS"},"data":[0.0,0.0,0.0,0.0,0.0,0.0,0.0,0.0,0.0,0.0,0.0,0.0,0.0,0.0,0.0,0.0,0.0,0.0,0.0,0.0,0.0,0.0,0.0,0.0,0.0,0.0,0.0,0.0,0.0,0.0,0.0,0.0,0.0,0.0,0.0,0.0,0.0,0.0,0.0,0.0,0.0,0.0,0.0,0.0,0.0,0.0,0.0,0.0,0.0,0.0,0.0,0.0,0.0,0.0,0.0,0.0,0.0,0.0,0.0,0.0,0.0,0.0,0.0,0.0,0.0,0.0,0.0,0.0,0.0,0.0,0.0,0.0,0.0,0.0,0.0,0.0,0.0,0.0,0.0,0.0,0.0,0.0,0.0,0.0,0.0,0.0,0.0,0.0,0.0,0.0,0.0,0.0,0.0,0.0,0.0,0.0,0.0,0.0,0.0,0.0,0.0,0.0,0.0,0.0,0.0,0.0,0.0,0.0,0.0,0.0,0.0,0.0,0.0,0.0,0.0,0.0,0.0,0.0,0.0,0.0,0.0,0.0,0.0,0.0,0.0,0.0,0.0,0.0,0.0,0.0,0.0,0.0,0.0,0.0,0.0,0.0,0.0,0.0,0.0,0.0,0.0,0.0,0.0,0.0,0.0,0.0,0.0,0.0,0.0,0.0,0.0,0.0,0.0,0.0,0.0,0.0,0.0,0.0,0.0,0.0,0.0,0.0,0.0,0.0,0.0,0.0,0.0,0.0,0.0,0.0,0.0,0.0,0.0,0.0,0.0,0.0,0.0,0.0,0.0,0.0,0.0,0.0,0.0,0.0,0.0,0.0,0.0,0.0,0.0,0.0,0.0,0.0,0.0,0.0,0.0,0.0,0.0,0.0,0.0,0.0,0.0,0.0,0.0,0.0,0.0,0.0,0.0,0.0,0.0,0.0,0.0,0.0,0.0,0.0,0.0,0.0,0.0,0.0,0.0,0.0,0.0,0.0,0.0,0.0,0.0,0.0,0.0,0.0,0.0,0.0,0.0,0.0,0.0,0.0,0.0,0.0,0.0,0.0,0.0,0.0,0.0,0.0,0.0,0.0,0.0,0.0,0.0,0.0,0.0,0.0,0.0,0.0,0.0,0.0,0.0,0.0,0.0,0.0,0.0,0.0,0.0,0.0,0.0,0.0,0.0,0.0,0.0,0.0,0.0,0.0,0.0,0.0,0.0,0.0,0.0,0.0,0.0,0.0,0.0,0.0,0.0,0.0,0.0,0.0,0.0,0.0,0.0,0.0,0.0,0.0,0.0,0.0,0.0,0.0,0.0,0.0,0.0,0.0,0.0,0.0,0.0,0.0,0.0,0.0,0.0,0.0,0.0,0.0,0.0,0.0,0.0,0.0,0.0,0.0,0.0,0.0,0.0,0.0,0.0,0.0,0.0,0.0,0.0,0.0,0.0,0.0,0.0,0.0,0.0,0.0,0.0,0.0,0.0,0.0,0.0,0.0,0.0,0.0,0.0,0.0,0.0,0.0,0.0,0.0,0.0,0.0,0.0,0.0,0.0,0.0,0.0,0.0,0.0,0.0,0.0,0.0,0.0,0.0,0.0,0.0,0.0,0.0,0.0,0.0,0.0,0.0,0.0,0.0,0.0,0.0,0.0,0.0,0.0,0.0,0.0,0.0,0.0,0.0,0.0,0.0,0.0,0.0,0.0,0.0,0.0,0.0,0.0,0.0,0.0,0.0,0.0,0.0,0.0,0.0,0.0,0.0,0.0,0.0,0.0,0.0,0.0,0.0,0.0,0.0,0.0,0.0,0.0,0.0,0.0,0.0,0.0,0.0,0.0,0.0,0.0,0.0,0.0,0.0,0.0,0.0,0.0,0.0,0.0,0.0,0.0,0.0,0.0,0.0,0.0,0.0,0.0,0.0,0.0,0.0,0.0,0.0,0.0,0.0,0.0,0.0,0.0,0.0,0.0,0.0,0.0,0.0,0.0,0.0,0.0,0.0,0.0,0.0,0.0,0.0,0.0,0.0,0.0,0.0,0.0,0.0,0.0,0.0,0.0,0.0,0.0,0.0,0.0,0.0,0.0,0.0,0.0,0.0,0.0,0.0,0.0,0.0,0.0,0.0,0.0,0.0,0.0,0.0,0.0,0.0,0.0,0.0,0.0,0.0,0.0,0.0,0.0,0.0,0.0,0.0,0.0,0.0,0.0,0.0,0.0,0.0,0.0,0.0,0.0,0.0,0.0,0.0,0.0,0.0,0.0,0.0,0.0,0.0,0.0,0.0,0.0,0.0,0.0,0.0,0.0,0.0,0.0,0.0,0.0,0.0,0.0,0.0,0.0,0.0,0.0,0.0,0.0,0.0,0.0,0.0,0.0,0.0,0.0,0.0,0.0,0.0,0.0,0.0,0.0,0.0,0.0,0.0,0.0,0.0,0.0,0.0,0.0,0.0,0.0,0.0,0.0,0.0,0.0,0.0,0.0,0.0,0.0,0.0,0.0,0.0,0.0,0.0,0.0,0.0,0.0,0.0,0.0,0.0,0.0,0.0,0.0,0.0,0.0,0.0,0.0,0.0,0.0,0.0,0.0,0.0,0.0,0.0,0.0,0.0,0.0,0.0,0.0,0.0,0.0,0.0,0.0,0.0,0.0,0.0,0.0,0.0,0.0,0.0,0.0,0.0,0.0,0.0,0.0,0.0,0.0,0.0,0.0,0.0,0.0,0.0,0.0,0.0,0.0,0.0,0.0,0.0,0.0,0.0,0.0,0.0,0.0,0.0,0.0,0.0,0.0,0.0,0.0,0.0,0.0,0.0,0.0,0.0,0.0,0.0,0.0,0.0,0.0,0.0,0.0,0.0,0.0,0.0,0.0,0.0,0.0,0.0,0.0,0.0,0.0,0.0,0.0,0.0,0.0,0.0,0.0,0.0,0.0,0.0,0.0,0.0,0.0,0.0,0.0,0.0,0.0,0.0,0.0,0.0,0.0,0.0,0.0,0.0,0.0,0.0,0.0,0.0,0.0,0.0,0.0,0.0,0.0,0.0,0.0,0.0,0.0,0.0,0.0,0.0,0.0,0.0,0.0,0.0,0.0,0.0,0.0,0.0,0.0,0.0,0.0,0.0,0.0,0.0,0.0,0.0,0.0,0.0,0.0,0.0,0.0,0.0,0.0,0.0,0.0,0.0,0.0,0.0,0.0,0.0,0.0,0.0,0.0,0.0,0.0,0.0,0.0,0.0,0.0,0.0,0.0,0.0,0.0,0.0,0.0,0.0,0.0,0.0,0.0,0.0,0.0,0.0,0.0,0.0,0.0,0.0,0.0,0.0,0.0,0.0,0.0,0.0,0.0,0.0,0.0,0.0,0.0,0.0,0.0,0.0,0.0,0.0,0.0,0.0,0.0,0.0,0.0,0.0,0.0,0.0,0.0,0.0,0.0,0.0,0.0,0.0,0.0,0.0,0.0,0.0,0.0,0.0,0.0,0.0,0.0,0.0,0.0,0.0,0.0,0.0,0.0,0.0,0.0,0.0,0.0,0.0,0.0,0.0,0.0,0.0,0.0,0.0,0.0,0.0,0.0,0.0,0.0,0.0,0.0,0.0,0.0,0.0,0.0,0.0,0.0,0.0,0.0,0.0,0.0,0.0,0.0,0.0,0.0,0.0,0.0,0.0,0.0,0.0,0.0,0.0,0.0,0.0,0.0,0.0,0.0,0.0,0.0,0.0,0.0,0.0,0.0,0.0,0.0,0.0,0.0,0.0,0.0,0.0,0.0,0.0,0.0,0.0,0.0,0.0,0.0,0.0,0.0,0.0,0.0,0.0,0.0,0.0,0.0,0.0,0.0,0.0,0.0,0.0,0.0,0.0,0.0,0.0,0.0,0.0,0.0,0.0,0.0,0.0,0.0,0.0,0.0,0.0,0.0,0.0,0.0,0.0,0.0,0.0,0.0,0.0,0.0,0.0,0.0,0.0,0.0,0.0,0.0,0.0,0.0,0.0,0.0,0.0,0.0,0.0,0.0,0.0,0.0,0.0,0.0,0.0,0.0,0.0,0.0,0.0,0.0,0.0,0.0,0.0,0.0,0.0,0.0,0.0,0.0,0.0,0.0,0.0,0.0,0.0,0.0,0.0,0.0,0.0,0.0,0.0,0.0,0.0,0.0,0.0,0.0,0.0,0.0,0.0,0.0,0.0,0.0,0.0,0.0,0.0,0.0,0.0,0.0,0.0,0.0,0.0,0.0,0.0,0.0,0.0,0.0,0.0,0.0,0.0,0.0,0.0,-3.4216,0.0,0.0,0.0,0.0,0.0,0.0,0.0,0.0,0.0,0.0,0.0,0.0,0.0,0.0,0.0,0.0,0.0,0.0,0.0,0.0,0.0,0.0,0.0,0.0,0.0,0.0,0.0,0.0,0.0,0.0,0.0,0.0,0.0,0.0,0.0,0.0,0.0,0.0,0.0,0.0,0.0,0.0,0.0,0.0,0.0,0.0,0.0,0.0,0.0,0.0,0.0,0.0,0.0,0.0,0.0,0.0,0.0,0.0,0.0,0.0,0.0,0.0,0.0,0.0,0.0,0.0,0.0,0.0,0.0,0.0,0.0,0.0,0.0,0.0,0.0,0.0,0.0,0.0,0.0,0.0,0.0,0.0,0.0,0.0,0.0,0.0,0.0,0.0,0.0,0.0,0.0,0.0,0.0,0.0,0.0,0.0,0.0,0.0,0.0,0.0,0.0,0.0,0.0,0.0,0.0,0.0,0.0,0.0,0.0,0.0,-3.463,-3.4583,-3.4583,-3.4458,-3.4335,0.0,0.0,0.0,0.0,0.0,0.0,0.0,0.0,0.0,0.0,0.0,0.0,0.0,0.0,0.0,0.0,0.0,0.0,0.0,0.0,0.0,0.0,0.0,0.0,0.0,0.0,0.0,0.0,0.0,0.0,0.0,0.0,0.0,0.0,0.0,0.0,0.0,0.0,0.0,0.0,0.0,0.0,0.0,0.0,0.0,0.0,0.0,0.0,0.0,0.0,0.0,0.0,0.0,0.0,0.0,0.0,0.0,0.0,0.0,0.0,0.0,0.0,0.0,0.0,0.0,0.0,0.0,0.0,0.0,0.0,0.0,0.0,0.0,0.0,0.0,0.0,0.0,0.0,0.0,0.0,0.0,0.0,0.0,0.0,0.0,0.0,0.0,0.0,0.0,0.0,0.0,0.0,0.0,0.0,0.0,0.0,0.0,0.0,0.0,0.0,0.0,0.0,0.0,0.0,0.0,0.0,0.0,0.0,0.0,0.0,0.0,0.0,-3.4751,-3.4651,-3.4473,0.0,0.0,0.0,0.0,0.0,0.0,0.0,0.0,0.0,0.0,0.0,0.0,0.0,0.0,0.0,0.0,0.0,0.0,0.0,0.0,0.0,0.0,0.0,0.0,0.0,0.0,0.0,0.0,0.0,0.0,0.0,0.0,0.0,0.0,0.0,0.0,0.0,0.0,0.0,0.0,0.0,0.0,0.0,0.0,0.0,0.0,0.0,0.0,0.0,0.0,0.0,0.0,0.0,0.0,0.0,0.0,0.0,0.0,0.0,0.0,0.0,0.0,0.0,0.0,0.0,0.0,0.0,0.0,0.0,0.0,0.0,0.0,0.0,0.0,0.0,0.0,0.0,0.0,0.0,0.0,0.0,0.0,0.0,0.0,0.0,0.0,0.0,0.0,0.0,0.0,0.0,0.0,0.0,0.0,0.0,0.0,0.0,0.0,0.0,0.0,0.0,0.0,0.0,0.0,0.0,0.0,0.0,0.0,0.0,0.0,-3.471,-3.487,-3.471,0.0,-3.462,0.0,0.0,0.0,0.0,0.0,0.0,0.0,0.0,0.0,0.0,0.0,0.0,0.0,0.0,0.0,0.0,0.0,0.0,0.0,0.0,0.0,0.0,0.0,0.0,0.0,0.0,0.0,0.0,0.0,0.0,0.0,0.0,0.0,0.0,0.0,0.0,0.0,0.0,0.0,0.0,0.0,0.0,0.0,0.0,0.0,0.0,0.0,0.0,0.0,0.0,0.0,0.0,0.0,0.0,0.0,0.0,0.0,0.0,0.0,0.0,0.0,0.0,0.0,0.0,0.0,0.0,0.0,0.0,0.0,0.0,0.0,0.0,0.0,0.0,0.0,0.0,0.0,0.0,0.0,0.0,0.0,0.0,0.0,0.0,0.0,0.0,0.0,0.0,0.0,0.0,0.0,0.0,0.0,0.0,0.0,0.0,0.0,0.0,0.0,0.0,0.0,0.0,0.0,0.0,0.0,0.0,0.0,0.0,0.0,0.0,-3.5051,-3.4908,-3.4771,-3.4727,0.0,0.0,0.0,0.0,0.0,0.0,0.0,0.0,0.0,0.0,0.0,0.0,0.0,0.0,0.0,0.0,0.0,0.0,0.0,0.0,0.0,0.0,0.0,0.0,0.0,0.0,0.0,0.0,0.0,0.0,0.0,0.0,0.0,0.0,0.0,0.0,0.0,0.0,0.0,0.0,0.0,0.0,0.0,0.0,0.0,0.0,0.0,0.0,0.0,0.0,0.0,0.0,0.0,0.0,0.0,0.0,0.0,0.0,0.0,0.0,0.0,0.0,0.0,0.0,0.0,0.0,0.0,0.0,0.0,0.0,0.0,0.0,0.0,0.0,0.0,0.0,0.0,0.0,0.0,0.0,0.0,0.0,0.0,0.0,0.0,0.0,0.0,0.0,0.0,0.0,0.0,0.0,0.0,0.0,0.0,0.0,0.0,0.0,0.0,0.0,0.0,0.0,0.0,0.0,0.0,0.0,0.0,0.0,0.0,0.0,-3.6006,-3.5796,-3.5268,-3.4982,-3.4829,-3.4829,0.0,0.0,0.0,0.0,0.0,0.0,0.0,0.0,0.0,0.0,0.0,0.0,0.0,0.0,0.0,0.0,0.0,0.0,0.0,0.0,0.0,0.0,0.0,0.0,0.0,0.0,0.0,0.0,0.0,0.0,0.0,0.0,0.0,0.0,0.0,0.0,0.0,0.0,0.0,0.0,0.0,0.0,0.0,0.0,0.0,0.0,0.0,0.0,0.0,0.0,0.0,0.0,0.0,0.0,0.0,0.0,0.0,0.0,0.0,0.0,0.0,0.0,0.0,0.0,0.0,0.0,0.0,0.0,0.0,0.0,0.0,0.0,0.0,0.0,0.0,0.0,0.0,0.0,0.0,0.0,0.0,0.0,0.0,0.0,0.0,0.0,0.0,0.0,0.0,0.0,0.0,0.0,0.0,0.0,0.0,0.0,0.0,0.0,0.0,0.0,0.0,0.0,0.0,0.0,0.0,0.0,0.0,0.0,-3.745,-3.7357,-3.6937,-3.6159,-3.5325,-3.4908,0.0,0.0,0.0,0.0,0.0,0.0,0.0,0.0,0.0,0.0,0.0,0.0,0.0,0.0,0.0,0.0,0.0,0.0,0.0,0.0,0.0,0.0,0.0,0.0,0.0,0.0,0.0,0.0,0.0,0.0,0.0,0.0,0.0,0.0,0.0,0.0,0.0,0.0,0.0,0.0,0.0,0.0,0.0,0.0,0.0,0.0,0.0,0.0,0.0,0.0,0.0,0.0,0.0,0.0,0.0,0.0,0.0,0.0,0.0,0.0,0.0,0.0,0.0,0.0,0.0,0.0,0.0,0.0,0.0,0.0,0.0,0.0,0.0,0.0,0.0,0.0,0.0,0.0,0.0,0.0,0.0,0.0,0.0,0.0,0.0,0.0,0.0,0.0,0.0,0.0,0.0,0.0,0.0,0.0,0.0,0.0,0.0,0.0,0.0,0.0,0.0,0.0,0.0,0.0,0.0,0.0,0.0,0.0,0.0,-3.7603,-3.7489,-3.7258,-3.6955,-3.6651,-3.65,0.0,0.0,0.0,0.0,0.0,0.0,0.0,0.0,0.0,0.0,0.0,0.0,0.0,0.0,0.0,0.0,0.0,0.0,0.0,0.0,0.0,0.0,0.0,0.0,0.0,0.0,0.0,0.0,0.0,0.0,0.0,0.0,0.0,0.0,0.0,0.0,0.0,0.0,0.0,0.0,0.0,0.0,0.0,0.0,0.0,0.0,0.0,0.0,0.0,0.0,0.0,0.0,0.0,0.0,0.0,0.0,0.0,0.0,0.0,0.0,0.0,0.0,0.0,0.0,0.0,0.0,0.0,0.0,0.0,0.0,0.0,0.0,0.0,0.0,0.0,0.0,0.0,0.0,0.0,0.0,0.0,0.0,0.0,0.0,0.0,0.0,0.0,0.0,0.0,0.0,0.0,0.0,0.0,0.0,0.0,0.0,0.0,0.0,0.0,0.0,0.0,0.0,0.0,0.0,0.0,0.0,0.0,0.0,0.0,-3.8328,0.0,-3.7849,0.0,-3.7523,-3.7371,0.0,0.0,0.0,0.0,0.0,0.0,0.0,0.0,0.0,0.0,0.0,0.0,0.0,0.0,0.0,0.0,0.0,0.0,0.0,0.0,0.0,0.0,0.0,0.0,0.0,0.0,0.0,0.0,0.0,0.0,0.0,0.0,0.0,0.0,0.0,0.0,0.0,0.0,0.0,0.0,0.0,0.0,0.0,0.0,0.0,0.0,0.0,0.0,0.0,0.0,0.0,0.0,0.0,0.0,0.0,0.0,0.0,0.0,0.0,0.0,0.0,0.0,0.0,0.0,0.0,0.0,0.0,0.0,0.0,0.0,0.0,0.0,0.0,0.0,0.0,0.0,0.0,0.0,0.0,0.0,0.0,0.0,0.0,0.0,0.0,0.0,0.0,0.0,0.0,0.0,0.0,0.0,0.0,0.0,0.0,0.0,0.0,0.0,0.0,0.0,0.0,0.0,0.0,0.0,0.0,0.0,0.0,0.0,-3.9393,-3.9819,-3.9241,-3.8822,-3.8719,-3.7902,-3.7447,0.0,0.0,0.0,0.0,0.0,0.0,0.0,0.0,0.0,0.0,0.0,0.0,0.0,0.0,0.0,0.0,0.0,0.0,0.0,0.0,0.0,0.0,0.0,0.0,0.0,0.0,0.0,0.0,0.0,0.0,0.0,0.0,0.0,0.0,0.0,0.0,0.0,0.0,0.0,0.0,0.0,0.0,0.0,0.0,0.0,0.0,0.0,0.0,0.0,0.0,0.0,0.0,0.0,0.0,0.0,0.0,0.0,0.0,0.0,0.0,0.0,0.0,0.0,0.0,0.0,0.0,0.0,0.0,0.0,0.0,0.0,0.0,0.0,0.0,0.0,0.0,0.0,0.0,0.0,0.0,0.0,0.0,0.0,0.0,0.0,0.0,0.0,0.0,0.0,0.0,0.0,0.0,0.0,0.0,0.0,0.0,0.0,0.0,0.0,0.0,0.0,0.0,0.0,0.0,0.0,0.0,0.0,0.0,0.0,-4.006,-3.9751,-3.9575,-3.9532,-3.9267,-3.9115,0.0,0.0,0.0,0.0,0.0,0.0,0.0,0.0,0.0,0.0,0.0,0.0,0.0,0.0,0.0,0.0,0.0,0.0,0.0,0.0,0.0,0.0,0.0,0.0,0.0,0.0,0.0,0.0,0.0,0.0,0.0,0.0,0.0,0.0,0.0,0.0,0.0,0.0,0.0,0.0,0.0,0.0,0.0,0.0,0.0,0.0,0.0,0.0,0.0,0.0,0.0,0.0,0.0,0.0,0.0,0.0,0.0,0.0,0.0,0.0,0.0,0.0,0.0,0.0,0.0,0.0,0.0,0.0,0.0,0.0,0.0,0.0,0.0,0.0,0.0,0.0,0.0,0.0,0.0,0.0,0.0,0.0,0.0,0.0,0.0,0.0,0.0,0.0,0.0,0.0,0.0,0.0,0.0,0.0,0.0,0.0,0.0,0.0,0.0,0.0,0.0,0.0,0.0,0.0,0.0,0.0,0.0,0.0,0.0,-4.115,-4.1053,-4.095,-4.0821,-4.0836,-4.0858,-4.0836,0.0,0.0,0.0,0.0,0.0,0.0,0.0,0.0,0.0,0.0,0.0,0.0,0.0,0.0,0.0,0.0,0.0,0.0,0.0,0.0,0.0,0.0,0.0,0.0,0.0,0.0,0.0,0.0,0.0,0.0,0.0,0.0,0.0,0.0,0.0,0.0,0.0,0.0,0.0,0.0,0.0,0.0,0.0,0.0,0.0,0.0,0.0,0.0,0.0,0.0,0.0,0.0,0.0,0.0,0.0,0.0,0.0,0.0,0.0,0.0,0.0,0.0,0.0,0.0,0.0,0.0,0.0,0.0,0.0,0.0,0.0,0.0,0.0,0.0,0.0,0.0,0.0,0.0,0.0,0.0,0.0,0.0,0.0,0.0,0.0,0.0,0.0,0.0,0.0,0.0,0.0,0.0,0.0,0.0,0.0,0.0,0.0,0.0,0.0,0.0,0.0,0.0,0.0,0.0,0.0,0.0,0.0,0.0,-4.2928,-4.2967,-4.2832,-4.2397,-4.2375,-4.2412,0.0,0.0,0.0,0.0,0.0,0.0,0.0,0.0,0.0,0.0,0.0,0.0,0.0,0.0,0.0,0.0,0.0,0.0,0.0,0.0,0.0,0.0,0.0,0.0,0.0,0.0,0.0,0.0,0.0,0.0,0.0,0.0,0.0,0.0,0.0,0.0,0.0,0.0,0.0,0.0,0.0,0.0,0.0,0.0,0.0,0.0,0.0,0.0,0.0,0.0,0.0,0.0,0.0,0.0,0.0,0.0,0.0,0.0,0.0,0.0,0.0,0.0,0.0,0.0,0.0,0.0,0.0,0.0,0.0,0.0,0.0,0.0,0.0,0.0,0.0,0.0,0.0,0.0,0.0,0.0,0.0,0.0,0.0,0.0,0.0,0.0,0.0,0.0,0.0,0.0,0.0,0.0,0.0,0.0,0.0,0.0,0.0,0.0,0.0,0.0,0.0,0.0,0.0,0.0,0.0,0.0,0.0,0.0,0.0,-4.4522,-4.461,-4.3958,-4.2519,-4.2481,-4.2458,0.0,0.0,0.0,0.0,0.0,0.0,0.0,0.0,0.0,0.0,0.0,0.0,0.0,0.0,0.0,0.0,0.0,0.0,0.0,0.0,0.0,0.0,0.0,0.0,0.0,0.0,0.0,0.0,0.0,0.0,0.0,0.0,0.0,0.0,0.0,0.0,0.0,0.0,0.0,0.0,0.0,0.0,0.0,0.0,0.0,0.0,0.0,0.0,0.0,0.0,0.0,0.0,0.0,0.0,0.0,0.0,0.0,0.0,0.0,0.0,0.0,0.0,0.0,0.0,0.0,0.0,0.0,0.0,0.0,0.0,0.0,0.0,0.0,0.0,0.0,0.0,0.0,0.0,0.0,0.0,0.0,0.0,0.0,0.0,0.0,0.0,0.0,0.0,0.0,0.0,0.0,0.0,0.0,0.0,0.0,0.0,0.0,0.0,0.0,0.0,0.0,0.0,0.0,0.0,0.0,0.0,0.0,0.0,-4.6287,-4.6161,-4.6266,-4.5742,-4.463,-4.3908,-4.3567,0.0,0.0,0.0,0.0,0.0,0.0,0.0,0.0,0.0,0.0,0.0,0.0,0.0,0.0,0.0,0.0,0.0,0.0,0.0,0.0,0.0,0.0,0.0,0.0,0.0,0.0,0.0,0.0,0.0,0.0,0.0,0.0,0.0,0.0,0.0,0.0,0.0,0.0,0.0,0.0,0.0,0.0,0.0,0.0,0.0,0.0,0.0,0.0,0.0,0.0,0.0,0.0,0.0,0.0,0.0,0.0,0.0,0.0,0.0,0.0,0.0,0.0,0.0,0.0,0.0,0.0,0.0,0.0,0.0,0.0,0.0,0.0,0.0,0.0,0.0,0.0,0.0,0.0,0.0,0.0,0.0,0.0,0.0,0.0,0.0,0.0,0.0,0.0,0.0,0.0,0.0,0.0,0.0,0.0,0.0,0.0,0.0,0.0,0.0,0.0,0.0,0.0,0.0,0.0,0.0,0.0,0.0,0.0,-4.7671,-4.7701,-4.7624,-4.7591,-4.7504,-4.6036,-4.5261,0.0,0.0,0.0,0.0,0.0,0.0,0.0,0.0,0.0,0.0,0.0,0.0,0.0,0.0,0.0,0.0,0.0,0.0,0.0,0.0,0.0,0.0,0.0,0.0,0.0,0.0,0.0,0.0,0.0,0.0,0.0,0.0,0.0,0.0,0.0,0.0,0.0,0.0,0.0,0.0,0.0,0.0,0.0,0.0,0.0,0.0,0.0,0.0,0.0,0.0,0.0,0.0,0.0,0.0,0.0,0.0,0.0,0.0,0.0,0.0,0.0,0.0,0.0,0.0,0.0,0.0,0.0,0.0,0.0,0.0,0.0,0.0,0.0,0.0,0.0,0.0,0.0,0.0,0.0,0.0,0.0,0.0,0.0,0.0,0.0,0.0,0.0,0.0,0.0,0.0,0.0,0.0,0.0,0.0,0.0,0.0,0.0,0.0,0.0,0.0,0.0,0.0,0.0,0.0,0.0,0.0,0.0,0.0,-4.76,-4.76,-4.7615,-4.7615,-4.7591,-4.7162,-4.6947,0.0,0.0,0.0,0.0,0.0,0.0,0.0,0.0,0.0,0.0,0.0,0.0,0.0,0.0,0.0,0.0,0.0,0.0,0.0,0.0,0.0,0.0,0.0,0.0,0.0,0.0,0.0,0.0,0.0,0.0,0.0,0.0,0.0,0.0,0.0,0.0,0.0,0.0,0.0,0.0,0.0,0.0,0.0,0.0,0.0,0.0,0.0,0.0,-4.0711,0.0,0.0,0.0,0.0,0.0,0.0,0.0,0.0,0.0,0.0,0.0,0.0,0.0,0.0,0.0,0.0,0.0,0.0,0.0,0.0,0.0,0.0,0.0,0.0,0.0,0.0,0.0,0.0,0.0,0.0,0.0,0.0,0.0,0.0,0.0,0.0,0.0,0.0,0.0,0.0,0.0,0.0,0.0,0.0,0.0,0.0,0.0,0.0,0.0,0.0,0.0,0.0,0.0,0.0,0.0,0.0,0.0,0.0,0.0,-4.8745,-4.8656,-4.8656,-4.8694,-4.8694,-4.8631,-4.8315,0.0,0.0,0.0,0.0,0.0,0.0,0.0,0.0,0.0,0.0,0.0,0.0,0.0,0.0,0.0,0.0,0.0,0.0,0.0,0.0,0.0,0.0,0.0,0.0,0.0,0.0,0.0,0.0,0.0,0.0,0.0,0.0,0.0,0.0,0.0,0.0,0.0,0.0,0.0,0.0,0.0,0.0,0.0,0.0,0.0,0.0,0.0,0.0,0.0,0.0,0.0,0.0,0.0,0.0,0.0,0.0,0.0,0.0,0.0,0.0,0.0,0.0,0.0,0.0,0.0,0.0,0.0,0.0,0.0,0.0,0.0,0.0,0.0,0.0,0.0,0.0,0.0,0.0,0.0,0.0,0.0,0.0,0.0,0.0,0.0,0.0,0.0,0.0,0.0,0.0,0.0,0.0,0.0,0.0,0.0,0.0,0.0,0.0,0.0,0.0,0.0,0.0,0.0,0.0,0.0,0.0,0.0,-5.0565,-5.0366,-5.0312,-5.0312,-5.0312,-5.0312,-5.0285,-4.972,-4.8524,0.0,0.0,0.0,0.0,0.0,0.0,0.0,0.0,0.0,0.0,0.0,0.0,0.0,0.0,0.0,0.0,0.0,0.0,0.0,0.0,0.0,0.0,0.0,0.0,0.0,0.0,0.0,0.0,0.0,0.0,0.0,0.0,0.0,0.0,0.0,0.0,0.0,0.0,-4.1609,-4.2216,0.0,0.0,0.0,0.0,0.0,0.0,0.0,0.0,-4.4036,0.0,0.0,0.0,0.0,0.0,0.0,0.0,0.0,0.0,0.0,0.0,0.0,0.0,0.0,0.0,0.0,0.0,0.0,0.0,0.0,0.0,0.0,0.0,0.0,0.0,0.0,0.0,0.0,0.0,0.0,0.0,0.0,0.0,0.0,0.0,0.0,0.0,0.0,0.0,0.0,0.0,0.0,0.0,0.0,0.0,0.0,0.0,0.0,0.0,0.0,0.0,0.0,0.0,0.0,0.0,0.0,-5.2297,-5.2234,-5.2156,-5.2156,-5.2156,-5.2156,-5.2156,-5.2102,-5.2015,-5.184,0.0,0.0,0.0,0.0,0.0,0.0,0.0,0.0,0.0,0.0,0.0,0.0,0.0,0.0,0.0,0.0,0.0,0.0,0.0,0.0,0.0,0.0,0.0,0.0,0.0,0.0,0.0,0.0,0.0,0.0,0.0,0.0,0.0,0.0,0.0,0.0,0.0,0.0,0.0,-4.4143,-4.4285,0.0,0.0,0.0,0.0,0.0,0.0,0.0,0.0,-4.4011,0.0,0.0,0.0,0.0,0.0,0.0,0.0,0.0,0.0,0.0,0.0,0.0,0.0,0.0,0.0,0.0,0.0,0.0,0.0,0.0,0.0,0.0,0.0,0.0,0.0,0.0,0.0,0.0,0.0,0.0,0.0,0.0,0.0,0.0,0.0,0.0,0.0,0.0,0.0,0.0,0.0,0.0,0.0,0.0,0.0,0.0,0.0,0.0,0.0,0.0,0.0,0.0,0.0,0.0,0.0,-5.2777,-5.2742,-5.2679,-5.2627,-5.2627,-5.2601,-5.2547,-5.252,-5.2547,0.0,0.0,0.0,0.0,0.0,0.0,0.0,0.0,0.0,0.0,0.0,0.0,0.0,0.0,0.0,0.0,0.0,0.0,0.0,0.0,0.0,0.0,0.0,0.0,0.0,0.0,0.0,0.0,0.0,0.0,0.0,0.0,0.0,0.0,0.0,0.0,0.0,0.0,0.0,0.0,-4.465,-4.4785,-4.5178,0.0,0.0,0.0,0.0,0.0,0.0,-4.6372,-4.6376,0.0,0.0,0.0,0.0,0.0,0.0,0.0,0.0,0.0,0.0,0.0,0.0,0.0,0.0,0.0,0.0,0.0,0.0,0.0,0.0,0.0,0.0,0.0,0.0,0.0,0.0,0.0,0.0,0.0,0.0,0.0,0.0,0.0,0.0,0.0,0.0,0.0,0.0,0.0,0.0,0.0,0.0,0.0,0.0,0.0,0.0,0.0,0.0,0.0,0.0,0.0,0.0,0.0,0.0,0.0,-5.3475,-5.3398,-5.3276,-5.3148,-5.3148,-5.316,-5.3107,-5.3041,-5.3069,0.0,0.0,0.0,0.0,0.0,0.0,0.0,0.0,0.0,0.0,0.0,0.0,0.0,0.0,0.0,0.0,0.0,0.0,0.0,0.0,0.0,0.0,0.0,0.0,0.0,0.0,0.0,0.0,0.0,0.0,0.0,0.0,0.0,0.0,0.0,0.0,0.0,0.0,0.0,0.0,0.0,-4.5479,-4.6141,-4.6284,0.0,0.0,0.0,0.0,-4.8422,-4.8436,0.0,0.0,0.0,0.0,0.0,0.0,0.0,0.0,0.0,0.0,0.0,0.0,0.0,0.0,0.0,0.0,0.0,0.0,0.0,0.0,0.0,0.0,0.0,0.0,0.0,0.0,0.0,0.0,0.0,0.0,0.0,0.0,0.0,0.0,0.0,0.0,0.0,0.0,0.0,0.0,0.0,0.0,0.0,0.0,0.0,0.0,0.0,0.0,0.0,0.0,0.0,0.0,0.0,0.0,0.0,0.0,-5.5109,-5.5097,-5.5097,-5.5071,-5.5071,-5.5071,-5.5071,-5.4955,-5.4981,0.0,0.0,0.0,0.0,0.0,0.0,0.0,0.0,0.0,0.0,0.0,0.0,0.0,0.0,0.0,0.0,0.0,0.0,0.0,0.0,0.0,0.0,0.0,0.0,0.0,0.0,0.0,0.0,0.0,0.0,0.0,0.0,0.0,0.0,0.0,0.0,0.0,0.0,0.0,0.0,0.0,-4.7356,-4.7829,-4.789,-4.8222,0.0,0.0,-4.9067,-4.9174,-4.9174,0.0,0.0,0.0,0.0,0.0,0.0,0.0,0.0,0.0,0.0,0.0,0.0,0.0,0.0,0.0,0.0,0.0,0.0,0.0,0.0,0.0,0.0,0.0,0.0,0.0,0.0,0.0,0.0,0.0,0.0,0.0,0.0,0.0,0.0,0.0,0.0,0.0,0.0,0.0,0.0,0.0,0.0,0.0,0.0,0.0,0.0,0.0,0.0,0.0,0.0,0.0,0.0,0.0,0.0,0.0,-5.5322,-5.539,-5.544,-5.544,-5.5403,-5.5403,-5.5377,-5.5313,-5.5248,-5.5248,0.0,0.0,0.0,0.0,0.0,0.0,0.0,0.0,0.0,0.0,0.0,0.0,0.0,0.0,0.0,0.0,0.0,0.0,0.0,0.0,0.0,0.0,0.0,0.0,0.0,0.0,0.0,0.0,0.0,0.0,0.0,0.0,0.0,0.0,0.0,0.0,0.0,0.0,0.0,0.0,0.0,0.0,-4.8829,-4.8817,0.0,0.0,0.0,-4.9508,-5.021,0.0,0.0,0.0,0.0,0.0,0.0,0.0,0.0,0.0,0.0,0.0,0.0,0.0,0.0,0.0,0.0,0.0,0.0,0.0,0.0,0.0,0.0,0.0,0.0,0.0,0.0,0.0,0.0,0.0,0.0,0.0,0.0,0.0,0.0,0.0,0.0,0.0,0.0,0.0,0.0,0.0,0.0,0.0,0.0,0.0,0.0,0.0,0.0,0.0,0.0,0.0,0.0,0.0,0.0,0.0,0.0,0.0,-5.5403,-5.5476,-5.5499,-5.5403,-5.5403,-5.5377,-5.5248,-5.5248,0.0,0.0,0.0,0.0,0.0,0.0,0.0,0.0,0.0,0.0,0.0,0.0,0.0,0.0,0.0,0.0,0.0,0.0,0.0,0.0,0.0,0.0,0.0,0.0,0.0,0.0,0.0,-5.0523,0.0,0.0,0.0,0.0,0.0,0.0,0.0,0.0,0.0,0.0,0.0,0.0,0.0,0.0,-5.009,-4.9758,-4.9746,-4.9912,0.0,0.0,-5.0199,-5.1095,-5.0976,-5.0994,0.0,0.0,0.0,0.0,0.0,0.0,0.0,0.0,0.0,0.0,0.0,0.0,0.0,0.0,0.0,0.0,0.0,0.0,0.0,0.0,0.0,0.0,0.0,0.0,0.0,0.0,0.0,0.0,0.0,0.0,0.0,0.0,0.0,0.0,0.0,0.0,0.0,0.0,0.0,0.0,0.0,0.0,0.0,0.0,0.0,0.0,0.0,0.0,0.0,0.0,0.0,0.0,0.0,0.0,0.0,-5.5428,-5.5531,-5.5531,-5.5403,-5.5403,-5.5403,-5.5403,-5.5377,-5.5403,0.0,0.0,0.0,0.0,0.0,0.0,0.0,0.0,0.0,0.0,0.0,0.0,0.0,0.0,0.0,0.0,0.0,0.0,0.0,0.0,0.0,0.0,0.0,0.0,0.0,0.0,0.0,0.0,0.0,0.0,0.0,0.0,0.0,0.0,0.0,0.0,0.0,0.0,0.0,0.0,0.0,-5.1069,-5.1022,-5.0994,-5.1246,0.0,0.0,-5.1565,-5.1651,-5.1651,-5.1637,-5.1708,0.0,0.0,0.0,0.0,0.0,0.0,0.0,0.0,0.0,0.0,0.0,0.0,0.0,0.0,0.0,0.0,0.0,0.0,0.0,0.0,0.0,0.0,0.0,0.0,0.0,0.0,0.0,0.0,0.0,0.0,0.0,0.0,0.0,0.0,0.0,0.0,0.0,0.0,0.0,0.0,0.0,0.0,0.0,0.0,0.0,0.0,0.0,0.0,0.0,0.0,0.0,0.0,0.0,-5.5843,-5.5531,-5.5499,-5.5465,-5.5403,-5.5403,-5.5403,-5.5403,-5.5403,-5.5377,0.0,0.0,0.0,0.0,0.0,0.0,0.0,0.0,0.0,0.0,0.0,0.0,0.0,0.0,0.0,0.0,0.0,0.0,0.0,0.0,0.0,0.0,0.0,0.0,0.0,0.0,0.0,0.0,-5.2911,-5.3404,-5.3897,0.0,0.0,0.0,0.0,0.0,0.0,0.0,0.0,0.0,0.0,-5.239,-5.2162,-5.2146,0.0,0.0,-5.2371,-5.2078,-5.2351,-5.1969,-5.1708,-5.1708,-5.1708,0.0,0.0,0.0,0.0,0.0,0.0,0.0,0.0,0.0,0.0,0.0,0.0,0.0,0.0,0.0,0.0,0.0,0.0,0.0,0.0,0.0,0.0,0.0,0.0,0.0,0.0,0.0,0.0,0.0,0.0,0.0,0.0,0.0,0.0,0.0,0.0,0.0,0.0,0.0,0.0,0.0,0.0,0.0,0.0,0.0,0.0,0.0,0.0,0.0,0.0,0.0,0.0,-5.667,-5.6284,-5.6299,-5.6242,-5.6167,-5.6129,-5.6167,-5.6167,-5.6167,-5.6103,0.0,0.0,0.0,0.0,0.0,0.0,0.0,0.0,0.0,0.0,0.0,0.0,0.0,0.0,0.0,0.0,0.0,0.0,0.0,0.0,0.0,0.0,0.0,0.0,0.0,0.0,0.0,0.0,-5.3707,-5.4276,-5.4844,0.0,0.0,0.0,0.0,0.0,0.0,0.0,0.0,0.0,0.0,-5.34,-5.3023,-5.285,-5.2893,-5.3109,-5.2545,-5.2173,-5.2545,-5.2114,-5.1722,-5.1822,0.0,0.0,0.0,0.0,0.0,0.0,0.0,0.0,0.0,0.0,0.0,0.0,0.0,0.0,0.0,0.0,0.0,0.0,0.0,0.0,0.0,0.0,0.0,0.0,0.0,0.0,0.0,0.0,0.0,0.0,0.0,0.0,0.0,0.0,0.0,0.0,0.0,0.0,0.0,0.0,0.0,0.0,0.0,0.0,0.0,0.0,0.0,0.0,0.0,0.0,0.0,0.0,0.0,0.0,-5.7863,-5.8098,-5.8158,-5.7837,-5.7848,-5.781,-5.781,-5.7848,-5.781,-5.781,0.0,0.0,0.0,0.0,0.0,0.0,0.0,0.0,0.0,0.0,0.0,0.0,0.0,0.0,0.0,0.0,0.0,0.0,0.0,0.0,0.0,0.0,0.0,0.0,0.0,0.0,-5.4806,-5.4844,-5.4882,0.0,0.0,0.0,0.0,0.0,0.0,0.0,0.0,0.0,0.0,-5.3944,-5.3907,-5.3322,-5.3023,-5.2806,-5.2806,-5.2209,-5.1822,-5.2173,-5.1933,-5.1822,0.0,0.0,0.0,0.0,0.0,0.0,0.0,0.0,0.0,0.0,0.0,0.0,0.0,0.0,0.0,0.0,0.0,0.0,0.0,0.0,0.0,0.0,0.0,0.0,0.0,0.0,0.0,0.0,-5.8996,0.0,0.0,0.0,0.0,0.0,0.0,0.0,0.0,0.0,0.0,0.0,-5.8414,-5.8364,0.0,0.0,0.0,0.0,0.0,0.0,0.0,0.0,0.0,0.0,0.0,0.0,-5.848,-5.8256,-5.812,-5.7991,-5.7886,-5.7886,-5.7886,-5.7886,-5.7886,-5.7886,-5.7886,0.0,0.0,0.0,0.0,0.0,0.0,0.0,0.0,0.0,0.0,0.0,0.0,0.0,0.0,0.0,0.0,0.0,0.0,0.0,0.0,0.0,0.0,0.0,0.0,0.0,-5.492,0.0,0.0,0.0,0.0,0.0,0.0,0.0,0.0,0.0,0.0,0.0,-5.4371,-5.4054,-5.3944,-5.3756,-5.3322,-5.3235,-5.3066,0.0,0.0,0.0,0.0,0.0,0.0,0.0,0.0,0.0,0.0,0.0,0.0,0.0,0.0,-5.0206,-5.0453,-5.0263,-5.0011,-5.0011,0.0,0.0,0.0,0.0,0.0,0.0,0.0,0.0,0.0,0.0,0.0,0.0,0.0,0.0,0.0,0.0,-6.0721,0.0,0.0,0.0,0.0,0.0,0.0,0.0,0.0,-5.8791,-5.8972,-5.923,-5.9226,-5.9381,0.0,-6.0034,-6.0203,0.0,0.0,0.0,0.0,0.0,0.0,0.0,0.0,-5.937,-5.9121,-5.9027,-5.8897,-5.8765,-5.8765,-5.8765,-5.8765,-5.8765,-5.8765,-5.8765,-5.871,-5.871,0.0,0.0,0.0,0.0,0.0,0.0,0.0,0.0,0.0,0.0,0.0,0.0,0.0,0.0,0.0,0.0,0.0,0.0,0.0,0.0,0.0,0.0,0.0,-5.492,0.0,0.0,0.0,0.0,0.0,0.0,0.0,0.0,0.0,-5.473,-5.4505,-5.4375,-5.4198,-5.3981,-5.3678,-5.3359,0.0,0.0,0.0,0.0,0.0,0.0,0.0,-5.1722,-5.1871,-5.1772,-5.1708,-5.1708,-5.1367,-5.107,-5.0999,0.0,0.0,-5.0509,-5.0263,-5.0011,-5.0011,-4.9597,-4.9332,-4.9756,-4.9423,-4.9066,0.0,0.0,0.0,0.0,0.0,0.0,0.0,0.0,-6.1685,-6.1656,0.0,-6.1678,0.0,0.0,0.0,0.0,0.0,0.0,0.0,0.0,-5.9036,-5.9424,-6.0201,-6.0226,-6.0667,-6.1497,-6.2368,-6.2718,-6.2454,-6.0162,0.0,0.0,0.0,0.0,0.0,0.0,-6.1268,-6.0556,-6.0872,-6.0834,-6.0474,-6.0485,-6.0485,-6.0485,-6.0446,-6.0446,-6.0408,-6.0408,-6.038,-6.0294,-5.955,0.0,0.0,0.0,0.0,0.0,0.0,0.0,0.0,0.0,0.0,0.0,0.0,0.0,0.0,0.0,0.0,0.0,0.0,0.0,0.0,-5.492,0.0,0.0,0.0,0.0,0.0,0.0,0.0,0.0,0.0,0.0,-5.4996,-5.4641,-5.4409,-5.4446,0.0,0.0,0.0,0.0,-5.2708,-5.234,-5.1992,-5.1893,-5.2198,-5.1992,-5.1929,-5.2198,0.0,0.0,-5.1779,-5.1779,-5.1663,-5.1421,-5.1086,-5.0655,-5.023,-5.008,-5.0011,-5.0011,-4.9976,-4.9976,-5.0011,-4.9894,-4.9718,-6.3828,0.0,0.0,0.0,0.0,-6.3127,-6.34,-6.34,-6.3361,-6.3741,-6.4265,-6.4265,0.0,0.0,0.0,0.0,0.0,0.0,-6.2687,-6.2377,-6.2377,-6.246,-6.2662,-6.2662,-6.2796,-6.3068,-6.3279,-6.3434,-6.3339,-6.2662,-6.2509,-6.2924,0.0,0.0,0.0,0.0,-6.2838,-6.2618,-6.2425,-6.2295,-6.2204,-6.2204,-6.2166,-6.2204,-6.2166,-6.1898,-6.1287,-6.1249,-6.0981,-6.0418,-6.0122,0.0,0.0,0.0,0.0,0.0,0.0,0.0,0.0,0.0,0.0,0.0,0.0,0.0,0.0,0.0,0.0,0.0,0.0,0.0,-5.492,-5.492,-5.492,0.0,0.0,0.0,0.0,0.0,0.0,0.0,0.0,0.0,-5.5792,-5.5076,-5.466,0.0,0.0,-5.4164,-5.4606,-5.4054,-5.3552,-5.3498,-5.3401,0.0,0.0,-5.3401,-5.335,-5.3468,-5.3401,-5.335,-5.335,-5.2999,-5.2674,-5.2564,-5.2171,-5.1741,-5.1588,-5.07,-5.008,-5.0011,-5.0011,-5.0011,-5.0011,-5.0273,-5.0438,-6.566,-6.414,-6.4335,-6.4413,-6.4452,-6.4919,-6.5114,-6.5114,-6.5114,-6.5416,-6.5901,-6.6252,-6.668,-6.7225,-6.7525,0.0,0.0,0.0,-6.4504,-6.3765,-6.3765,-6.3728,-6.3671,-6.3671,-6.3671,-6.371,-6.4058,-6.4213,-6.4213,-6.4617,-6.4821,-6.4867,0.0,0.0,-6.3959,-6.3804,-6.3628,-6.3394,-6.3229,-6.3065,-6.2892,-6.2892,-6.2892,-6.2892,-6.2892,-6.2662,-6.2128,-6.2089,-6.1869,-6.1373,-6.1,-6.079,0.0,0.0,0.0,0.0,0.0,0.0,0.0,0.0,0.0,0.0,0.0,-5.6016,0.0,0.0,0.0,0.0,-5.511,-5.492,-5.492,-5.5223,0.0,0.0,0.0,0.0,0.0,0.0,0.0,-5.5906,-5.636,-5.6664,-5.6664,-5.6116,-5.5767,-5.5986,-5.5471,-5.521,-5.5441,0.0,-5.4361,-5.423,-5.4096,-5.3975,-5.3975,-5.3975,-5.3975,-5.3975,-5.3975,-5.3975,-5.3975,-5.3673,-5.3399,-5.312,-5.2834,-5.2483,-5.2278,-5.1459,-5.0873,-5.0873,-5.0873,-5.0873,-5.0897,-5.1124,-5.1287,-6.7374,-6.8037,-6.7219,-6.6907,-6.6907,-6.6907,-6.6907,-6.6907,-6.6907,-6.6875,-6.6854,-6.7632,-6.7982,-6.8047,-6.8888,0.0,0.0,-6.6617,-6.5713,-6.4019,-6.4058,-6.4097,-6.4097,-6.4135,-6.4097,-6.4135,-6.5004,-6.5353,-6.5354,-6.6217,-6.66,-6.6454,-6.5025,-6.4216,-6.3983,-6.4169,-6.3953,-6.3397,-6.3582,-6.3469,-6.3083,-6.3053,-6.3053,-6.3092,-6.3053,-6.3053,-6.2977,-6.2977,-6.2909,-6.2773,-6.2069,-6.162,-6.1469,0.0,0.0,0.0,0.0,0.0,0.0,0.0,0.0,0.0,0.0,0.0,0.0,0.0,0.0,0.0,-5.5564,0.0,-5.511,-5.583,0.0,0.0,0.0,-5.7422,-5.7422,-5.7422,-5.7422,-5.7422,0.0,0.0,-5.7497,0.0,-5.751,-5.7347,-5.6925,-5.6518,-5.6199,-5.5684,-5.5182,-5.4905,-5.4502,-5.4242,-5.4384,-5.4349,-5.4349,-5.4349,-5.4206,-5.4277,-5.426,-5.4224,-5.3939,-5.3479,-5.3296,-5.3137,-5.2546,-5.2459,-5.239,-5.2425,-5.2252,-5.2114,-5.2071,-5.2149,-5.2173,-6.8816,-6.8972,-6.8777,-6.8699,-6.8699,-6.866,-6.8699,-6.866,-6.8699,-6.8627,-6.8527,-6.8722,-6.8769,-6.8696,-6.8907,-6.8333,-6.7232,-6.7948,-6.7657,-6.665,-6.7268,-6.7617,-6.7617,-6.7617,-6.7578,-6.7617,-6.7831,-6.7908,-6.7887,-6.8122,-6.8259,-6.8276,-6.7906,-6.6976,-6.5622,-6.5432,-6.5241,-6.4934,-6.4843,-6.4734,-6.4654,-6.4654,-6.4654,-6.4654,-6.4654,-6.435,-6.3702,-6.3632,-6.3397,-6.2811,-6.249,-6.2275,-6.2306,-6.2154,0.0,0.0,0.0,0.0,0.0,0.0,0.0,0.0,0.0,-5.7476,-5.7384,0.0,-5.7308,0.0,-5.6929,-5.6815,-5.6815,-5.6967,0.0,0.0,-5.727,-5.7422,-5.7422,-5.7422,-5.7422,-5.7422,-5.799,-5.8369,-5.8407,-5.8769,-5.9046,-5.9012,-5.771,-5.6967,-5.7433,-5.6694,-5.6164,-5.6313,-5.606,-5.5812,-5.5776,-5.5847,-5.5776,-5.5812,-5.5812,-5.5847,-5.5812,-5.5593,-5.5313,-5.4969,-5.4734,-5.4435,-5.397,-5.3977,-5.3942,-5.3873,-5.3046,-5.2183,-5.2183,-5.2571,-5.2832,-6.9409,-6.9784,-6.9759,-6.998,-7.0253,-6.9574,-6.9323,-6.9284,-6.9262,-6.9188,-6.915,-6.9498,-6.9811,-7.006,-7.0484,-7.0118,-6.9241,-6.9748,-6.9515,-6.8622,-6.8738,-6.8777,-6.8777,-6.8777,-6.8777,-6.8777,-6.8777,-6.8777,-6.8777,-6.8777,-6.8798,-6.8859,-6.8859,-6.8277,-6.7166,-6.7106,-6.7016,-6.6846,-6.6445,-6.6265,-6.6265,-6.6265,-6.6298,-6.6369,-6.5955,-6.5536,-6.5073,-6.4698,-6.428,-6.3955,-6.3442,-6.3182,-6.3144,-6.2839,-6.2585,0.0,0.0,0.0,0.0,0.0,0.0,0.0,0.0,0.0,0.0,0.0,-5.8369,-5.799,-5.7611,-5.7422,-5.7422,-5.7725,-5.799,-5.7952,-5.8293,-5.8521,-5.8521,-5.8521,-5.8483,-5.8521,-5.8938,-5.9171,-5.9143,-5.942,-5.9545,-5.9364,-5.8428,-5.7977,-5.828,-5.7565,-5.6976,-5.7216,-5.6933,-5.66,-5.6437,-5.6383,-5.6383,-5.6383,-5.6383,-5.6383,-5.6383,-5.6273,-5.5957,-5.559,-5.5354,-5.5053,-5.462,-5.4494,-5.4494,-5.4391,-5.3839,-5.3287,-5.3218,-5.3535,-5.3685,-7.0114,-7.0834,-7.0814,-7.1209,-7.1808,-7.0499,-6.9846,-6.9768,-6.9747,-6.9745,-6.977,-7.0432,-7.1162,-7.1862,-7.2655,-7.2444,-7.1507,-7.159,-7.1125,-7.0131,-6.9435,-6.9125,-6.9125,-6.9125,-6.9125,-6.9125,-6.9125,-6.9125,-6.9125,-6.9125,-6.9125,-6.9125,-6.9125,-6.8961,-6.8743,-6.8883,-6.8729,-6.8357,-6.7852,-6.7566,-6.7566,-6.7566,-6.7635,-6.7702,-6.695,-6.6569,-6.6559,-6.5803,-6.5351,-6.541,-6.461,-6.4121,-6.4057,-6.3302,-6.2889,0.0,-6.2648,0.0,0.0,0.0,0.0,0.0,0.0,0.0,0.0,-5.9885,-5.9582,-5.89,-5.8142,-5.7725,-5.7725,-5.8407,-5.8862,-5.8862,-5.9468,-5.9885,-5.9885,-5.9885,-5.9885,-5.9885,-5.9885,-5.9786,-5.9613,-5.9656,-5.9552,-5.9287,-5.9163,-5.9157,-5.9201,-5.8297,-5.7546,-5.7534,-5.7188,-5.6707,-5.6492,-5.6383,-5.6383,-5.6383,-5.6383,-5.6383,-5.6383,-5.6383,-5.6217,-5.5648,-5.5472,-5.5294,-5.462,-5.4494,-5.4494,-5.4494,-5.4425,-5.4391,-5.4391,-5.4391,-5.4402,-7.3229,-7.3401,-7.3385,-7.3484,-7.3618,-7.3301,-7.2812,-7.2267,-7.2857,-7.3135,-7.3083,-7.3178,-7.3308,-7.3463,-7.3618,-7.3231,-7.2375,-7.2358,-7.1893,-7.1059,-7.0905,-7.0827,-7.0827,-7.0827,-7.0827,-7.0827,-7.0827,-7.0827,-7.0827,-7.0827,-7.0827,-7.0827,-7.0827,-7.0744,-7.0575,0.0,0.0,0.0,-6.7496,-6.7426,-6.7426,-6.7426,-6.7463,-6.7463,-6.7311,0.0,-6.7197,-6.64,-6.598,-6.6049,-6.5221,0.0,0.0,0.0,0.0,0.0,0.0,0.0,0.0,0.0,0.0,0.0,-6.2008,-6.1363,-6.0037,-5.9885,-5.9809,-5.9658,-5.9506,-5.943,-5.943,-5.9544,-5.9658,-5.9696,-5.9809,-5.9885,-5.9885,-5.9923,-5.9885,-5.9885,-5.9753,-5.965,-5.9694,-5.9853,-6.0074,-5.9953,-5.9878,-6.0056,-6.0667,-5.8943,-5.7559,-5.7138,-5.692,-5.6563,-5.6383,-5.6454,-5.6525,-5.6383,-5.6383,-5.6418,-5.649,-5.6454,-5.6197,-5.566,-5.5472,-5.5329,-5.4689,-5.4494,-5.4598,-5.4529,-5.4529,-5.4494,-5.4494,-5.4529,-5.4402,-7.4034,0.0,-7.3995,-7.4014,0.0,-7.4441,-7.4363,-7.3976,-7.4033,-7.4034,-7.3932,-7.3906,-7.3883,-7.3922,-7.4309,-7.427,-7.3806,-7.3419,-7.2993,-7.2529,-7.1717,-7.1291,-7.1291,-7.1291,-7.1291,-7.1291,-7.1291,-7.1291,-7.1291,-7.1291,-7.1291,-7.1291,-7.1201,-7.1091,-7.1029,-7.0584,-6.9828,-6.8641,-6.8641,-6.8641,-6.8641,-6.8641,-6.864,-6.8677,0.0,0.0,0.0,0.0,0.0,0.0,0.0,0.0,0.0,0.0,0.0,-6.4888,-6.4544,-6.4317,-6.4206,-6.3486,-6.2993,-6.2993,-6.2652,-6.2046,-6.1212,-6.1136,-6.1136,-6.1136,-6.1136,-6.1136,-6.1136,-6.1136,-6.1136,-6.1136,-6.1136,-6.1136,-6.1136,-6.1136,-6.1136,-6.1136,-6.1035,-6.0931,-6.0715,-6.0867,-6.0895,-6.0766,-6.0633,-6.0655,-6.072,-5.9493,-5.8347,-5.8139,-5.7801,-5.756,-5.756,-5.756,-5.7525,-5.756,-5.7525,-5.7525,-5.756,-5.7412,-5.7127,-5.6751,-5.651,-5.6203,-5.5761,-5.5632,-5.5632,-5.5632,-5.5632,-5.5632,-5.5598,-5.5046,-5.4367,-7.4375,-7.44,-7.4392,-7.4347,-7.4386,-7.5082,-7.5314,-7.5276,0.0,0.0,0.0,-7.4347,-7.4347,-7.4386,-7.5044,-7.5314,-7.5276,-7.4347,-7.3883,-7.3806,-7.2104,-7.1291,-7.1291,-7.1291,-7.1291,-7.1291,-7.1291,-7.1291,-7.1291,-7.1291,-7.1291,-7.1269,-7.113,-7.103,-7.0887,-7.0445,-7.0073,-6.9929,-6.9891,-6.9891,-6.9891,-6.9891,-6.9929,-6.9966,-6.9209,-6.8867,-6.8979,-6.8071,-6.7654,-6.765,-6.6929,-6.6473,-6.6473,-6.5676,-6.5148,-6.5116,-6.5002,-6.4926,-6.4888,-6.4244,-6.3827,-6.3827,-6.3221,-6.2728,-6.2463,-6.2425,-6.2425,-6.2425,-6.2425,-6.2425,-6.2425,-6.2425,-6.2425,-6.2425,-6.2425,-6.2387,-6.2387,-6.2425,-6.2349,-6.2425,-6.2243,-6.2178,-6.1769,-6.1803,-6.1793,-6.1496,-6.1508,-6.1328,-6.0798,-5.9947,-5.9186,-5.8988,-5.8657,-5.8631,-5.8667,-5.8631,-5.8702,-5.8595,-5.8631,-5.8702,-5.8645,-5.8414,-5.8118,-5.771,-5.7479,-5.7126,-5.6836,-5.6702,-5.6805,-5.6805,-5.6805,-5.6805,-5.6702,-5.5805,-5.4883,-7.6034,-7.6072,-7.6049,-7.6049,-7.6049,-7.6165,-7.6204,-7.6204,-7.6072,-7.6072,-7.6049,-7.6049,-7.6049,-7.6049,-7.6165,-7.6204,-7.6127,-7.4618,-7.3883,0.0,-7.2104,-7.1291,-7.1291,-7.1291,-7.1291,-7.1291,-7.1291,-7.1291,-7.1291,-7.1291,-7.1291,-7.1291,-7.1269,-7.1042,-7.0652,-7.0179,-6.9929,-6.9891,-6.9891,-6.9891,-6.9891,-6.9891,-6.9891,-6.9929,-6.9778,-6.9702,-6.974,-6.8868,-6.8413,-6.845,-6.7692,-6.7275,-6.7237,-6.644,-6.5912,-6.5874,-6.5267,-6.4926,-6.4926,-6.4775,-6.4737,-6.4737,-6.4623,-6.3941,-6.2576,-6.2425,-6.2425,-6.2425,-6.2501,-6.2425,-6.2425,-6.2501,-6.2538,-6.2463,-6.2463,-6.2425,-6.2501,-6.2501,-6.2538,-6.2504,-6.2106,-6.1958,-6.1994,-6.216,-6.2358,-6.2294,-6.2318,-6.2414,-6.1458,-6.0305,-5.9276,-5.8872,-5.8702,-5.8702,-5.8881,-5.8738,-5.8845,-5.8702,-5.8845,-5.8916,-5.8916,-5.8627,-5.833,-5.7921,-5.7653,-5.73,-5.6974,-5.6805,-5.6943,-5.6978,-5.6978,-5.6943,-5.6978,-5.6667,-5.6395,-7.6397,-7.6397,-7.6397,-7.6397,-7.6397,-7.6397,-7.6397,-7.6397,-7.6397,-7.6397,-7.6397,-7.6397,-7.6397,-7.6397,-7.6397,-7.6397,-7.632,-7.4657,-7.3883,-7.3767,-7.2104,-7.1291,-7.1291,-7.1291,-7.1291,-7.1291,-7.1291,-7.1291,-7.1291,-7.1291,-7.1247,-7.113,-7.0848,-7.0563,-7.0213,-7.0003,-6.9891,-6.9891,-6.9891,-6.9891,-6.9891,-6.9891,-6.9891,-6.9891,-6.9891,-6.9891,-6.9891,-6.9512,-6.9285,-6.9323,-6.8527,-6.8072,-6.8034,-6.7276,-6.6821,-6.6783,-6.6025,-6.5571,-6.5571,-6.5154,-6.4926,-6.4926,-6.4926,-6.4623,-6.3827,-6.3789,-6.3789,-6.3751,-6.3751,-6.3751,-6.3751,-6.3751,-6.3751,-6.3751,-6.3751,-6.3751,-6.3751,-6.3751,-6.3716,-6.361,-6.3427,-6.3236,-6.296,-6.3089,-6.3052,-6.2817,-6.2769,-6.2412,-6.1823,-6.1135,-6.0464,-6.0139,-5.9987,-6.0023,-5.9987,-6.0023,-6.0023,-6.0023,-6.0023,-6.0023,-5.9964,-5.9572,-5.9205,-5.9053,-5.8572,-5.8213,-5.7978,-5.8012,-5.8012,-5.8012,-5.8012,-5.8012,-5.8012,-5.8012,-5.7602,-7.6397,-7.6397,-7.6397,-7.6397,-7.6397,-7.6397,-7.6397,-7.6397,-7.6397,-7.6397,-7.6397,-7.6397,-7.6397,-7.6397,-7.6397,-7.6397,-7.6204,-7.485,-7.4077,-7.3767,-7.2297,-7.1485,-7.133,-7.1291,-7.1291,-7.1291,-7.1291,-7.1291,-7.1291,-7.1247,-7.113,-7.0887,-7.0439,-7.0144,-7.0004,-6.9929,-6.9891,-6.9891,-6.9891,-6.9891,-6.9891,-6.9891,-6.9891,-6.9891,-6.9891,-6.9891,-6.9891,-6.9891,-6.9891,-6.9854,-6.9247,-6.8906,-6.8868,-6.811,-6.7655,-6.7579,-6.6859,-6.6404,-6.6367,-6.5836,-6.5457,-6.5457,-6.5457,-6.5457,-6.5457,-6.5457,-6.5267,-6.5002,-6.485,-6.485,-6.4813,-6.485,-6.4926,-6.4926,-6.4926,-6.4813,-6.4888,-6.4853,-6.4781,-6.4634,-6.452,-6.4249,-6.3963,-6.3835,-6.3617,-6.3205,-6.2755,-6.2255,-6.1933,-6.1712,-6.1408,-6.1211,-6.1093,-6.1022,-6.1093,-6.1022,-6.1022,-6.1093,-6.1022,-6.095,-6.0831,-6.0477,-6.0135,-5.9902,-5.9415,-5.8943,-5.8978,-5.8944,-5.8909,-5.884,-5.884,-5.8909,-5.8875,-5.8737,-5.8462,-7.6397,-7.6397,-7.6397,-7.6397,-7.6397,-7.6397,-7.6397,-7.6397,-7.6397,-7.6397,-7.6397,-7.6397,-7.6397,-7.6397,-7.6397,-7.6397,-7.632,-7.543,-7.4579,-7.3844,-7.2916,-7.2065,-7.133,-7.1291,-7.1291,-7.1291,-7.1291,-7.1291,-7.1269,-7.1106,-7.0887,-7.0622,-7.0342,-7.0175,-7.0179,-7.0003,-6.9891,-6.9891,-6.9891,-6.9891,-6.9891,-6.9891,-6.9891,-6.9891,-6.9891,-6.9891,-6.9891,-6.9891,-6.9891,-6.9891,-6.9816,-6.9778,-6.9664,-6.8944,-6.8489,-6.8489,-6.7731,-6.7276,-6.7238,-6.72,-6.7087,-6.7162,-6.7087,-6.7049,-6.7087,-6.7125,-6.648,-6.5381,-6.4964,-6.504,-6.4926,-6.5002,-6.5078,-6.5154,-6.5078,-6.4926,-6.4929,-6.4745,-6.4596,-6.4596,-6.4247,-6.392,-6.3915,-6.3661,-6.3519,-6.3289,-6.2668,-6.2202,-6.2059,-6.16,-6.1211,-6.1152,-6.1093,-6.1093,-6.1093,-6.1093,-6.1093,-6.1093,-6.1093,-6.1093,-6.0974,-6.0512,-6.0072,-5.9978,-5.9485,-5.9012,-5.9012,-5.9012,-5.9012,-5.9012,-5.9012,-5.9012,-5.8944,-5.8806,-5.8425,-7.6397,-7.6397,-7.6397,-7.6397,-7.6397,-7.6397,-7.6397,-7.6397,-7.6397,-7.6397,-7.6397,-7.6397,-7.6397,-7.6397,-7.6397,-7.6397,-7.632,-7.5508,-7.4657,-7.3883,-7.2993,-7.2142,-7.1369,-7.1291,-7.1291,-7.1291,-7.1291,-7.1247,-7.1042,-7.0748,-7.047,-7.0342,-7.0144,-7.0001,-7.0039,-6.9929,-6.9891,-6.9891,-6.9891,-6.9891,-6.9891,-6.9891,-6.9891,-6.9891,-6.9891,-6.9891,-6.9891,-6.9891,-6.9891,-6.9891,-6.9891,-6.9891,-6.9891,-6.955,-6.9361,-6.9323,-6.8565,-6.7883,-6.7428,-6.739,-6.739,-6.739,-6.739,-6.739,-6.739,-6.739,-6.7012,-6.6371,-6.6294,-6.6367,-6.6367,-6.6367,-6.6367,-6.6367,-6.6257,-6.5955,-6.5464,-6.5236,-6.4928,-6.4319,-6.4042,-6.3873,-6.3661,-6.3234,-6.2769,-6.2493,-6.1987,-6.1712,-6.16,-6.1292,-6.1152,-6.1093,-6.1093,-6.1093,-6.1093,-6.1093,-6.1093,-6.1093,-6.1093,-6.1093,-6.0793,-6.0423,-6.0008,-5.9849,-5.9351,-5.9012,-5.9012,-5.9012,-5.9012,-5.9012,-5.9012,-5.9012,-5.9012,-5.8875,-5.8736,-7.6397,-7.6397,-7.6397,-7.6397,-7.6397,-7.6397,-7.6397,-7.6397,-7.6397,-7.6397,-7.6397,-7.6397,-7.6397,-7.6397,-7.6397,-7.6397,-7.632,-7.574,-7.4889,-7.3922,-7.3264,-7.2375,-7.1369,-7.1291,-7.1291,-7.1291,-7.1247,-7.1042,-7.0777,-7.0407,-7.0289,-7.0375,-7.0308,-7.0346,-7.0574,-7.0574,-7.0574,-7.0612,-7.0574,-7.0574,-7.0612,-7.0574,-7.0384,-6.9967,-6.9891,-6.9891,-6.9891,-6.9891,-6.9891,-6.9891,-6.9891,-6.9891,-6.9891,-6.9891,-6.9891,-6.9854,-6.9323,-6.8716,-6.811,-6.8035,-6.7997,-6.7997,-6.796,-6.7921,-6.7921,-6.7921,-6.7806,-6.765,-6.7767,-6.777,-6.7241,-6.7203,-6.7241,-6.7165,-6.7011,-6.6668,-6.6101,-6.6015,-6.5731,-6.478,-6.4694,-6.4227,-6.3676,-6.3094,-6.2684,-6.2427,-6.1987,-6.1523,-6.1466,-6.1408,-6.127,-6.1152,-6.1093,-6.1093,-6.1093,-6.1093,-6.1093,-6.1093,-6.1093,-6.0974,-6.0671,-6.0297,-5.9943,-5.9783,-5.9284,-5.9012,-5.9012,-5.9012,-5.9012,-5.9012,-5.9012,-5.9012,-5.9012,-5.8944,-5.8736,-7.6397,-7.6397,-7.6397,-7.6397,-7.6397,-7.6397,-7.6397,-7.6397,-7.6397,-7.6397,-7.6397,-7.6397,-7.6397,-7.6397,-7.6397,-7.6397,-7.6397,-7.632,-7.5392,-7.3999,-7.3806,-7.2916,-7.1369,-7.1291,-7.1291,-7.1385,-7.1246,-7.0892,-7.0424,-7.0286,-7.0489,-7.1029,-7.1029,-7.1445,-7.2014,-7.209,-7.2241,-7.209,-7.209,-7.2203,-7.2203,-7.2203,-7.1445,-7.0195,-6.9929,-7.0005,-6.9967,-6.9929,-6.9929,-6.9929,-7.0005,-6.9967,-6.9929,-6.9967,-7.0005,-6.9967,-6.9891,-6.9816,-6.9702,-6.9395,-6.9237,-6.9313,-6.9077,-6.9058,-6.8913,-6.8913,-6.8913,-6.9058,-6.8908,-6.8382,-6.7217,-6.7109,-6.7033,-6.6996,-6.6842,-6.68,-6.6687,-6.7074,-6.7098,-6.6411,-6.6089,-6.5468,-6.401,-6.3602,-6.3604,-6.3464,-6.3124,-6.2801,-6.2403,-6.2023,-6.1609,-6.1319,-6.12,-6.1129,-6.1093,-6.1093,-6.1093,-6.1093,-6.1093,-6.0974,-6.0671,-6.036,-5.9978,-5.9652,-5.9284,-5.9012,-5.9012,-5.9012,-5.9012,-5.9012,-5.9012,-5.9012,-5.8944,-5.8667,-5.8561,-7.6397,-7.6397,-7.6397,-7.6397,-7.6397,-7.6397,-7.6397,-7.6397,-7.6397,-7.6397,-7.6397,-7.6397,-7.6397,-7.6397,-7.6397,-7.6397,-7.6397,-7.6397,-7.5508,-7.4038,-7.3883,-7.2955,-7.1407,-7.1291,-7.164,-7.2043,-7.1891,-7.1794,-7.1773,-7.1671,-7.1712,-7.1901,-7.19,-7.209,-7.2355,-7.2393,-7.2393,-7.2393,-7.2393,-7.2393,-7.2431,-7.2393,-7.2052,-7.1559,-7.1483,-7.1483,-7.1483,-7.1483,-7.1483,-7.1483,-7.1483,-7.1483,-7.1483,-7.1365,-7.1247,-7.1209,-7.0633,-7.0248,-7.0173,-6.9637,-6.9294,-6.9294,-6.9289,-6.9241,-6.9166,-6.9166,-6.916,-6.899,-6.8945,-6.8526,-6.8174,-6.8084,-6.8302,-6.8302,-6.8135,-6.7785,-6.7554,-6.7784,-6.7905,-6.7272,-6.73,-6.7057,-6.5804,-6.5546,-6.5211,-6.4471,-6.3998,-6.3657,-6.3474,-6.3113,-6.2546,-6.2045,-6.1843,-6.1664,-6.1093,-6.1093,-6.1093,-6.1093,-6.1034,-6.0793,-6.0485,-6.0234,-5.9914,-5.9418,-5.9081,-5.9012,-5.9012,-5.9012,-5.9012,-5.9012,-5.9012,-5.8944,-5.8875,-5.8701,-5.8561,-7.6397,-7.6397,-7.6397,-7.6397,-7.6397,-7.6397,-7.6397,-7.6397,-7.6397,-7.6397,-7.6397,-7.6397,-7.6397,-7.6397,-7.6397,-7.6397,-7.6397,-7.6359,-7.5624,-7.4386,-7.427,-7.3535,-7.2336,-7.2142,-7.2368,-7.2776,-7.2542,-7.2461,-7.2581,-7.2472,-7.2545,-7.2772,-7.2772,-7.2924,-7.3151,-7.3227,-7.3189,-7.3189,-7.3189,-7.3227,-7.3227,-7.3189,-7.3227,-7.3189,-7.3189,-7.2924,-7.2431,-7.2393,-7.2393,-7.2393,-7.2393,-7.2353,-7.2235,-7.1991,-7.1864,-7.1788,-7.1206,-7.078,-7.0698,-7.0203,-6.9903,-6.9859,-6.9814,-6.9769,-6.9769,-6.9769,-6.964,-6.9463,-6.9154,-6.8985,-6.89,-6.8903,-6.8983,-6.8983,-6.8809,-6.8483,-6.7999,-6.849,-6.8431,-6.7911,-6.781,-6.7492,-6.6729,-6.6418,-6.5934,-6.5071,-6.4676,-6.4456,-6.4152,-6.386,-6.3417,-6.2831,-6.2628,-6.2449,-6.2057,-6.1878,-6.1343,-6.1236,-6.0914,-6.0609,-6.0297,-6.0107,-5.9748,-5.9217,-5.9012,-5.9012,-5.9012,-5.9012,-5.9012,-5.9012,-5.9012,-5.8944,-5.8875,-5.8771,-5.8561,-7.6397,-7.6397,-7.6397,-7.6397,-7.6397,-7.6397,-7.6397,-7.6397,-7.6397,-7.6397,-7.6397,-7.6397,-7.6397,-7.6397,-7.6397,-7.6397,-7.6397,-7.6397,-7.5895,-7.5044,-7.5005,-7.4518,-7.3667,-7.359,-7.3509,-7.3455,-7.3002,-7.2733,-7.2661,-7.2736,-7.2999,-7.353,-7.3644,-7.3947,-7.4819,-7.4667,-7.4743,-7.4705,-7.4629,-7.4743,-7.4895,-7.4705,-7.4667,-7.4705,-7.4705,-7.4023,-7.2583,-7.2545,-7.262,-7.2583,-7.2545,-7.2311,-7.2218,-7.2003,-7.1757,-7.1832,-7.1636,-7.1599,-7.1516,-7.1257,-7.1013,-7.0965,-7.0921,-7.071,-7.0685,-7.071,-7.071,-7.0562,-7.0153,-6.9732,-6.962,-6.9186,-6.874,-6.8506,-6.8554,-6.8517,-6.858,-6.9174,-6.9434,-6.8691,-6.8208,-6.7131,-6.65,-6.659,-6.6396,-6.5837,-6.5521,-6.5204,-6.4607,-6.441,-6.3944,-6.3535,-6.3377,-6.327,-6.3056,-6.277,-6.1985,-6.1319,-6.0899,-6.0485,-6.0171,-5.9849,-5.9551,-5.9149,-5.9012,-5.9012,-5.9012,-5.9012,-5.9012,-5.9012,-5.9012,-5.8944,-5.8806,-5.8701,-5.8561,-7.6397,-7.6397,-7.6397,-7.6397,-7.6397,-7.6397,-7.6397,-7.6397,-7.6397,-7.6397,-7.6397,-7.6397,-7.6397,-7.6397,-7.6397,-7.6397,-7.6397,-7.6359,-7.5933,-7.5214,-7.5121,-7.4601,-7.3806,-7.3665,-7.3707,-7.3915,-7.4285,-7.4372,-7.4101,-7.4099,-7.4288,-7.444,-7.4478,-7.4629,-7.4895,-7.4895,-7.4895,-7.4895,-7.4895,-7.4895,-7.4895,-7.4895,-7.4895,-7.4895,-7.4895,-7.4629,-7.4174,-7.4136,-7.4017,-7.3817,-7.385,-7.3727,-7.3425,-7.3232,-7.3127,-7.3052,-7.2384,-7.2025,-7.195,-7.1454,-7.1095,-7.1057,-7.1008,-7.092,-7.092,-7.0958,-7.0995,-7.0958,-7.066,-7.0549,-7.0475,-7.0363,-6.9694,-6.8617,-6.8543,-6.8543,-6.858,-6.9174,-6.9843,-7.014,-6.9955,-6.9434,-6.8766,-6.8468,-6.7914,-6.7067,-6.6733,-6.6299,-6.5859,-6.5334,-6.4956,-6.4376,-6.4269,-6.4091,-6.377,-6.3325,-6.2693,-6.1823,-6.1149,-6.0403,-6.0013,-5.9652,-5.9351,-5.9149,-5.9081,-5.9012,-5.9012,-5.9012,-5.9012,-5.9012,-5.9012,-5.8875,-5.8667,-5.8526,-5.849,-7.6397,-7.6397,-7.6397,-7.6397,-7.6397,-7.6397,-7.6397,-7.6397,-7.6397,-7.6397,-7.6397,-7.6397,-7.6397,-7.6397,-7.6397,-7.6311,-7.6262,-7.6262,-7.5903,-7.5388,-7.5426,-7.4976,-7.4293,-7.4205,-7.4248,-7.4516,-7.4942,-7.5056,-7.4895,-7.4895,-7.4895,-7.4895,-7.4895,-7.4895,-7.4895,-7.4895,-7.4895,-7.4895,-7.4895,-7.4895,-7.4895,-7.4895,-7.4895,-7.4895,-7.4895,-7.4854,-7.4771,-7.4854,-7.4771,-7.4519,-7.4342,-7.416,-7.4019,-7.374,-7.3665,-7.3503,-7.3066,-7.2681,-7.2555,-7.2184,-7.1849,-7.1812,-7.1849,-7.1849,-7.1849,-7.1849,-7.1812,-7.1812,-7.1552,-7.1403,-7.1366,-7.1069,-7.0437,-6.9546,-6.9174,-6.884,-6.8691,-6.8951,-6.936,-6.9732,-6.9843,-6.9732,-6.9434,-6.9249,-6.8877,-6.7952,-6.7577,-6.7081,-6.6655,-6.6197,-6.5689,-6.5224,-6.509,-6.4804,-6.4448,-6.3903,-6.3322,-6.2393,-6.1465,-6.0604,-5.9822,-5.9453,-5.9149,-5.9081,-5.9012,-5.9012,-5.9012,-5.9012,-5.9012,-5.9012,-5.9012,-5.8875,-5.8736,-5.8561,-5.8419,-7.6397,-7.6397,-7.6397,-7.6397,-7.6397,-7.6397,-7.6397,-7.6397,-7.6397,-7.6397,-7.6397,-7.6397,-7.6397,-7.6397,-7.6374,-7.6237,-7.6041,-7.5985,-7.5831,-7.5664,-7.5725,-7.561,-7.5315,-7.508,-7.5053,-7.5094,-7.5017,-7.4895,-7.4895,-7.4895,-7.4895,-7.4895,-7.4895,-7.4895,-7.4895,-7.4895,-7.4895,-7.4895,-7.4895,-7.4895,-7.4895,-7.4895,-7.4895,-7.4895,-7.4895,-7.4812,-7.4649,-7.4729,-7.4691,-7.4476,-7.4066,-7.3864,-7.3765,-7.3527,-7.3424,-7.3461,-7.3372,-7.3298,-7.3335,-7.3149,-7.3149,-7.3112,-7.3112,-7.3372,-7.3149,-7.3038,-7.3038,-7.3038,-7.2592,-7.2258,-7.2109,-7.1701,-7.118,-7.092,-7.0103,-6.936,-6.8729,-6.8654,-6.8729,-6.8691,-6.858,-6.8543,-6.8654,-6.8617,-6.8346,-6.793,-6.7736,-6.736,-6.6794,-6.6476,-6.6269,-6.5976,-6.5681,-6.5283,-6.4892,-6.4427,-6.3842,-6.281,-6.1908,-6.0976,-5.9937,-5.9492,-5.9081,-5.9012,-5.9012,-5.9012,-5.9012,-5.9012,-5.9012,-5.9012,-5.8944,-5.8909,-5.8771,-5.8561,-5.8419,-7.6397,-7.6397,-7.6397,-7.6397,-7.6397,-7.6397,-7.6397,-7.6397,-7.6397,-7.6397,-7.6397,-7.6397,-7.6374,-7.6374,-7.6212,-7.6068,-7.5918,-7.5802,-7.5622,-7.5424,-7.5459,-7.5421,-7.5354,-7.5133,-7.5015,-7.5015,-7.4935,-7.4895,-7.4895,-7.4895,-7.4895,-7.4895,-7.4895,-7.4895,-7.4895,-7.4895,-7.4895,-7.4895,-7.4895,-7.4895,-7.4895,-7.4895,-7.4895,-7.4895,-7.4895,-7.4854,-7.4771,-7.4476,-7.4305,-7.4214,-7.3971,-7.3678,-7.3564,-7.3424,-7.3372,-7.3372,-7.3372,-7.3372,-7.3372,-7.3372,-7.3372,-7.3372,-7.3372,-7.3372,-7.3372,-7.3372,-7.3372,-7.3335,-7.3149,-7.3038,-7.3001,-7.2815,-7.2444,-7.1775,-7.0698,-6.9769,-6.9397,-6.8877,-6.8543,-6.8543,-6.8543,-6.8543,-6.8543,-6.8457,-6.8358,-6.7982,-6.7789,-6.763,-6.7024,-6.6655,-6.6476,-6.6269,-6.6012,-6.5633,-6.5237,-6.4902,-6.4248,-6.324,-6.237,-6.1606,-6.0462,-5.953,-5.9219,-5.9012,-5.9012,-5.9012,-5.9012,-5.9012,-5.9012,-5.9012,-5.9012,-5.8944,-5.8701,-5.849,-5.8277,-7.6397,-7.6397,-7.6397,-7.6397,-7.6397,-7.6397,-7.6397,-7.6397,-7.6397,-7.6311,-7.6262,-7.6237,-7.6147,-7.6068,-7.589,-7.5772,-7.5718,-7.5556,-7.5351,-7.5171,-7.5133,-7.5133,-7.5095,-7.4935,-7.4895,-7.4895,-7.4895,-7.4895,-7.4895,-7.4895,-7.4895,-7.4895,-7.4895,-7.4895,-7.4895,-7.4895,-7.4895,-7.4895,-7.4895,-7.4895,-7.4895,-7.4895,-7.4895,-7.4854,-7.4812,-7.4691,-7.4519,-7.4168,-7.3934,-7.3789,-7.3678,-7.3527,-7.3424,-7.3372,-7.3372,-7.3372,-7.3372,-7.3372,-7.3372,-7.3372,-7.3372,-7.3372,-7.3372,-7.3372,-7.3372,-7.3372,-7.3372,-7.3372,-7.3372,-7.3372,-7.3372,-7.3372,-7.3149,-7.2629,-7.1515,-7.0623,-7.0289,-6.9509,-6.91,-6.8951,-6.8729,-6.8543,-6.8543,-6.8543,-6.8358,-6.8222,-6.8134,-6.7736,-6.7213,-6.691,-6.6595,-6.6294,-6.5922,-6.5539,-6.5212,-6.4908,-6.4532,-6.3484,-6.2784,-6.2048,-6.0978,-5.9875,-5.9461,-5.9219,-5.9116,-5.9012,-5.9012,-5.9012,-5.9012,-5.9012,-5.9012,-5.8875,-5.8631,-5.849,-5.8277,-7.6397,-7.6397,-7.6397,-7.6397,-7.6397,-7.6397,-7.6397,-7.6397,-7.6374,-7.6237,-7.6068,-7.5947,-7.5861,-7.5616,-7.5616,-7.5489,-7.5356,-7.5281,-7.5133,-7.5015,-7.4935,-7.4935,-7.4935,-7.4935,-7.4895,-7.4895,-7.4895,-7.4895,-7.4895,-7.4895,-7.4895,-7.4895,-7.4895,-7.4895,-7.4895,-7.4895,-7.4895,-7.4895,-7.4895,-7.4895,-7.4854,-7.4854,-7.4812,-7.4771,-7.4563,-7.4305,-7.416,-7.3875,-7.3715,-7.3424,-7.3461,-7.3424,-7.3424,-7.3372,-7.3372,-7.3372,-7.3372,-7.3372,-7.3372,-7.3372,-7.3372,-7.3372,-7.3372,-7.3372,-7.3372,-7.3372,-7.3372,-7.3372,-7.3372,-7.3372,-7.3372,-7.3372,-7.3335,-7.3149,-7.2592,-7.1961,-7.1255,-7.0363,-6.9806,-6.9694,-6.9026,-6.8729,-6.8543,-6.8457,-6.8408,-6.8084,-6.8033,-6.7577,-6.7157,-6.691,-6.6536,-6.6207,-6.5732,-6.5242,-6.5011,-6.4843,-6.4393,-6.3865,-6.3197,-6.2427,-6.1392,-6.0461,-5.9875,-5.953,-5.9288,-5.9116,-5.9012,-5.9012,-5.9012,-5.8944,-5.8944,-5.8806,-5.8561,-5.8419,-5.8277,-7.6397,-7.6397,-7.6397,-7.6397,-7.6397,-7.6397,-7.6397,-7.6374,-7.6147,-7.6068,-7.5985,-7.5772,-7.5648,-7.5584,-7.5421,-7.5318,-7.5283,-7.5095,-7.4935,-7.4895,-7.4895,-7.4895,-7.4895,-7.4895,-7.4895,-7.4895,-7.4895,-7.4895,-7.4895,-7.4895,-7.4895,-7.4895,-7.4895,-7.4895,-7.4895,-7.4895,-7.4895,-7.4895,-7.4895,-7.4854,-7.4812,-7.4649,-7.4563,-7.4563,-7.4305,-7.4076,-7.3923,-7.3815,-7.3665,-7.3564,-7.3527,-7.3527,-7.3424,-7.3372,-7.3372,-7.3372,-7.3372,-7.3372,-7.3372,-7.3372,-7.3372,-7.3372,-7.3372,-7.3372,-7.3372,-7.3372,-7.3372,-7.3372,-7.3372,-7.3372,-7.3372,-7.3372,-7.3372,-7.3335,-7.3187,-7.3001,-7.2666,-7.1552,-7.0512,-6.9955,-6.9583,-6.9249,-6.8605,-6.8171,-6.8033,-6.793,-6.7684,-6.736,-6.7081,-6.6852,-6.644,-6.6021,-6.5474,-6.5011,-6.474,-6.4498,-6.4217,-6.393,-6.347,-6.3048,-6.2013,-6.1047,-6.0496,-5.9909,-5.9392,-5.9254,-5.9116,-5.9012,-5.9012,-5.8944,-5.8875,-5.8771,-5.8561,-5.8419,-5.8243,-7.6397,-7.6397,-7.6397,-7.6397,-7.6397,-7.6397,-7.635,-7.6212,-7.6068,-7.5861,-7.5686,-7.5523,-7.5386,-7.5243,-7.5171,-7.5095,-7.5133,-7.4975,-7.4895,-7.4895,-7.4895,-7.4895,-7.4895,-7.4895,-7.4895,-7.4895,-7.4895,-7.4895,-7.4895,-7.4895,-7.4895,-7.4895,-7.4895,-7.4895,-7.4895,-7.4895,-7.4895,-7.4854,-7.4771,-7.4691,-7.4649,-7.4476,-7.4214,-7.4206,-7.4019,-7.3875,-7.3628,-7.3615,-7.3564,-7.3476,-7.3527,-7.3564,-7.3461,-7.3372,-7.3372,-7.3372,-7.3372,-7.3372,-7.3372,-7.3372,-7.3372,-7.3372,-7.3372,-7.3372,-7.3372,-7.3372,-7.3372,-7.3372,-7.3372,-7.3372,-7.3372,-7.3372,-7.3372,-7.3372,-7.3372,-7.3372,-7.3187,-7.2258,-7.1403,-7.0772,-7.0215,-6.9657,-6.9026,-6.8291,-6.7878,-6.7826,-6.7415,-6.7137,-6.6852,-6.6595,-6.6197,-6.5796,-6.5278,-6.4808,-6.4463,-6.4145,-6.3858,-6.3747,-6.3604,-6.3393,-6.291,-6.1979,-6.1116,-6.0496,-5.9909,-5.9392,-5.9219,-5.9116,-5.9012,-5.8944,-5.8875,-5.8701,-5.8561,-5.8348,-5.8205,-7.6397,-7.6397,-7.6397,-7.6397,-7.6397,-7.6397,-7.6262,-7.6041,-7.5947,-7.5679,-7.5354,-7.5283,-7.5133,-7.4975,-7.4935,-7.4895,-7.4895,-7.4895,-7.4895,-7.4895,-7.4895,-7.4895,-7.4895,-7.4895,-7.4895,-7.4895,-7.4895,-7.4895,-7.4895,-7.4895,-7.4895,-7.4895,-7.4895,-7.4895,-7.4895,-7.4854,-7.4812,-7.4771,-7.4563,-7.4438,-7.4432,-7.4168,-7.3971,-7.3777,-7.3728,-7.3665,-7.3476,-7.3424,-7.3372,-7.3372,-7.3372,-7.3372,-7.3372,-7.3372,-7.3372,-7.3372,-7.3372,-7.3372,-7.3372,-7.3372,-7.3372,-7.3372,-7.3372,-7.3372,-7.3372,-7.3372,-7.3372,-7.3372,-7.3372,-7.3372,-7.3372,-7.3372,-7.3372,-7.3372,-7.3372,-7.3372,-7.3261,-7.2741,-7.2332,-7.1849,-7.0883,-7.0066,-6.9235,-6.8461,-6.8099,-6.763,-6.7249,-6.6852,-6.6595,-6.6233,-6.5859,-6.5439,-6.4944,-6.4463,-6.4145,-6.4002,-6.3673,-6.3673,-6.36,-6.3565,-6.3496,-6.291,-6.2013,-6.1082,-6.0427,-5.9909,-5.9392,-5.9185,-5.9116,-5.8978,-5.884,-5.8631,-5.8419,-5.8277,-5.8133,-7.6397,-7.6397,-7.6397,-7.6397,-7.6397,-7.6397,-7.6237,-7.5975,-7.5741,-7.5556,-7.5281,-7.5056,-7.4975,-7.4895,-7.4895,-7.4895,-7.4895,-7.4895,-7.4895,-7.4895,-7.4895,-7.4895,-7.4895,-7.4895,-7.4895,-7.4895,-7.4895,-7.4895,-7.4895,-7.4895,-7.4895,-7.4895,-7.4854,-7.4854,-7.4812,-7.4691,-7.4563,-7.4519,-7.4305,-7.4168,-7.4122,-7.3971,-7.3728,-7.3527,-7.3476,-7.3476,-7.3424,-7.3372,-7.3372,-7.3372,-7.3372,-7.3372,-7.3372,-7.3372,-7.3372,-7.3372,-7.3372,-7.3372,-7.3372,-7.3372,-7.3372,-7.3372,-7.3372,-7.3372,-7.3372,-7.3372,-7.3372,-7.3372,-7.3372,-7.3372,-7.3372,-7.3372,-7.3372,-7.3372,-7.3372,-7.3372,-7.3335,-7.3187,-7.2852,-7.2369,-7.1366,-7.0424,-6.9679,-6.8794,-6.7961,-6.7378,-6.6852,-6.638,-6.6048,-6.5732,-6.5409,-6.5011,-6.4671,-6.4182,-6.3712,-6.3712,-6.36,-6.36,-6.36,-6.36,-6.3565,-6.3565,-6.291,-6.2013,-6.1047,-6.0254,-5.9806,-5.9392,-5.9082,-5.8909,-5.8701,-5.849,-5.8348,-5.8171,-5.8027,-7.6397,-7.6397,-7.6397,-7.6311,-7.6212,-7.6212,-7.5985,-7.5654,-7.5489,-7.5318,-7.5095,-7.4975,-7.4895,-7.4895,-7.4895,-7.4895,-7.4895,-7.4895,-7.4895,-7.4895,-7.4895,-7.4895,-7.4895,-7.4895,-7.4895,-7.4895,-7.4895,-7.4895,-7.4895,-7.4895,-7.4895,-7.4854,-7.4733,-7.4691,-7.4606,-7.4394,-7.4305,-7.4214,-7.4113,-7.3971,-7.3923,-7.3765,-7.3564,-7.3424,-7.3372,-7.3372,-7.3372,-7.3372,-7.3372,-7.3372,-7.3372,-7.3372,-7.3372,-7.3372,-7.3372,-7.3372,-7.3372,-7.3372,-7.3372,-7.3372,-7.3372,-7.3372,-7.3372,-7.3372,-7.3372,-7.3372,-7.3372,-7.3372,-7.3372,-7.3372,-7.3372,-7.3372,-7.3372,-7.3372,-7.3372,-7.3372,-7.3372,-7.3372,-7.3112,-7.2741,-7.2072,-7.1204,-7.0337,-6.9326,-6.8019,-6.7206,-6.6572,-6.6048,-6.564,-6.5379,-6.5078,-6.4602,-6.4252,-6.4002,-6.3639,-6.36,-6.36,-6.36,-6.36,-6.36,-6.36,-6.3565,-6.3496,-6.3048,-6.2013,-6.0806,-6.0013,-5.953,-5.915,-5.884,-5.8701,-5.8561,-5.8314,-5.8099,-5.8128,-7.6335,-7.6397,-7.6335,-7.6212,-7.6013,-7.5918,-7.5718,-7.5354,-7.5281,-7.5171,-7.4935,-7.4895,-7.4895,-7.4895,-7.4895,-7.4895,-7.4895,-7.4895,-7.4895,-7.4895,-7.4895,-7.4895,-7.4812,-7.4812,-7.4771,-7.4649,-7.4649,-7.4812,-7.4854,-7.4812,-7.4812,-7.4691,-7.4563,-7.4394,-7.435,-7.4168,-7.4076,-7.3981,-7.3826,-7.3715,-7.3665,-7.3527,-7.3372,-7.3372,-7.3372,-7.3372,-7.3372,-7.3372,-7.3372,-7.3372,-7.3372,-7.3372,-7.3372,-7.3372,-7.3372,-7.3372,-7.3372,-7.3372,-7.3372,-7.3372,-7.3372,-7.3372,-7.3372,-7.3372,-7.3372,-7.3372,-7.3372,-7.3372,-7.3372,-7.3372,-7.3372,-7.3372,-7.3372,-7.3372,-7.3372,-7.3372,-7.3372,-7.3372,-7.3372,-7.3038,-7.2666,-7.2072,-7.1204,-6.9673,-6.8385,-6.7611,-6.6944,-6.611,-6.5704,-6.5247,-6.4808,-6.4252,-6.3858,-6.3712,-6.36,-6.36,-6.36,-6.36,-6.36,-6.36,-6.36,-6.36,-6.3496,-6.3393,-6.2565,-6.1392,-6.0565,-5.9702,-5.915,-5.884,-5.8771,-5.8697,-5.8689,-5.8608,-5.8564,-7.6173,-7.6397,-7.616,-7.6041,-7.5947,-7.5741,-7.5523,-7.532,-7.5245,-7.5133,-7.4895,-7.4895,-7.4895,-7.4895,-7.4895,-7.4895,-7.4895,-7.4854,-7.4854,-7.4854,-7.4812,-7.4729,-7.4563,-7.4563,-7.4476,-7.435,-7.426,-7.4438,-7.4649,-7.4606,-7.4563,-7.4482,-7.4305,-7.4168,-7.416,-7.3923,-7.3864,-7.3815,-7.3578,-7.3476,-7.3513,-7.3424,-7.3372,-7.3372,-7.3372,-7.3372,-7.3372,-7.3372,-7.3372,-7.3372,-7.3372,-7.3372,-7.3372,-7.3372,-7.3372,-7.3372,-7.3372,-7.3372,-7.3372,-7.3372,-7.3372,-7.3372,-7.3372,-7.3372,-7.3372,-7.3372,-7.3372,-7.3372,-7.3372,-7.3372,-7.3372,-7.3372,-7.3372,-7.3372,-7.3372,-7.3372,-7.3372,-7.3372,-7.3372,-7.3372,-7.3001,-7.2666,-7.2109,-7.0375,-6.8733,-6.8033,-6.728,-6.6449,-6.5604,-6.5011,-6.4568,-6.4002,-6.3712,-6.3673,-6.36,-6.36,-6.36,-6.36,-6.36,-6.36,-6.36,-6.36,-6.36,-6.3324,-6.2599,-6.2048,-6.1289,-6.0356,-5.9322,-5.9081,-5.9284,-5.9276,-5.923,-5.9186,-5.914,-7.5749,-7.5918,-7.5831,-7.571,-7.5589,-7.5489,-7.5318,-7.5095,-7.5056,-7.5015,-7.4895,-7.4895,-7.4895,-7.4895,-7.4895,-7.4895,-7.4854,-7.4771,-7.4649,-7.4606,-7.4563,-7.4432,-7.4305,-7.426,-7.4168,-7.4122,-7.4122,-7.4214,-7.435,-7.4387,-7.426,-7.4214,-7.4066,-7.3923,-7.3923,-7.3678,-7.3578,-7.3527,-7.3424,-7.3372,-7.3372,-7.3372,-7.3372,-7.3372,-7.3372,-7.3372,-7.3372,-7.3372,-7.3372,-7.3372,-7.3372,-7.3372,-7.3372,-7.3372,-7.3372,-7.3372,-7.3372,-7.3372,-7.3372,-7.3372,-7.3372,-7.3372,-7.3372,-7.3372,-7.3372,-7.3372,-7.3372,-7.3372,-7.3372,-7.3372,-7.3372,-7.3372,-7.3372,-7.3372,-7.3372,-7.3372,-7.3372,-7.3372,-7.3372,-7.3372,-7.3283,-7.2844,-7.2458,-7.1447,-6.9724,-6.8398,-6.751,-6.6576,-6.5455,-6.4428,-6.4074,-6.3712,-6.3673,-6.36,-6.36,-6.36,-6.36,-6.36,-6.36,-6.36,-6.36,-6.36,-6.36,-6.3393,-6.2841,-6.2324,-6.191,-6.122,-6.0287,-6.0007,-5.9932,-5.9886,-5.9911,-5.9973,-6.0028,-7.5281,-7.5417,-7.5485,-7.5421,-7.532,-7.5208,-7.5133,-7.4895,-7.4895,-7.4895,-7.4854,-7.4812,-7.4812,-7.4771,-7.4691,-7.4606,-7.4649,-7.4519,-7.4432,-7.4305,-7.4214,-7.4122,-7.3954,-7.3916,-7.3757,-7.3896,-7.3501,-7.3661,-7.3848,-7.3934,-7.3934,-7.3981,-7.3826,-7.3678,-7.3628,-7.3527,-7.3424,-7.3424,-7.3424,-7.3372,-7.3372,-7.3372,-7.3372,-7.3372,-7.3372,-7.3372,-7.3372,-7.3372,-7.3372,-7.3372,-7.3372,-7.3372,-7.3372,-7.3372,-7.3372,-7.3372,-7.3372,-7.3372,-7.3372,-7.3372,-7.3372,-7.3372,-7.3372,-7.3372,-7.3372,-7.3372,-7.3372,-7.3372,-7.3372,-7.3372,-7.3372,-7.3372,-7.3372,-7.3372,-7.3372,-7.332,-7.3268,-7.3162,-7.2963,-7.2761,-7.2705,-7.2705,-7.2374,-7.2134,-7.0863,-6.8997,-6.7716,-6.6638,-6.5432,-6.4109,-6.3785,-6.3639,-6.36,-6.36,-6.36,-6.36,-6.36,-6.36,-6.36,-6.36,-6.36,-6.36,-6.36,-6.3324,-6.3013,-6.2944,-6.2703,-6.1907,-6.1218,-6.0727,-6.0446,-6.0535,-6.0591,-6.0687,-6.0917,-7.4935,-7.4975,-7.5209,-7.5281,-7.5283,-7.5055,-7.4935,-7.4895,-7.4895,-7.4854,-7.4812,-7.4649,-7.4519,-7.4476,-7.435,-7.4214,-7.4168,-7.4168,-7.4122,-7.4122,-7.4076,-7.3934,-7.3725,-7.3329,-7.2969,-7.3229,-7.3093,-7.3117,-7.329,-7.354,-7.3628,-7.3728,-7.3578,-7.3476,-7.3424,-7.3424,-7.3372,-7.3372,-7.3372,-7.3372,-7.3372,-7.3372,-7.3372,-7.3372,-7.3372,-7.3372,-7.3372,-7.3372,-7.3372,-7.3372,-7.3372,-7.3372,-7.3372,-7.3372,-7.3372,-7.3372,-7.3372,-7.3372,-7.3372,-7.3372,-7.3372,-7.3372,-7.3372,-7.3372,-7.3372,-7.3372,-7.3372,-7.3372,-7.3372,-7.3372,-7.3372,-7.3372,-7.3372,-7.3268,-7.3162,-7.2963,-7.2853,-7.2742,-7.2537,-7.2153,-7.2094,-7.2212,-7.1998,-7.1669,-7.087,-6.9054,-6.7203,-6.6093,-6.5021,-6.393,-6.3785,-6.3639,-6.36,-6.36,-6.36,-6.36,-6.36,-6.36,-6.36,-6.36,-6.36,-6.36,-6.36,-6.3531,-6.3358,-6.3427,-6.3358,-6.2599,-6.1872,-6.1208,-6.0955,-6.1286,-6.1435,-6.1486,-6.1714,-7.4563,-7.4432,-7.4525,-7.4737,-7.5017,-7.4935,-7.4895,-7.4854,-7.4729,-7.4563,-7.4432,-7.4305,-7.426,-7.4214,-7.4168,-7.4122,-7.4076,-7.3971,-7.3923,-7.3875,-7.3777,-7.3628,-7.3341,-7.3192,-7.2992,-7.2829,-7.2704,-7.2629,-7.2681,-7.3075,-7.3387,-7.3476,-7.3424,-7.3424,-7.3372,-7.3372,-7.3372,-7.3372,-7.3372,-7.3372,-7.3372,-7.3372,-7.3372,-7.3372,-7.3372,-7.3372,-7.3372,-7.3372,-7.3372,-7.3372,-7.3372,-7.3372,-7.3372,-7.3372,-7.3372,-7.3372,-7.3372,-7.3372,-7.3372,-7.3372,-7.3372,-7.3372,-7.3372,-7.3372,-7.3372,-7.3372,-7.3372,-7.3372,-7.3372,-7.3372,-7.3372,-7.3372,-7.332,-7.3108,-7.2853,-7.2686,-7.2422,-7.2307,-7.213,-7.1732,-7.1794,-7.1915,-7.1511,-7.1159,-7.0217,-6.9,-6.7191,-6.5584,-6.4635,-6.3858,-6.3712,-6.3639,-6.36,-6.36,-6.36,-6.36,-6.36,-6.36,-6.36,-6.36,-6.36,-6.36,-6.36,-6.36,-6.36,-6.3565,-6.3393,-6.3048,-6.2557,-6.2061,-6.1941,-6.2131,-6.2319,-6.2256,-6.2279,-7.426,-7.4122,-7.4122,-7.4305,-7.4649,-7.4649,-7.4686,-7.4606,-7.4476,-7.426,-7.4122,-7.4029,-7.3981,-7.3981,-7.3886,-7.3886,-7.3789,-7.3728,-7.3715,-7.3665,-7.3527,-7.3372,-7.3298,-7.309,-7.2643,-7.2369,-7.2295,-7.2258,-7.2332,-7.2778,-7.3164,-7.335,-7.3372,-7.3372,-7.3372,-7.3372,-7.3372,-7.3372,-7.3372,-7.3372,-7.3372,-7.3372,-7.3372,-7.3372,-7.3372,-7.3372,-7.3372,-7.3372,-7.3372,-7.3372,-7.3372,-7.3372,-7.3372,-7.3372,-7.3372,-7.3372,-7.3372,-7.3372,-7.3372,-7.3372,-7.3372,-7.3372,-7.3372,-7.3372,-7.3372,-7.3372,-7.3372,-7.3372,-7.3372,-7.3372,-7.3372,-7.3268,-7.3108,-7.2853,-7.248,-7.2307,-7.1915,-7.1671,-7.1583,-7.1395,-7.1295,-7.1002,-7.0503,-7.0024,-6.9353,-6.8223,-6.6637,-6.5331,-6.4659,-6.4023,-6.3673,-6.36,-6.36,-6.36,-6.36,-6.36,-6.36,-6.36,-6.36,-6.36,-6.36,-6.36,-6.36,-6.36,-6.36,-6.36,-6.3496,-6.3289,-6.3136,-6.2939,-6.2787,-6.2455,-6.2445,-6.2313,-6.2347,-7.4122,-7.4122,-7.4076,-7.4122,-7.4122,-7.4122,-7.4168,-7.4214,-7.4122,-7.4076,-7.3981,-7.3875,-7.3777,-7.3728,-7.3628,-7.3527,-7.3527,-7.3476,-7.3424,-7.3424,-7.3424,-7.3372,-7.3187,-7.2852,-7.2518,-7.2072,-7.1886,-7.1886,-7.2072,-7.2332,-7.2704,-7.3149,-7.3298,-7.3372,-7.3372,-7.3372,-7.3372,-7.3372,-7.3372,-7.3372,-7.3372,-7.3372,-7.3372,-7.3372,-7.3372,-7.3372,-7.3372,-7.3372,-7.3372,-7.3372,-7.3372,-7.3372,-7.3372,-7.3372,-7.3372,-7.3372,-7.3372,-7.3372,-7.3372,-7.3372,-7.3372,-7.3372,-7.3372,-7.3372,-7.3372,-7.3372,-7.3372,-7.3372,-7.3372,-7.3372,-7.3268,-7.3071,-7.2908,-7.263,-7.2307,-7.1915,-7.1609,-7.1038,-7.0943,-7.0745,-7.027,-6.9813,-6.927,-6.8828,-6.8328,-6.7301,-6.5792,-6.4951,-6.4565,-6.4083,-6.3669,-6.36,-6.36,-6.36,-6.36,-6.36,-6.36,-6.36,-6.36,-6.36,-6.36,-6.36,-6.36,-6.36,-6.36,-6.36,-6.36,-6.3565,-6.3377,-6.3076,-6.2693,-6.2503,-6.2459,-6.2415,-6.2415,-7.3826,-7.3591,-7.3591,-7.3628,-7.3678,-7.3981,-7.4122,-7.4076,-7.3971,-7.3826,-7.3641,-7.3527,-7.3527,-7.3513,-7.3513,-7.3372,-7.3372,-7.3372,-7.3372,-7.3372,-7.3372,-7.3372,-7.3261,-7.3038,-7.2666,-7.2258,-7.1812,-7.1366,-7.1329,-7.1775,-7.2184,-7.2629,-7.3187,-7.3372,-7.3372,-7.3372,-7.3372,-7.3372,-7.3372,-7.3372,-7.3372,-7.3372,-7.3372,-7.3372,-7.3372,-7.3372,-7.3372,-7.3372,-7.3372,-7.3372,-7.3372,-7.3372,-7.3372,-7.3372,-7.3372,-7.3372,-7.3372,-7.3372,-7.3372,-7.3372,-7.3372,-7.3372,-7.3372,-7.3372,-7.3372,-7.3372,-7.3372,-7.3372,-7.3372,-7.3372,-7.332,-7.3268,-7.3108,-7.2686,-7.2307,-7.1794,-7.1295,-7.0611,-7.0236,-7.0096,-6.9742,-6.9379,-6.8857,-6.8551,-6.8042,-6.7549,-6.6332,-6.54,-6.4841,-6.4152,-6.3634,-6.36,-6.36,-6.36,-6.36,-6.36,-6.36,-6.36,-6.36,-6.36,-6.36,-6.36,-6.36,-6.36,-6.36,-6.36,-6.36,-6.3526,-6.3377,-6.3152,-6.2847,-6.2615,-6.2537,-6.2459,-6.2415,-7.3564,-7.3372,-7.3372,-7.3372,-7.3424,-7.374,-7.3838,-7.3838,-7.3728,-7.3564,-7.3424,-7.3372,-7.3372,-7.3372,-7.3372,-7.3372,-7.3372,-7.3372,-7.3372,-7.3372,-7.3372,-7.3372,-7.3372,-7.3335,-7.2815,-7.2332,-7.1849,-7.1403,-7.1032,-7.1478,-7.2109,-7.2704,-7.3112,-7.3335,-7.3372,-7.3372,-7.3372,-7.3372,-7.3372,-7.3372,-7.3372,-7.3372,-7.3372,-7.3372,-7.3372,-7.3372,-7.3372,-7.3372,-7.3372,-7.3372,-7.3372,-7.3372,-7.3372,-7.3372,-7.3372,-7.3372,-7.3372,-7.3372,-7.3372,-7.3372,-7.3372,-7.3372,-7.3372,-7.3372,-7.3372,-7.3372,-7.3372,-7.3372,-7.3372,-7.3268,-7.3162,-7.3162,-7.2705,-7.227,-7.1671,-7.1167,-7.0775,-7.0061,-6.9742,-6.9598,-6.9379,-6.8932,-6.8628,-6.8397,-6.8093,-6.7532,-6.7014,-6.6117,-6.5186,-6.4462,-6.3807,-6.3703,-6.3634,-6.36,-6.36,-6.36,-6.36,-6.36,-6.36,-6.36,-6.36,-6.36,-6.36,-6.36,-6.36,-6.36,-6.36,-6.3526,-6.3452,-6.3302,-6.3076,-6.2847,-6.2693,-6.2537,-6.2415,-7.3372,-7.3372,-7.3372,-7.3372,-7.3372,-7.3424,-7.3424,-7.3424,-7.3461,-7.341,-7.3372,-7.3372,-7.3372,-7.3372,-7.3372,-7.3372,-7.3372,-7.3372,-7.3372,-7.3372,-7.3372,-7.3372,-7.3372,-7.3335,-7.3001,-7.2258,-7.1663,-7.1366,-7.0958,-7.1106,-7.1886,-7.2889,-7.3224,-7.3372,-7.3372,-7.3372,-7.3372,-7.3372,-7.3372,-7.3372,-7.3372,-7.3372,-7.3372,-7.3372,-7.3372,-7.3372,-7.3372,-7.3372,-7.3372,-7.3372,-7.3372,-7.3372,-7.3372,-7.3372,-7.3372,-7.3372,-7.3372,-7.3372,-7.3372,-7.3372,-7.3372,-7.3372,-7.3372,-7.3372,-7.3372,-7.3372,-7.332,-7.3268,-7.3215,-7.2963,-7.2798,-7.2365,-7.1915,-7.1359,-7.0709,-7.0339,-7.0061,-6.9635,-6.9379,-6.9157,-6.8932,-6.8551,-6.8319,-6.8083,-6.8083,-6.7876,-6.7428,-6.6876,-6.5911,-6.491,-6.4324,-6.3876,-6.3772,-6.3634,-6.36,-6.36,-6.36,-6.36,-6.36,-6.36,-6.36,-6.36,-6.36,-6.36,-6.36,-6.36,-6.36,-6.36,-6.36,-6.3377,-6.3152,-6.3,-6.2847,-6.2537,-6.2415,-7.3372,-7.3372,-7.3372,-7.3372,-7.3372,-7.3372,-7.3372,-7.3372,-7.3372,-7.3372,-7.3372,-7.3372,-7.3372,-7.3372,-7.3372,-7.3372,-7.3372,-7.3372,-7.3372,-7.3372,-7.3372,-7.3372,-7.3372,-7.3372,-7.3187,-7.2815,-7.2184,-7.1403,-7.0995,-7.092,-7.1403,-7.2369,-7.3149,-7.3298,-7.3372,-7.3372,-7.3372,-7.3372,-7.3372,-7.3372,-7.3372,-7.3372,-7.3372,-7.3372,-7.3372,-7.3372,-7.3372,-7.3372,-7.3372,-7.3372,-7.3372,-7.3372,-7.3372,-7.3372,-7.3372,-7.3372,-7.3372,-7.3372,-7.3372,-7.3372,-7.3372,-7.3372,-7.3372,-7.3372,-7.3372,-7.332,-7.3215,-7.3017,-7.2853,-7.2593,-7.2248,-7.1794,-7.1386,-7.0872,-7.0303,-6.9955,-6.9671,-6.927,-6.8973,-6.8781,-6.8551,-6.8397,-6.8083,-6.8083,-6.8083,-6.8014,-6.7773,-6.7325,-6.6704,-6.5704,-6.4772,-6.4289,-6.3979,-6.3841,-6.3634,-6.36,-6.36,-6.36,-6.36,-6.36,-6.36,-6.36,-6.36,-6.36,-6.36,-6.36,-6.36,-6.36,-6.36,-6.3452,-6.3302,-6.3076,-6.2923,-6.2615,-6.2415,-7.3372,-7.3372,-7.3372,-7.3372,-7.3372,-7.3372,-7.3372,-7.3372,-7.3372,-7.3372,-7.3372,-7.3372,-7.3372,-7.3372,-7.3372,-7.3372,-7.3372,-7.3372,-7.3372,-7.3372,-7.3372,-7.3372,-7.3372,-7.3372,-7.3372,-7.3112,-7.2555,-7.1663,-7.1143,-7.0995,-7.1366,-7.2221,-7.3001,-7.3298,-7.3372,-7.3372,-7.3372,-7.3372,-7.3372,-7.3372,-7.3372,-7.3372,-7.3372,-7.3372,-7.3372,-7.3372,-7.3372,-7.3372,-7.3372,-7.3372,-7.3372,-7.3372,-7.3372,-7.3372,-7.3372,-7.3372,-7.3372,-7.3372,-7.3372,-7.3372,-7.3372,-7.332,-7.3215,-7.3108,-7.3108,-7.3054,-7.2798,-7.248,-7.2365,-7.2153,-7.1732,-7.1323,-7.0937,-7.0539,-7.0129,-6.9707,-6.9309,-6.8822,-6.8628,-6.8474,-6.8319,-6.8162,-6.8083,-6.8083,-6.8083,-6.8049,-6.8014,-6.7842,-6.7325,-6.66,-6.5497,-6.4669,-6.4324,-6.4048,-6.3876,-6.3669,-6.36,-6.36,-6.36,-6.36,-6.36,-6.36,-6.36,-6.36,-6.36,-6.36,-6.36,-6.36,-6.36,-6.3452,-6.3302,-6.3076,-6.2847,-6.2615,-6.2493,-7.3372,-7.3372,-7.3372,-7.3372,-7.3372,-7.3372,-7.3372,-7.3372,-7.3372,-7.3372,-7.3372,-7.3372,-7.3372,-7.3372,-7.3372,-7.3372,-7.3372,-7.3372,-7.3372,-7.3372,-7.3372,-7.3372,-7.3372,-7.3372,-7.3372,-7.3112,-7.2666,-7.1998,-7.1218,-7.1143,-7.1552,-7.2184,-7.3001,-7.3372,-7.3372,-7.3372,-7.3372,-7.3372,-7.3372,-7.3372,-7.3372,-7.3372,-7.3372,-7.3372,-7.3372,-7.3372,-7.3372,-7.3372,-7.3372,-7.3372,-7.3372,-7.3372,-7.3372,-7.3372,-7.3372,-7.3372,-7.3372,-7.3372,-7.3372,-7.3372,-7.332,-7.3215,-7.3,-7.2686,-7.2537,-7.2593,-7.2328,-7.1818,-7.1635,-7.1259,-7.0806,-7.0539,-7.0198,-6.9814,-6.9455,-6.9087,-6.8822,-6.844,-6.8319,-6.8241,-6.8241,-6.8083,-6.8083,-6.8083,-6.8083,-6.8083,-6.8083,-6.8049,-6.7807,-6.7256,-6.6428,-6.529,-6.4669,-6.4358,-6.4048,-6.3841,-6.3634,-6.36,-6.36,-6.36,-6.36,-6.36,-6.36,-6.36,-6.36,-6.36,-6.36,-6.36,-6.3526,-6.3452,-6.3227,-6.3,-6.277,-6.2571,-6.2493,-7.3372,-7.3372,-7.3372,-7.3372,-7.3372,-7.3372,-7.3372,-7.3372,-7.3372,-7.3372,-7.3372,-7.3372,-7.3372,-7.3372,-7.3372,-7.3372,-7.3372,-7.3372,-7.3372,-7.3372,-7.3372,-7.3372,-7.3372,-7.3372,-7.3372,-7.3335,-7.2964,-7.2221,-7.1292,-7.1366,-7.1589,-7.1478,-7.2481,-7.3261,-7.3372,-7.3372,-7.3372,-7.3372,-7.3372,-7.3372,-7.3372,-7.3372,-7.3372,-7.3372,-7.3372,-7.3372,-7.3372,-7.3372,-7.3372,-7.3372,-7.3372,-7.3372,-7.3372,-7.3372,-7.3372,-7.3372,-7.3372,-7.3372,-7.332,-7.3268,-7.3162,-7.2908,-7.263,-7.2189,-7.2011,-7.2034,-7.1794,-7.1259,-7.074,-7.0267,-6.9955,-6.9671,-6.9455,-6.9048,-6.8781,-6.8551,-6.8319,-6.8162,-6.8083,-6.8083,-6.8083,-6.8083,-6.8083,-6.8083,-6.8083,-6.8083,-6.8083,-6.8083,-6.8083,-6.7738,-6.7394,-6.6324,-6.5152,-6.4703,-6.4324,-6.4048,-6.3841,-6.3634,-6.36,-6.36,-6.36,-6.36,-6.36,-6.36,-6.36,-6.36,-6.36,-6.36,-6.3526,-6.3452,-6.3227,-6.3,-6.2847,-6.2615,-6.2493,-7.3372,-7.3372,-7.3372,-7.3372,-7.3372,-7.3372,-7.3372,-7.3372,-7.3372,-7.3372,-7.3372,-7.3372,-7.3372,-7.3372,-7.3372,-7.3372,-7.3372,-7.3372,-7.3372,-7.3372,-7.3372,-7.3372,-7.3372,-7.3372,-7.3372,-7.3335,-7.2889,-7.2184,-7.1255,-7.118,-7.1255,-7.1218,-7.2295,-7.3038,-7.3261,-7.3372,-7.3372,-7.3372,-7.3372,-7.3372,-7.3372,-7.3372,-7.3372,-7.3372,-7.3372,-7.3372,-7.3372,-7.3372,-7.3372,-7.3372,-7.3372,-7.3372,-7.3372,-7.3372,-7.3372,-7.3372,-7.3372,-7.332,-7.3162,-7.3017,-7.2853,-7.248,-7.1818,-7.1259,-7.1395,-7.1359,-7.0907,-7.0339,-7.0095,-6.9706,-6.9309,-6.9122,-6.8898,-6.8551,-6.8397,-6.8241,-6.8162,-6.8162,-6.8083,-6.8083,-6.8083,-6.8083,-6.8083,-6.8083,-6.8083,-6.8083,-6.8083,-6.8083,-6.8083,-6.8083,-6.7807,-6.7394,-6.6186,-6.5152,-6.46,-6.4324,-6.4083,-6.3876,-6.3669,-6.36,-6.36,-6.36,-6.36,-6.36,-6.36,-6.36,-6.36,-6.36,-6.3526,-6.3377,-6.3152,-6.3,-6.2847,-6.277,-6.2615,-7.3372,-7.3372,-7.3372,-7.3372,-7.3372,-7.3372,-7.3372,-7.3372,-7.3372,-7.3372,-7.3372,-7.3372,-7.3372,-7.3372,-7.3372,-7.3372,-7.3372,-7.3372,-7.3372,-7.3372,-7.3372,-7.3372,-7.3372,-7.3372,-7.3372,-7.3224,-7.2852,-7.2109,-7.1292,-7.1366,-7.1441,-7.1292,-7.1812,-7.2592,-7.3149,-7.3372,-7.3372,-7.3372,-7.3372,-7.3372,-7.3372,-7.3372,-7.3372,-7.3372,-7.3372,-7.3372,-7.3372,-7.3372,-7.3372,-7.3372,-7.3372,-7.3372,-7.332,-7.3268,-7.3215,-7.3215,-7.3017,-7.2853,-7.2686,-7.263,-7.2212,-7.1696,-7.0966,-7.0673,-7.0811,-7.0475,-6.9956,-6.9742,-6.9452,-6.9157,-6.8857,-6.8628,-6.8397,-6.8241,-6.8162,-6.8118,-6.8083,-6.8083,-6.8083,-6.8083,-6.8083,-6.8083,-6.8083,-6.8083,-6.8083,-6.8083,-6.8083,-6.8083,-6.8083,-6.8083,-6.7945,-6.7807,-6.7221,-6.6186,-6.529,-6.4669,-6.4427,-6.4083,-6.3876,-6.3703,-6.36,-6.36,-6.36,-6.36,-6.36,-6.36,-6.36,-6.36,-6.3526,-6.3377,-6.3227,-6.3076,-6.3,-6.2923,-6.277,-7.3372,-7.3372,-7.3372,-7.3372,-7.3372,-7.3372,-7.3372,-7.3372,-7.3372,-7.3372,-7.3372,-7.3372,-7.3372,-7.3372,-7.3372,-7.3372,-7.3372,-7.3372,-7.3372,-7.3372,-7.3372,-7.3372,-7.3372,-7.3372,-7.3372,-7.3261,-7.3075,-7.2666,-7.1812,-7.1812,-7.1923,-7.1923,-7.1923,-7.2555,-7.3224,-7.3372,-7.3372,-7.3372,-7.3372,-7.3372,-7.3372,-7.3372,-7.3372,-7.3372,-7.3372,-7.3372,-7.3372,-7.3372,-7.3372,-7.3372,-7.3372,-7.3372,-7.3268,-7.3071,-7.2908,-7.2798,-7.2593,-7.2328,-7.2153,-7.213,-7.1732,-7.1131,-7.0575,-7.0371,-7.02,-6.9635,-6.9379,-6.9452,-6.9157,-6.8857,-6.8551,-6.8319,-6.8162,-6.8162,-6.8083,-6.8083,-6.8083,-6.8083,-6.8083,-6.8083,-6.8083,-6.8083,-6.8083,-6.8083,-6.8083,-6.8083,-6.8083,-6.8083,-6.8083,-6.8083,-6.8083,-6.798,-6.7876,-6.7497,-6.6669,-6.5359,-6.4876,-6.4462,-6.4083,-6.3876,-6.3703,-6.36,-6.36,-6.36,-6.36,-6.36,-6.36,-6.36,-6.36,-6.3526,-6.3377,-6.3227,-6.3152,-6.3076,-6.3]}]]